[[{"header":{"parameterUnit":"m.s-1","parameterCategory":1,"la1":30.6,"la2":28.766,"lo1":-90.7593,"lo2":-88.6598,"dy":0.0162,"dx":0.0183,"nx":116,"ny":114,"refTime":"2023-03-14T18:00:00:Z","depth":0,"parameterNumber":2,"parameterNumberName":"U-component_of_WINDS"},"data":[0.0,0.0,0.0,0.0,0.0,0.0,0.0,0.0,0.0,0.0,0.0,0.0,0.0,0.0,0.0,0.0,0.0,0.0,0.0,0.0,0.0,0.0,0.0,0.0,0.0,0.0,0.0,0.0,0.0,0.0,0.0,0.0,0.0,0.0,0.0,0.0,0.0,0.0,0.0,0.0,0.0,0.0,0.0,0.0,0.0,0.0,0.0,0.0,0.0,0.0,0.0,0.0,0.0,0.0,0.0,0.0,0.0,0.0,0.0,0.0,0.0,0.0,0.0,0.0,0.0,0.0,0.0,0.0,0.0,0.0,0.0,0.0,0.0,0.0,0.0,0.0,0.0,0.0,0.0,0.0,0.0,0.0,0.0,0.0,0.0,0.0,0.0,0.0,0.0,0.0,0.0,0.0,0.0,0.0,0.0,0.0,0.0,0.0,0.0,0.0,0.0,0.0,0.0,0.0,0.0,0.0,0.0,0.0,0.0,0.0,0.0,0.0,0.0,0.0,0.0,0.0,0.0,0.0,0.0,0.0,0.0,0.0,0.0,0.0,0.0,0.0,0.0,0.0,0.0,0.0,0.0,0.0,0.0,0.0,0.0,0.0,0.0,0.0,0.0,0.0,0.0,0.0,0.0,0.0,0.0,0.0,0.0,0.0,0.0,0.0,0.0,0.0,0.0,0.0,0.0,0.0,0.0,0.0,0.0,0.0,0.0,0.0,0.0,0.0,0.0,0.0,0.0,0.0,0.0,0.0,0.0,0.0,0.0,0.0,0.0,0.0,0.0,0.0,0.0,0.0,0.0,0.0,0.0,0.0,0.0,0.0,0.0,0.0,0.0,0.0,0.0,0.0,0.0,0.0,0.0,0.0,0.0,0.0,0.0,0.0,0.0,0.0,0.0,0.0,0.0,0.0,0.0,0.0,0.0,0.0,0.0,0.0,0.0,0.0,0.0,0.0,0.0,0.0,0.0,0.0,0.0,0.0,0.0,0.0,0.0,0.0,0.0,0.0,0.0,0.0,0.0,0.0,0.0,0.0,0.0,0.0,0.0,0.0,0.0,0.0,0.0,0.0,0.0,0.0,0.0,0.0,0.0,0.0,0.0,0.0,0.0,0.0,0.0,0.0,0.0,0.0,0.0,0.0,0.0,0.0,0.0,0.0,0.0,0.0,0.0,0.0,0.0,0.0,0.0,0.0,0.0,0.0,0.0,0.0,0.0,0.0,0.0,0.0,0.0,0.0,0.0,0.0,0.0,0.0,0.0,0.0,0.0,0.0,0.0,0.0,0.0,0.0,0.0,0.0,0.0,0.0,0.0,0.0,0.0,0.0,0.0,0.0,0.0,0.0,0.0,0.0,0.0,0.0,0.0,0.0,0.0,0.0,0.0,0.0,0.0,0.0,0.0,0.0,0.0,0.0,0.0,0.0,0.0,0.0,0.0,0.0,0.0,0.0,0.0,0.0,0.0,0.0,0.0,0.0,0.0,0.0,0.0,0.0,0.0,0.0,0.0,0.0,0.0,0.0,0.0,0.0,0.0,0.0,0.0,0.0,0.0,0.0,0.0,0.0,0.0,0.0,0.0,0.0,0.0,0.0,0.0,0.0,0.0,0.0,0.0,0.0,0.0,0.0,0.0,0.0,0.0,0.0,0.0,0.0,0.0,0.0,0.0,0.0,0.0,0.0,0.0,0.0,0.0,0.0,0.0,0.0,0.0,0.0,0.0,0.0,0.0,0.0,0.0,0.0,0.0,0.0,0.0,0.0,0.0,0.0,0.0,0.0,0.0,0.0,0.0,0.0,0.0,0.0,0.0,0.0,0.0,0.0,0.0,0.0,0.0,0.0,0.0,0.0,0.0,0.0,0.0,0.0,0.0,0.0,0.0,0.0,0.0,0.0,0.0,0.0,0.0,0.0,0.0,0.0,0.0,0.0,0.0,0.0,0.0,0.0,0.0,0.0,0.0,0.0,0.0,0.0,0.0,0.0,0.0,0.0,0.0,0.0,0.0,0.0,0.0,0.0,0.0,0.0,0.0,0.0,0.0,0.0,0.0,0.0,0.0,0.0,0.0,0.0,0.0,0.0,0.0,0.0,0.0,0.0,0.0,0.0,0.0,0.0,0.0,0.0,0.0,0.0,0.0,0.0,0.0,0.0,0.0,0.0,0.0,0.0,0.0,0.0,0.0,0.0,0.0,0.0,0.0,0.0,0.0,0.0,0.0,0.0,0.0,0.0,0.0,0.0,0.0,0.0,0.0,0.0,0.0,0.0,0.0,0.0,0.0,0.0,0.0,0.0,0.0,0.0,0.0,0.0,0.0,0.0,0.0,0.0,0.0,0.0,0.0,0.0,0.0,0.0,0.0,0.0,0.0,0.0,0.0,0.0,0.0,0.0,0.0,0.0,0.0,0.0,0.0,0.0,0.0,0.0,0.0,0.0,0.0,0.0,0.0,0.0,0.0,0.0,0.0,0.0,0.0,0.0,0.0,0.0,0.0,0.0,0.0,0.0,0.0,0.0,0.0,0.0,0.0,0.0,0.0,0.0,0.0,0.0,0.0,0.0,0.0,0.0,0.0,0.0,0.0,0.0,0.0,0.0,0.0,0.0,0.0,0.0,0.0,0.0,0.0,0.0,0.0,0.0,0.0,0.0,0.0,0.0,0.0,0.0,0.0,0.0,0.0,0.0,0.0,0.0,0.0,0.0,0.0,0.0,0.0,0.0,0.0,0.0,0.0,0.0,0.0,0.0,0.0,0.0,0.0,0.0,0.0,0.0,0.0,0.0,0.0,0.0,0.0,0.0,0.0,0.0,0.0,0.0,0.0,0.0,0.0,0.0,0.0,0.0,0.0,0.0,0.0,0.0,0.0,0.0,0.0,0.0,0.0,0.0,0.0,0.0,0.0,0.0,0.0,0.0,0.0,0.0,0.0,0.0,0.0,0.0,0.0,0.0,0.0,0.0,0.0,0.0,0.0,0.0,0.0,0.0,0.0,0.0,0.0,0.0,0.0,0.0,0.0,0.0,0.0,0.0,0.0,0.0,0.0,0.0,0.0,0.0,0.0,0.0,0.0,0.0,0.0,0.0,0.0,0.0,0.0,0.0,0.0,0.0,0.0,0.0,0.0,0.0,0.0,0.0,0.0,0.0,0.0,0.0,0.0,0.0,0.0,0.0,0.0,0.0,0.0,0.0,0.0,0.0,0.0,0.0,0.0,0.0,0.0,0.0,0.0,0.0,0.0,0.0,0.0,0.0,0.0,0.0,0.0,0.0,0.0,0.0,0.0,0.0,0.0,0.0,0.0,0.0,0.0,0.0,0.0,0.0,0.0,0.0,0.0,0.0,0.0,0.0,0.0,0.0,0.0,0.0,0.0,0.0,0.0,0.0,0.0,0.0,0.0,0.0,0.0,0.0,0.0,0.0,0.0,0.0,0.0,0.0,0.0,0.0,0.0,0.0,0.0,0.0,0.0,0.0,0.0,0.0,0.0,0.0,0.0,0.0,0.0,0.0,0.0,0.0,0.0,0.0,0.0,0.0,0.0,0.0,0.0,0.0,0.0,0.0,0.0,0.0,0.0,0.0,0.0,0.0,0.0,0.0,0.0,0.0,0.0,0.0,0.0,0.0,0.0,0.0,0.0,0.0,0.0,0.0,0.0,0.0,0.0,0.0,0.0,0.0,0.0,0.0,0.0,0.0,0.0,0.0,0.0,0.0,0.0,0.0,0.0,0.0,0.0,0.0,0.0,0.0,0.0,0.0,0.0,0.0,0.0,0.0,0.0,0.0,0.0,0.0,0.0,0.0,0.0,0.0,0.0,0.0,0.0,0.0,0.0,0.0,0.0,0.0,0.0,0.0,0.0,0.0,0.0,0.0,0.0,0.0,0.0,0.0,0.0,0.0,0.0,0.0,0.0,0.0,0.0,0.0,0.0,0.0,0.0,0.0,0.0,0.0,0.0,0.0,0.0,0.0,0.0,0.0,0.0,0.0,0.0,0.0,0.0,0.0,0.0,0.0,0.0,0.0,0.0,0.0,0.0,0.0,0.0,0.0,0.0,0.0,0.0,0.0,0.0,0.0,0.0,0.0,0.0,0.0,0.0,0.0,0.0,0.0,0.0,0.0,0.0,0.0,0.0,0.0,0.0,0.0,0.0,0.0,0.0,0.0,0.0,0.0,0.0,0.0,0.0,0.0,0.0,0.0,0.0,0.0,0.0,0.0,0.0,0.0,0.0,0.0,0.0,0.0,0.0,0.0,0.0,0.0,0.0,0.0,0.0,0.0,0.0,0.0,0.0,0.0,0.0,0.0,0.0,0.0,0.0,0.0,0.0,0.0,0.0,0.0,0.0,0.0,0.0,0.0,0.0,0.0,0.0,0.0,0.0,0.0,0.0,0.0,0.0,0.0,0.0,0.0,0.0,0.0,0.0,0.0,0.0,0.0,0.0,0.0,0.0,0.0,0.0,0.0,0.0,0.0,0.0,0.0,0.0,0.0,0.0,0.0,0.0,0.0,0.0,0.0,0.0,0.0,0.0,0.0,0.0,0.0,0.0,0.0,0.0,0.0,0.0,0.0,0.0,0.0,0.0,0.0,0.0,0.0,0.0,0.0,0.0,0.0,0.0,0.0,0.0,0.0,0.0,0.0,0.0,0.0,0.0,0.0,0.0,0.0,0.0,0.0,0.0,0.0,0.0,0.0,0.0,0.0,0.0,0.0,0.0,0.0,0.0,0.0,0.0,0.0,0.0,0.0,0.0,0.0,0.0,0.0,0.0,0.0,0.0,0.0,0.0,0.0,0.0,0.0,0.0,0.0,0.0,0.0,0.0,0.0,0.0,0.0,0.0,0.0,0.0,0.0,0.0,0.0,0.0,0.0,0.0,0.0,0.0,0.0,0.0,0.0,0.0,0.0,0.0,0.0,0.0,0.0,0.0,0.0,0.0,0.0,0.0,0.0,0.0,0.0,0.0,0.0,0.0,0.0,0.0,0.0,0.0,0.0,0.0,0.0,0.0,0.0,0.0,0.0,0.0,0.0,0.0,0.0,0.0,0.0,0.0,0.0,0.0,0.0,0.0,0.0,0.0,0.0,0.0,0.0,0.0,0.0,0.0,0.0,0.0,0.0,0.0,0.0,0.0,0.0,0.0,0.0,0.0,0.0,0.0,0.0,0.0,0.0,0.0,0.0,0.0,0.0,0.0,0.0,0.0,0.0,0.0,0.0,0.0,0.0,0.0,0.0,0.0,0.0,0.0,0.0,0.0,0.0,0.0,0.0,0.0,0.0,0.0,0.0,0.0,0.0,0.0,0.0,0.0,0.0,0.0,0.0,0.0,0.0,0.0,0.0,0.0,0.0,0.0,0.0,0.0,0.0,0.0,0.0,0.0,0.0,0.0,0.0,0.0,0.0,0.0,0.0,0.0,0.0,0.0,0.0,0.0,0.0,0.0,0.0,0.0,0.0,0.0,0.0,0.0,0.0,0.0,0.0,0.0,0.0,0.0,0.0,0.0,0.0,0.0,0.0,0.0,0.0,0.0,0.0,0.0,0.0,0.0,0.0,0.0,0.0,0.0,0.0,0.0,0.0,0.0,0.0,0.0,0.0,0.0,0.0,0.0,0.0,0.0,0.0,0.0,0.0,0.0,0.0,0.0,0.0,0.0,0.0,0.0,0.0,0.0,0.0,0.0,0.0,0.0,0.0,0.0,0.0,0.0,0.0,0.0,0.0,0.0,0.0,0.0,0.0,0.0,0.0,0.0,0.0,0.0,0.0,0.0,0.0,0.0,0.0,0.0,0.0,0.0,0.0,0.0,0.0,0.0,0.0,0.0,0.0,0.0,0.0,0.0,0.0,0.0,0.0,0.0,0.0,0.0,0.0,0.0,0.0,0.0,0.0,0.0,0.0,0.0,0.0,0.0,0.0,0.0,0.0,0.0,0.0,0.0,0.0,0.0,0.0,0.0,0.0,0.0,0.0,0.0,0.0,0.0,0.0,0.0,0.0,0.0,0.0,0.0,0.0,0.0,0.0,0.0,0.0,0.0,0.0,0.0,0.0,0.0,0.0,0.0,0.0,0.0,0.0,0.0,0.0,0.0,0.0,0.0,0.0,0.0,0.0,-1.1576,0.0,0.0,0.0,0.0,0.0,0.0,0.0,0.0,0.0,0.0,0.0,0.0,0.0,0.0,0.0,0.0,0.0,0.0,0.0,0.0,0.0,0.0,0.0,0.0,0.0,0.0,0.0,0.0,0.0,0.0,0.0,0.0,0.0,0.0,0.0,0.0,0.0,0.0,0.0,-2.1861,-2.3195,-2.4307,-2.3015,-2.0849,-1.803,0.0,0.0,0.0,0.0,0.0,0.0,0.0,0.0,0.0,0.0,0.0,0.0,0.0,0.0,0.0,0.0,0.0,0.0,0.0,0.0,0.0,0.0,0.0,0.0,0.0,0.0,0.0,0.0,0.0,0.0,0.0,0.0,0.0,0.0,0.0,0.0,0.0,0.0,0.0,0.0,0.0,0.0,0.0,0.0,0.0,0.0,0.0,0.0,0.0,0.0,0.0,0.0,0.0,0.0,0.0,0.0,0.0,0.0,0.0,0.0,0.0,0.0,0.0,0.0,0.0,0.0,0.0,0.0,0.0,0.0,0.0,-1.2317,0.0,0.0,0.0,0.0,0.0,0.0,0.0,0.0,0.0,0.0,0.0,0.0,0.0,0.0,0.0,0.0,0.0,0.0,0.0,0.0,0.0,0.0,0.0,0.0,0.0,0.0,0.0,0.0,0.0,0.0,0.0,0.0,0.0,0.0,0.0,-2.3045,-2.3144,-2.2346,-2.5163,-2.7621,-2.9749,-2.9045,-2.6193,-2.1546,-1.9534,0.0,0.0,0.0,0.0,0.0,0.0,0.0,0.0,0.0,0.0,0.0,0.0,0.0,0.0,0.0,0.0,0.0,0.0,0.0,0.0,0.0,0.0,0.0,0.0,0.0,0.0,0.0,0.0,0.0,0.0,0.0,0.0,0.0,0.0,0.0,0.0,0.0,0.0,0.0,0.0,0.0,0.0,0.0,0.0,0.0,0.0,0.0,0.0,0.0,0.0,0.0,0.0,0.0,0.0,0.0,0.0,0.0,0.0,0.0,0.0,0.0,0.0,0.0,0.0,-2.0365,-2.0885,-2.1077,-2.1241,-2.1183,-1.7022,-1.5332,-1.5281,0.0,0.0,0.0,0.0,0.0,0.0,0.0,0.0,0.0,0.0,0.0,0.0,0.0,0.0,0.0,0.0,0.0,0.0,0.0,0.0,0.0,0.0,-2.0245,-2.059,-2.1367,-2.1424,-2.1924,0.0,0.0,0.0,0.0,0.0,0.0,-2.3335,-2.4576,-2.5303,-2.534,-2.9457,-3.2449,-3.4329,-3.3864,-3.2983,-3.1492,-2.5274,-2.2944,-2.3517,0.0,0.0,0.0,0.0,0.0,0.0,0.0,0.0,0.0,0.0,0.0,0.0,0.0,0.0,0.0,0.0,0.0,0.0,0.0,0.0,0.0,0.0,0.0,0.0,0.0,0.0,0.0,0.0,0.0,0.0,0.0,0.0,0.0,0.0,0.0,0.0,0.0,0.0,0.0,0.0,0.0,-1.5358,-1.4099,0.0,0.0,0.0,0.0,0.0,0.0,0.0,0.0,0.0,0.0,0.0,0.0,0.0,0.0,-2.2692,-2.4715,-2.5513,-2.5099,-2.6442,-2.6795,-2.6268,-2.558,-2.5297,-2.5248,-2.3332,0.0,-1.7737,-1.6105,0.0,0.0,0.0,0.0,0.0,0.0,0.0,0.0,0.0,0.0,0.0,0.0,0.0,0.0,0.0,0.0,0.0,0.0,0.0,0.0,0.0,-2.4249,-2.5354,-2.5564,-2.7399,-2.7858,-2.6126,0.0,0.0,0.0,0.0,-2.594,-2.4986,-2.6553,-2.8995,-3.2314,-3.6067,-3.8703,-4.0309,-3.9729,-3.8779,-3.7453,-3.3279,-2.9702,-2.6602,-2.366,0.0,0.0,0.0,0.0,0.0,0.0,0.0,0.0,0.0,0.0,0.0,0.0,0.0,0.0,0.0,0.0,0.0,0.0,0.0,0.0,0.0,0.0,0.0,0.0,0.0,0.0,0.0,0.0,0.0,0.0,0.0,0.0,0.0,0.0,0.0,0.0,0.0,0.0,0.0,-1.8595,-1.8857,-1.6847,-1.8152,-1.8542,0.0,0.0,0.0,0.0,0.0,0.0,0.0,0.0,0.0,-2.5425,-2.6128,-2.692,-2.779,-2.9673,-3.0622,-3.0736,-3.1067,-3.1348,-3.1529,-3.0293,-2.9643,-2.9442,-2.7983,-2.5824,-2.3119,-1.9591,-1.7573,-1.6589,0.0,0.0,0.0,0.0,0.0,-1.5369,0.0,0.0,0.0,0.0,0.0,0.0,0.0,0.0,0.0,0.0,0.0,0.0,-2.6133,-2.8406,-3.0043,-3.0455,-3.2662,-3.2604,-2.9202,-2.99,0.0,0.0,-2.6456,-2.6631,-2.6406,-2.9058,-3.3171,-3.8727,-4.1871,-4.4188,-4.5657,-4.5108,-4.4037,-4.242,-4.047,-3.6174,-3.0177,-2.7325,-2.5012,-2.3044,0.0,0.0,0.0,0.0,0.0,0.0,0.0,0.0,0.0,0.0,0.0,0.0,0.0,0.0,0.0,0.0,0.0,0.0,0.0,0.0,0.0,0.0,0.0,0.0,0.0,0.0,0.0,0.0,0.0,0.0,0.0,0.0,0.0,0.0,0.0,0.0,0.0,-2.1994,-2.2313,-1.9732,-2.1786,-2.2485,0.0,0.0,0.0,0.0,0.0,0.0,-2.7555,-2.8127,-2.9111,-3.0622,-3.1301,-3.2063,-3.2811,-3.4048,-3.4911,-3.542,-3.4796,-3.4854,-3.5531,-3.4096,-3.3219,-3.2795,-3.1436,-3.0102,-2.8495,-2.3092,-2.0557,-1.9935,-1.8255,-1.7603,0.0,-1.7946,-1.8221,-1.8548,0.0,0.0,0.0,0.0,0.0,0.0,0.0,0.0,0.0,0.0,0.0,-2.7218,-3.0163,-3.1187,-3.2652,-3.5141,-3.4449,-3.3416,-3.2249,-3.0656,-2.9029,-2.7475,-2.7712,-2.7655,-2.7169,-3.2217,-3.7434,-4.2599,-4.5334,-4.7613,-4.9446,-4.9422,-4.869,-4.734,-4.5344,-4.1221,-3.5452,-3.1267,-2.9387,-2.8877,-2.4545,0.0,0.0,0.0,0.0,0.0,0.0,0.0,0.0,0.0,0.0,0.0,0.0,0.0,0.0,0.0,0.0,0.0,0.0,0.0,0.0,0.0,0.0,0.0,0.0,0.0,0.0,0.0,0.0,0.0,0.0,0.0,0.0,0.0,0.0,0.0,0.0,0.0,0.0,-2.2267,-2.606,0.0,0.0,0.0,0.0,-2.7233,-2.9719,-3.1407,-3.178,-3.2229,-3.352,-3.5653,-3.5264,-3.5859,-3.7547,-3.7625,-3.7938,-3.8486,-3.7753,-3.7419,-3.7445,-3.615,-3.5203,-3.4593,-3.3564,-3.309,-3.2548,-2.6725,-2.4072,-2.3536,-2.2544,-2.2441,-2.2853,-2.2873,-2.2854,-2.2813,0.0,0.0,0.0,0.0,0.0,0.0,0.0,0.0,0.0,-2.7011,-2.8565,-3.0596,-3.3223,-3.6585,-3.9083,-4.0258,-4.205,-4.1674,-3.8171,-3.5902,-3.3652,-3.1217,-2.9387,-3.0056,-3.3478,-3.7839,-4.2258,-4.6769,-4.9613,-5.144,-5.2205,-5.2199,-5.1372,-4.9844,-4.8239,-4.5321,-4.1388,-3.6867,-3.3368,-3.0558,-2.7822,-2.5076,0.0,0.0,0.0,0.0,0.0,0.0,0.0,0.0,0.0,0.0,0.0,0.0,0.0,0.0,0.0,0.0,0.0,0.0,0.0,0.0,0.0,0.0,0.0,0.0,0.0,0.0,0.0,0.0,0.0,0.0,0.0,0.0,0.0,0.0,0.0,0.0,0.0,-2.8492,-3.1544,0.0,-2.9328,-3.0696,-3.1862,-3.2162,-3.3988,-3.5624,-3.6851,-3.7397,-3.8037,-3.8847,-3.9077,-3.9277,-3.952,-3.9913,-4.02,-4.0383,-3.9699,-3.9214,-3.8877,-3.7998,-3.7032,-3.6006,-3.5336,-3.4579,-3.3642,-3.1194,-2.9249,-2.773,-2.655,-2.5998,-2.5931,-2.6244,-2.6356,-2.6378,0.0,0.0,0.0,0.0,0.0,0.0,0.0,0.0,0.0,-2.8453,-3.0672,-3.3452,-3.6802,-4.1062,-4.4056,-4.4995,-4.6612,-4.5675,-4.1076,-3.7981,-3.5093,-3.2184,-3.1232,-3.3358,-3.8853,-4.2793,-4.68,-5.0859,-5.3421,-5.4883,-5.5213,-5.4805,-5.407,-5.3001,-5.0669,-4.8495,-4.6431,-4.2256,-3.786,-3.3405,-3.1177,-2.8892,-2.6375,0.0,0.0,0.0,0.0,0.0,0.0,0.0,0.0,0.0,0.0,0.0,0.0,0.0,0.0,0.0,0.0,0.0,0.0,0.0,0.0,0.0,0.0,0.0,0.0,0.0,0.0,0.0,0.0,0.0,0.0,0.0,0.0,0.0,0.0,0.0,-3.4208,-3.3296,-3.6032,-3.6954,-3.435,-3.5234,-3.6115,-3.6411,-3.7886,-3.9259,-4.0409,-4.101,-4.1298,-4.1298,-4.1507,-4.1402,-4.101,-4.1219,-4.1324,-4.1298,-4.0906,-4.0435,-3.986,-3.9468,-3.8584,-3.7365,-3.7073,-3.6328,-3.531,-3.4693,-3.3576,-3.2079,-2.9997,-2.8908,-2.8491,-2.873,-2.8826,-2.8872,0.0,0.0,0.0,0.0,0.0,0.0,0.0,0.0,-2.8334,-3.0253,-3.2317,-3.5609,-4.0846,-4.4407,-4.7189,-4.9179,-4.7549,-4.4715,-4.0783,-3.6546,-3.3003,-3.0252,-3.3372,-3.7545,-4.2664,-4.697,-5.0995,-5.4775,-5.6531,-5.7748,-5.8359,-5.7213,-5.6809,-5.6869,-5.2751,-5.0759,-5.0294,-4.7081,-4.2788,-3.79,-3.4751,-3.3027,-3.1848,0.0,0.0,0.0,0.0,0.0,0.0,0.0,0.0,0.0,0.0,0.0,0.0,0.0,0.0,0.0,0.0,0.0,0.0,0.0,0.0,0.0,0.0,0.0,0.0,0.0,0.0,0.0,0.0,0.0,0.0,0.0,0.0,0.0,-3.1235,-3.4633,-3.6959,-3.6384,-3.9364,-4.0331,-3.7482,-3.9233,-4.0305,-3.9782,-4.1272,-4.229,-4.229,-4.2762,-4.3075,-4.3049,-4.25,-4.2264,-4.2238,-4.1638,-4.135,-4.135,-4.1324,-4.101,-4.0409,-4.0409,-3.9808,-3.8736,-3.871,-3.8423,-3.7874,-3.7072,-3.6722,-3.6341,-3.2849,-3.1155,-3.0598,-3.0396,-3.0306,-3.0306,0.0,0.0,0.0,0.0,0.0,0.0,0.0,-2.788,-2.874,-3.0313,-3.3903,-3.7793,-4.1722,-4.5945,-4.8865,-4.9883,-4.9045,-4.6867,-4.3183,-3.8951,-3.5665,-3.3642,-3.7834,-4.2207,-4.6488,-5.0079,-5.3247,-5.5981,-5.7445,-5.8156,-5.8105,-5.7973,-5.8105,-5.8243,-5.5613,-5.355,-5.2033,-4.9801,-4.6781,-4.3127,-3.9394,-3.6415,-3.3907,0.0,0.0,0.0,0.0,0.0,0.0,0.0,0.0,0.0,0.0,0.0,0.0,0.0,0.0,0.0,0.0,0.0,0.0,0.0,0.0,0.0,0.0,0.0,0.0,0.0,0.0,0.0,0.0,0.0,0.0,0.0,0.0,-3.5887,-3.4842,-3.8187,-4.0827,-4.1089,-4.3075,-4.3781,-4.2134,-4.2552,-4.2866,-4.2709,-4.3127,-4.3572,-4.399,-4.4173,-4.4068,-4.365,-4.3493,-4.3206,-4.2788,-4.2213,-4.1925,-4.1925,-4.1507,-4.101,-4.0409,-4.0409,-4.0043,-3.9337,-3.8893,-3.8632,-3.8449,-3.7854,-3.7313,-3.6701,-3.4565,-3.3639,-3.3396,-3.2779,-3.2413,-3.2307,0.0,0.0,0.0,0.0,0.0,0.0,0.0,-2.7246,-2.8386,-3.0614,-3.4711,-3.8691,-4.2021,-4.6304,-4.8895,-4.9015,-4.7878,-4.5615,-4.1833,-3.8397,-3.6975,-3.815,-4.2149,-4.6184,-5.0231,-5.3567,-5.6145,-5.7902,-5.9154,-5.9869,-5.9988,-5.9387,-5.9497,-6.0244,-5.7161,-5.5296,-5.4333,-5.1987,-4.9651,-4.7256,-4.436,-4.1404,-3.8413,-3.5332,-3.3891,-3.3235,-3.0778,-3.0254,-3.0317,-2.7788,0.0,0.0,0.0,0.0,0.0,0.0,0.0,0.0,0.0,0.0,0.0,0.0,0.0,0.0,0.0,0.0,0.0,0.0,0.0,0.0,0.0,0.0,0.0,0.0,-3.6959,-3.9416,-3.9703,-4.1768,-4.3572,-4.4382,-4.5375,-4.5715,-4.5036,-4.5012,-4.4853,-4.4617,-4.4617,-4.4643,-4.4722,-4.4668,-4.4565,-4.4225,-4.399,-4.3702,-4.3389,-4.2814,-4.2396,-4.2211,-4.1821,-4.135,-4.0801,-4.0801,-4.0488,0.0,-3.9573,-3.9155,-3.8684,-3.837,-3.79,0.0,0.0,0.0,0.0,0.0,-3.3326,-3.3197,0.0,0.0,0.0,0.0,0.0,0.0,0.0,-2.6238,-2.7561,-3.0915,-3.4769,-3.8392,-4.1602,-4.5376,-4.7429,-4.701,-4.5083,-4.2357,-3.8631,-3.6671,-3.7887,-4.2904,-4.6137,-4.9659,-5.3666,-5.6861,-5.895,-5.9922,-6.1172,-6.2095,-6.2687,-6.1065,-6.0913,-6.1916,-5.8065,-5.6401,-5.6261,-5.3639,-5.161,-5.0002,-4.8938,-4.6717,-4.3572,-3.9965,-3.9007,-3.9125,-3.5384,-3.3927,-3.3588,-3.1691,0.0,0.0,0.0,0.0,0.0,0.0,0.0,0.0,0.0,0.0,0.0,0.0,0.0,0.0,0.0,0.0,0.0,0.0,0.0,0.0,0.0,0.0,0.0,0.0,-4.0331,-4.2631,-4.4774,-4.5166,-4.5558,-4.6369,-4.6525,-4.6552,-4.6499,-4.6473,-4.6238,-4.5663,-4.5581,-4.5375,-4.4694,0.0,0.0,0.0,0.0,-4.3964,-4.3964,-4.3415,-4.2866,-4.2395,-4.229,-4.1899,-4.1402,-4.135,-4.1036,-4.0514,-4.0435,-3.9834,-3.8893,-3.8762,-3.8397,-3.7802,-3.702,-3.5997,-3.4779,-3.3879,-3.3504,0.0,0.0,0.0,0.0,0.0,0.0,0.0,0.0,-2.6017,-2.71,-3.0119,-3.3631,-3.6716,-3.8931,-4.1811,-4.3868,-4.4796,-4.2783,-4.0604,-3.8543,-3.9258,-4.1371,-4.506,-4.9284,-5.2928,-5.5932,-5.784,-5.9453,-6.0776,-6.1263,-6.1722,-6.2153,-6.1988,-6.1303,-6.0137,-5.9742,-5.7615,-5.428,-5.4683,-5.295,-4.995,-5.0274,-4.8004,-4.4434,-4.318,-4.2265,-4.1326,-3.9159,-3.9216,-3.9793,-3.5889,-3.5045,-3.5063,-3.1709,0.0,0.0,0.0,0.0,0.0,0.0,0.0,0.0,0.0,0.0,0.0,0.0,0.0,0.0,0.0,0.0,0.0,0.0,0.0,0.0,-4.0148,-4.3363,-4.5794,-4.6708,-4.7649,-4.7806,-4.663,-4.6891,-4.6996,-4.6525,-4.6473,-4.6238,-4.5663,-4.5581,-4.5375,-4.4694,-4.4668,0.0,-4.4668,-4.4617,-4.4565,-4.4565,-4.399,-4.365,-4.3572,0.0,0.0,-4.1977,-4.1533,-4.1246,-4.1115,-4.0618,-4.0278,-4.0017,-3.9076,-3.8397,-3.7848,-3.7201,-3.6129,-3.4874,-3.4659,-3.4093,-3.3386,0.0,0.0,0.0,0.0,0.0,0.0,0.0,-2.4569,-2.559,-2.8632,-3.1575,-3.4286,-3.6716,-3.8422,-3.9679,-4.0337,-3.8549,-3.7765,-3.8627,-4.0731,-4.3961,-4.8521,-5.206,-5.4959,-5.7283,-5.8563,-5.9849,-6.1226,-6.1668,-6.2188,-6.2695,-6.2695,-6.1931,-6.0562,-6.0521,-5.8614,-5.5385,-5.5565,-5.3932,-5.1256,-5.0922,-4.9436,-4.7231,-4.6342,-4.5506,-4.4539,-4.2814,-4.2918,-4.331,-3.9693,-3.8912,-3.8912,-3.5849,-3.3488,-3.1345,0.0,0.0,0.0,0.0,0.0,0.0,0.0,0.0,0.0,0.0,0.0,0.0,0.0,0.0,-3.3584,0.0,0.0,-4.0775,-4.3101,-4.5401,-4.71,-4.7675,-4.8277,-4.8303,-4.744,-4.7597,-4.7649,-4.7362,-4.7336,-4.697,-4.6107,-4.6055,-4.5663,-4.4774,-4.4668,-4.4668,-4.4668,-4.4668,-4.4668,-4.4668,-4.4434,-4.4147,-4.3912,-4.3337,-4.2761,-4.2211,-4.1873,-4.1585,-4.1298,-4.101,-4.054,-3.9913,-3.8789,-3.8135,-3.7874,-3.756,-3.659,-3.5305,-3.4916,-3.4195,-3.3386,0.0,0.0,0.0,0.0,0.0,0.0,0.0,0.0,0.0,-2.6912,-2.9049,-3.125,-3.3748,-3.4765,-3.5305,-3.5356,-3.4863,-3.5828,-3.8663,-4.1912,-4.6122,-5.1479,-5.4171,-5.6363,-5.8083,-5.9032,-6.0129,-6.1332,-6.1852,-6.2493,-6.308,-6.2582,-6.1717,-6.0581,-5.9989,-5.839,-5.6108,-5.5704,-5.4315,-5.2299,-5.1459,-5.0664,-4.9766,-4.8734,-4.8027,-4.7283,-4.5558,-4.4931,-4.4591,-4.2265,-4.1402,-4.0984,-3.9155,-3.7326,-3.5305,-3.2304,-3.1009,0.0,0.0,0.0,0.0,0.0,0.0,0.0,0.0,0.0,-3.2458,-3.3781,-3.5757,-3.79,-3.9913,-4.2134,-4.4225,-4.5872,-4.7179,-4.8094,-4.8329,-4.846,-4.8381,-4.8068,-4.812,-4.8172,-4.8172,-4.8068,-4.7597,-4.6552,-4.6369,-4.5846,-4.4774,-4.4668,-4.4668,-4.4668,-4.4668,-4.4668,-4.4668,-4.4668,-4.4487,-4.4042,-4.3807,-4.3232,-4.2317,-4.2108,-4.1742,-4.1324,-4.1324,-4.0723,-3.9677,-3.8658,-3.8161,-3.8057,-3.7906,-3.702,-3.583,-3.5087,-3.4305,-3.3606,0.0,0.0,0.0,0.0,0.0,0.0,0.0,0.0,0.0,-2.526,-2.6546,-2.7598,-2.864,-3.004,-3.0984,-3.1243,-3.4574,-3.7175,-3.8384,-4.3682,-4.8372,-5.1995,-5.5179,-5.7401,-5.8527,-5.9168,-6.0022,-6.1065,-6.1126,-6.1467,-6.2166,-6.0711,-5.9102,-5.7308,-5.6988,-5.5114,-5.2289,-5.3932,-5.3483,-5.175,-5.2225,-5.1423,-4.9827,-4.9202,-4.8611,-4.7858,-4.6133,-4.4251,-4.2552,-4.2238,-4.1742,-4.1272,-4.101,-4.0386,-3.9029,-3.5113,-3.2854,-3.0887,-2.7568,-2.6817,-2.768,-3.0637,-3.1381,-3.2501,0.0,0.0,-3.7984,-3.8684,-4.0252,-4.1716,-4.25,-4.4539,-4.6499,-4.7702,-4.9322,-5.008,-4.9113,-4.9401,-4.9139,-4.7597,-4.7885,-4.8172,-4.8172,-4.7728,-4.7153,-4.6525,-4.6003,-4.5428,-4.4774,-4.4668,-4.4668,-4.4668,-4.4668,-4.4668,-4.4668,-4.4668,-4.4696,-4.4617,-4.3598,-4.3049,-4.2892,-4.1873,-4.1376,-4.1324,-4.1324,-4.0932,-4.0278,-3.9677,-3.9102,-3.8533,-3.7852,-3.7025,-3.6199,-3.5786,-3.5156,-3.4356,0.0,0.0,0.0,0.0,0.0,0.0,0.0,0.0,0.0,0.0,0.0,-2.5299,-2.6268,-2.7267,-2.7677,-2.7145,-3.1263,-3.4932,-3.7492,-4.2989,-4.7938,-5.2007,-5.464,-5.6517,-5.7671,-5.8361,-5.9362,-6.0741,-6.0772,-6.1104,-6.1684,-6.0309,-5.8957,-5.7599,-5.6783,-5.4828,-5.2238,-5.3435,-5.2648,-5.0638,-5.0948,-5.0379,-4.9277,-4.7674,-4.6278,-4.5009,-4.3624,-4.25,0.0,0.0,-4.0174,-4.0801,-4.0801,-3.9939,-3.8423,-3.5704,-3.3692,-3.194,-3.0163,-2.9928,-3.0764,-3.3247,-3.48,-3.6515,-3.9102,-4.0226,-4.0984,-4.1899,-4.3206,-4.446,-4.5375,-4.6891,-4.8146,0.0,-4.9584,-5.0002,-4.9191,-4.8982,-4.8381,-4.6996,-4.7048,-4.7179,-4.7179,-4.7283,-4.6913,-4.6055,-4.6081,-4.5715,-4.4774,-4.4668,-4.4668,-4.4668,-4.4668,-4.4668,-4.4668,-4.4668,-4.4668,-4.4668,-4.4251,-4.3833,-4.3493,-4.2683,-4.1951,-4.1298,-4.0958,-4.0644,-4.0357,-3.9442,-3.8945,-3.8658,-3.797,-3.7422,-3.6928,-3.6154,-3.5321,-3.4616,0.0,0.0,0.0,0.0,0.0,0.0,0.0,0.0,0.0,0.0,0.0,0.0,0.0,-2.4944,-2.4955,-2.4386,-2.8111,-3.2006,-3.5542,-4.1106,-4.6122,-5.0391,-5.3174,-5.5149,-5.6286,-5.7154,-5.8248,-5.9573,-5.9603,-5.9735,-5.9882,-5.8598,-5.7455,-5.648,-5.5172,-5.3686,-5.2131,-5.2373,-5.1516,-4.9845,-4.9554,-4.8924,-4.7858,-4.554,-4.3363,-4.1507,-4.0671,-3.9756,0.0,0.0,-3.7475,-3.8417,-3.8888,-3.8417,-3.7363,-3.5293,-3.3288,-3.1757,-3.1771,-3.2489,-3.3744,-3.6123,-3.8318,-4.0252,-4.1559,-4.2762,-4.3781,-4.446,-4.5401,-4.6316,-4.697,-4.8041,-4.8878,-4.9061,-4.9531,-4.9688,-4.9165,-4.8564,-4.7571,-4.595,-4.5767,-4.5689,-4.5532,-4.6342,-4.6469,-4.5634,-4.5846,-4.5611,-4.4774,-4.4668,-4.4668,-4.4668,-4.4668,-4.4668,-4.4668,-4.4668,-4.4668,-4.4668,-4.4565,-4.4199,-4.3624,-4.2892,-4.2108,-4.1298,-4.0853,-4.0671,-4.0592,-3.9599,-3.9102,-3.8893,-3.8298,-3.7846,-3.7407,-3.6463,-3.5679,-3.5017,0.0,0.0,0.0,0.0,0.0,0.0,0.0,0.0,0.0,0.0,0.0,0.0,0.0,0.0,-2.2834,-2.3666,-2.6134,-2.9011,-3.2208,-3.8201,-4.3064,-4.6339,-5.084,-5.3563,-5.4281,-5.5568,-5.6555,-5.7184,-5.7184,-5.6786,-5.5928,-5.4398,-5.3216,-5.2328,-5.0764,-5.0385,-5.0821,-5.0245,-4.9984,-4.9801,-4.8678,-4.7215,-4.5483,-4.3165,-4.0547,-3.8057,-3.8031,0.0,0.0,0.0,-3.3499,-3.3528,-3.5147,-3.6437,0.0,-3.3883,-3.1333,0.0,0.0,0.0,-3.5286,-3.9259,-4.1585,-4.3337,-4.5033,-4.6369,-4.7022,-4.6499,-4.6865,-4.7127,-4.6604,-4.744,-4.8407,-4.8982,-4.9531,-4.9688,-4.9165,-4.8564,-4.7127,-4.4331,-4.4017,-4.3729,0.0,-4.467,-4.5663,-4.5581,-4.5088,-4.4774,-4.4668,-4.4668,-4.4668,-4.4668,-4.4668,-4.4668,-4.4668,-4.4668,-4.4668,-4.4668,-4.4173,-4.3598,-4.2997,-4.1873,-4.135,-4.1324,-4.1298,-4.1298,-4.1246,-4.0618,-4.0043,-3.9473,-3.8709,-3.8044,-3.7413,-3.6896,-3.6328,-3.575,0.0,0.0,0.0,0.0,0.0,0.0,0.0,0.0,0.0,0.0,0.0,0.0,0.0,0.0,0.0,0.0,-2.4696,-2.7283,-2.9697,-3.4884,-3.918,-4.198,-4.6296,-4.9344,-5.09,-5.2217,-5.3414,-5.4491,-5.4491,-5.401,-5.3033,-5.1697,-5.0515,-4.9581,-4.8625,-4.8094,-4.7937,-4.812,-4.7754,-4.6944,-4.5805,-4.457,-4.3023,-3.9917,-3.7216,-3.4737,0.0,0.0,0.0,0.0,0.0,0.0,-3.1796,0.0,0.0,-2.9774,0.0,0.0,0.0,0.0,-3.8135,-4.1794,-4.3729,-4.5192,-4.6917,-4.7336,-4.7226,-4.7074,-4.5976,-4.5088,-4.5271,-4.5637,-4.6212,-4.7205,-4.8773,-4.9688,-4.9165,-4.8904,-4.7702,-4.4826,-4.4514,0.0,0.0,0.0,0.0,-4.5009,-4.5558,-4.5558,-4.472,-4.5114,-4.5085,-4.4694,-4.4668,-4.4668,-4.4668,-4.4668,-4.4668,-4.4668,-4.4539,-4.3938,-4.3023,-4.2631,-4.203,-4.1324,-4.1324,-4.1324,-4.1272,-4.0671,-4.0305,-4.0095,-3.9425,-3.8756,-3.8101,-3.8082,-3.7384,-3.6265,0.0,0.0,0.0,0.0,0.0,0.0,0.0,0.0,0.0,0.0,0.0,0.0,0.0,0.0,0.0,0.0,0.0,-2.497,-2.697,-3.0977,-3.4393,-3.684,-4.0415,-4.3119,-4.4727,-4.6152,-4.7507,-4.882,-4.9131,-4.8857,-4.8019,-4.7518,-4.6657,-4.5497,-4.5581,-4.5465,-4.5218,-4.5146,-4.4781,-4.4124,-4.195,-4.0507,-3.9239,-3.5826,-3.3247,0.0,0.0,0.0,0.0,0.0,0.0,0.0,0.0,0.0,0.0,0.0,0.0,0.0,0.0,-3.8684,-4.1324,-4.4591,-4.5976,-4.6787,-4.7675,-4.744,-4.6865,-4.6212,-4.4434,-4.2944,-4.2918,-4.2735,-4.3101,-4.467,-4.6159,-4.7362,-4.8068,-4.7806,-4.6787,-4.4696,-4.4514,-4.3938,0.0,0.0,0.0,-4.4382,-4.5506,-4.5846,-4.5033,-4.5373,-4.5399,-4.5007,-4.4826,-4.4668,-4.4668,-4.4668,-4.4668,-4.4668,-4.4513,-4.3938,-4.3023,-4.2814,-4.2213,-4.1324,-4.1324,-4.1324,-4.1298,-4.0906,-4.0618,-4.0334,-3.9677,-3.8991,-3.8287,-3.7888,-3.7046,-3.601,0.0,0.0,0.0,0.0,0.0,0.0,0.0,0.0,0.0,0.0,0.0,0.0,0.0,0.0,0.0,0.0,0.0,0.0,-2.4066,-2.657,-2.894,-3.0964,-3.3636,-3.5461,-3.6377,-3.7919,-3.9365,-4.0677,-4.1469,-4.1558,-4.1106,-4.197,-4.1509,-4.0039,-4.1443,-4.2225,-4.2343,-4.1138,-4.0935,-4.1051,-3.725,-3.5342,-3.4391,-3.1164,0.0,0.0,0.0,0.0,0.0,0.0,0.0,0.0,0.0,0.0,0.0,0.0,0.0,-3.573,-4.0252,-4.2735,-4.4722,-4.7571,-4.8198,-4.7989,-4.7466,-4.6787,-4.582,-4.4095,-4.2291,-4.0697,0.0,0.0,-3.939,-4.1793,-4.2316,-4.3415,-4.6133,-4.5637,-4.4748,0.0,0.0,0.0,0.0,0.0,0.0,-4.4017,0.0,-4.5663,-4.5663,-4.5663,-4.5663,-4.5581,-4.4981,-4.4668,-4.4668,-4.4668,-4.4668,-4.4668,-4.4173,-4.3624,-4.3049,-4.25,-4.1925,-4.135,-4.135,-4.135,-4.1324,-4.1324,-4.0934,-4.0314,-3.9546,-3.8866,-3.8064,-3.6512,-3.5521,-3.5146,0.0,0.0,0.0,0.0,0.0,0.0,0.0,0.0,0.0,0.0,0.0,0.0,0.0,0.0,0.0,0.0,0.0,0.0,-2.1215,-2.398,-2.5855,-2.6384,-2.9565,-3.1703,-3.2432,-3.4097,-3.5346,-3.6067,-3.6628,-3.649,-3.568,-3.6025,-3.5447,-3.4155,-3.4899,-3.5068,-3.4785,-3.4339,-3.4234,-3.4181,0.0,-3.1179,-3.106,0.0,0.0,0.0,0.0,0.0,0.0,0.0,0.0,0.0,0.0,-3.0408,-3.2318,0.0,0.0,-4.0174,-4.3075,-4.514,-4.6944,-4.8956,-4.8486,-4.7519,-4.7304,-4.5558,-4.3546,-4.2239,-3.9233,-3.7011,0.0,0.0,0.0,-4.1089,-4.3702,0.0,-4.6944,-4.7623,0.0,-4.6578,0.0,-4.5584,-4.5009,-4.5088,0.0,0.0,-4.5846,-4.6264,-4.6264,-4.6264,-4.6055,-4.5637,-4.4981,-4.4668,-4.4668,-4.4668,-4.4668,-4.4668,-4.4591,-4.4199,-4.365,-4.3546,-4.2944,-4.1951,-4.1951,-4.1716,-4.1324,-4.1324,-4.0869,-4.0159,-3.9956,-3.9094,-3.7935,-3.7292,-3.6212,-3.497,0.0,0.0,0.0,0.0,0.0,0.0,0.0,0.0,0.0,0.0,0.0,0.0,0.0,0.0,0.0,0.0,0.0,0.0,0.0,-2.1017,-2.2173,-2.2546,-2.4554,-2.6022,-2.675,-2.8139,-2.9231,-2.9953,-3.0438,-3.0747,-3.0932,-3.1247,-3.1037,-3.0456,-3.1368,-3.1543,-3.1101,-3.0487,0.0,0.0,0.0,0.0,0.0,0.0,0.0,0.0,0.0,-2.5014,-2.6269,-2.7406,-2.9031,-3.0734,-3.1727,-3.3604,-3.5817,-3.7763,0.0,-4.3363,-4.595,-4.7362,-4.8329,-4.9296,-4.8224,-4.663,-4.5349,-4.3232,-4.0984,-3.9076,-3.607,0.0,-3.4591,-3.4946,0.0,0.0,0.0,0.0,-4.6316,-4.7362,-4.7885,0.0,-4.7414,0.0,-4.6365,-4.6369,-4.6369,0.0,-4.6682,-4.6865,-4.6865,-4.6604,-4.6316,-4.6003,-4.5166,-4.4668,-4.4668,-4.4668,-4.4668,-4.4668,-4.4668,-4.4434,-4.3912,-4.3912,-4.3311,-4.2211,0.0,-4.1847,-4.1324,-4.1324,-4.0846,-4.0032,-3.9364,-3.8362,-3.7202,-3.6171,-3.4956,-3.3682,0.0,0.0,0.0,0.0,0.0,0.0,0.0,0.0,0.0,0.0,0.0,0.0,0.0,0.0,0.0,0.0,0.0,0.0,0.0,0.0,0.0,-1.9606,-1.9925,-2.0454,-2.118,-2.2092,-2.3017,-2.3872,-2.4338,-2.5298,-2.6682,-2.7178,-2.7423,-2.7564,0.0,0.0,0.0,0.0,0.0,0.0,0.0,0.0,0.0,0.0,0.0,0.0,-2.3469,-2.5192,-2.7665,-2.9761,-3.1601,-3.3378,-3.526,-3.7377,-3.9625,-4.2081,-4.3912,-4.5794,-4.8564,-4.9244,-4.9165,-4.9113,-4.7649,-4.5506,-4.2735,-4.0488,-3.824,-3.5417,0.0,-3.138,-3.1562,-3.2202,-3.3692,-3.6724,0.0,-4.1847,-4.5271,-4.629,-4.71,-4.8172,-4.8355,-4.8224,-4.7728,-4.7597,-4.7571,-4.7571,-4.7435,-4.744,-4.744,-4.6891,-4.6525,-4.6369,-4.5297,-4.4668,-4.4668,-4.4668,-4.4668,-4.4668,-4.4668,-4.446,-4.399,-4.399,-4.3336,-4.2215,0.0,0.0,-4.1076,-4.1149,-4.0593,-3.9647,-3.8271,-3.721,-3.6185,-3.4323,-3.3061,-3.2187,0.0,0.0,0.0,0.0,0.0,0.0,0.0,0.0,0.0,0.0,-1.5177,-1.5054,0.0,0.0,0.0,0.0,0.0,0.0,0.0,0.0,0.0,0.0,-1.9287,-1.9718,-2.0064,0.0,0.0,0.0,0.0,0.0,-2.2856,-2.3071,-2.3044,0.0,0.0,0.0,0.0,0.0,0.0,0.0,0.0,0.0,0.0,0.0,0.0,0.0,-2.501,-2.5886,-2.7174,-3.0988,-3.3404,-3.5312,-3.8004,-4.0095,-4.2108,-4.4905,-4.6604,-4.8015,-4.9949,-5.0132,-4.9636,-4.9191,-4.7048,-4.4434,-4.2004,-3.8658,0.0,0.0,-3.0581,-2.9274,-3.0205,-3.1679,-3.3953,-3.7795,-4.0357,-4.2918,-4.5898,-4.7231,-4.8146,0.0,-4.9322,-4.9557,0.0,0.0,0.0,0.0,0.0,0.0,-4.8041,-4.7492,-4.6761,-4.582,-4.5088,-4.4668,-4.4668,-4.4668,-4.4668,-4.4668,-4.4668,-4.467,-4.4591,-4.4591,-4.3823,-4.2483,0.0,0.0,-3.9957,-4.0209,-3.9389,-3.7873,-3.7103,-3.6317,-3.5411,-3.4121,-3.3274,-3.2632,0.0,0.0,0.0,0.0,0.0,0.0,0.0,-1.5042,-1.5191,-1.5873,-1.5917,-1.5714,-1.5314,-1.5357,0.0,0.0,0.0,0.0,0.0,0.0,0.0,0.0,0.0,0.0,0.0,0.0,0.0,0.0,0.0,0.0,0.0,0.0,0.0,0.0,0.0,0.0,0.0,0.0,0.0,0.0,0.0,0.0,0.0,0.0,0.0,0.0,0.0,-2.5039,-2.6564,-2.9555,-3.228,-3.5234,-3.9913,-4.2369,-4.4069,-4.6604,-4.7963,-4.8956,-5.0394,-5.0342,-4.9688,-4.8826,-4.6212,-4.2944,-3.9416,0.0,0.0,0.0,-2.8255,-2.7758,-2.8586,-3.0424,-3.2725,-3.5574,-3.7978,-4.0592,-4.3781,-4.548,-4.6944,-4.8433,-4.9374,-4.9793,0.0,0.0,0.0,0.0,0.0,0.0,-4.8172,-4.7649,-4.66,-4.5218,-4.5192,-4.5036,-4.4668,-4.4668,-4.4668,-4.4668,-4.4668,-4.4668,-4.4668,-4.4232,-4.346,-4.2493,0.0,0.0,-3.9603,-3.9457,-3.8687,-3.7447,-3.6834,-3.5936,-3.4825,-3.3952,-3.2944,-3.2036,0.0,0.0,0.0,0.0,0.0,0.0,0.0,-1.508,-1.5173,-1.6052,-1.619,-1.6052,-1.5653,-1.5473,-1.5314,0.0,0.0,0.0,0.0,0.0,0.0,0.0,0.0,0.0,0.0,0.0,0.0,0.0,0.0,0.0,0.0,0.0,0.0,0.0,0.0,0.0,0.0,0.0,0.0,0.0,0.0,0.0,0.0,0.0,0.0,0.0,0.0,-2.409,-2.5621,-2.7807,-3.0404,-3.368,-3.9233,-4.2396,-4.446,-4.6686,-4.7916,-4.8799,-5.008,-5.008,-4.9453,-4.8303,-4.5401,-4.1664,-3.7142,-3.3651,0.0,-2.7183,-2.6431,-2.6562,-2.721,-2.9039,-3.113,-3.3247,-3.5312,-3.7926,-4.1688,-4.365,-4.5558,0.0,-4.9113,0.0,0.0,0.0,0.0,0.0,0.0,0.0,-4.8172,-4.7649,-4.6656,-4.514,-4.5454,-4.5294,-4.4694,-4.4505,-4.4396,-4.4396,-4.4232,-4.4097,-4.4097,-4.3436,-4.274,-4.2068,0.0,0.0,0.0,-3.8693,-3.8003,-3.7203,-3.6588,-3.5608,-3.4435,-3.384,-3.2777,-3.165,0.0,0.0,0.0,0.0,0.0,0.0,0.0,-1.4765,-1.5047,-1.5437,-1.5467,-1.5359,-1.5034,-1.534,-1.5197,0.0,0.0,0.0,0.0,0.0,0.0,0.0,0.0,0.0,0.0,0.0,0.0,0.0,0.0,0.0,0.0,0.0,0.0,0.0,0.0,0.0,0.0,0.0,0.0,0.0,0.0,0.0,0.0,0.0,0.0,0.0,0.0,0.0,-2.4106,-2.7345,-2.9066,-3.0398,-3.3471,-3.7769,-4.1977,-4.3993,0.0,0.0,-4.8773,-4.9191,-4.8878,-4.7702,-4.48,-4.1167,-3.7037,0.0,-2.9422,-2.6472,-2.5484,-2.5489,-2.6588,-2.7818,-2.9755,-3.3064,-3.4633,-3.7037,-4.1583,-4.3729,-4.5428,-4.7205,0.0,0.0,0.0,0.0,0.0,0.0,0.0,0.0,0.0,-4.7649,-4.7022,-4.6342,-4.5872,-4.5294,-4.4694,-4.3878,-4.3517,-4.3517,-4.2656,-4.2238,-4.2238,-4.2182,-4.1647,-4.0832,0.0,0.0,0.0,-3.7713,-3.715,-3.6363,-3.5763,-3.508,-3.4435,-3.384,-3.3176,-3.254,0.0,0.0,0.0,0.0,0.0,0.0,-1.444,-1.4453,-1.4578,-1.5268,-1.505,-1.4798,-1.4668,-1.4317,-1.4176,0.0,0.0,0.0,0.0,0.0,0.0,0.0,0.0,0.0,0.0,0.0,0.0,0.0,0.0,0.0,0.0,0.0,0.0,0.0,0.0,0.0,0.0,0.0,0.0,0.0,0.0,0.0,0.0,0.0,0.0,0.0,0.0,0.0,0.0,0.0,-2.6837,-2.8462,-2.9556,-3.2014,-3.5469,0.0,-4.2578,-4.4487,-4.7283,-4.8041,-4.7911,-4.7383,-4.4199,-4.0043,-3.5992,0.0,-2.8699,-2.5458,-2.4883,-2.5358,-2.651,-2.7085,-2.8255,-3.1052,-3.1601,-3.3169,-3.7429,-3.9547,-4.1794,-4.4879,-4.7074,0.0,0.0,0.0,0.0,0.0,0.0,0.0,0.0,-4.7963,-4.7414,-4.6499,-4.5731,-4.5037,-4.4472,-4.3224,-4.2544,-4.2544,-4.2182,-4.2012,-4.1955,-4.1468,-4.1009,-4.0616,0.0,0.0,0.0,-3.7052,-3.658,-3.6223,-3.5653,-3.5046,-3.4435,-3.384,-3.305,-3.2235,0.0,0.0,0.0,0.0,0.0,-1.3308,-1.4089,-1.3963,-1.3982,-1.462,-1.4289,-1.396,-1.3957,-1.3188,-1.3061,-1.3948,0.0,0.0,0.0,0.0,0.0,0.0,0.0,0.0,0.0,0.0,0.0,0.0,0.0,0.0,0.0,0.0,0.0,0.0,0.0,0.0,0.0,0.0,0.0,0.0,0.0,0.0,0.0,0.0,0.0,0.0,0.0,0.0,0.0,0.0,0.0,-2.6011,-2.5722,-2.6868,-2.9526,-3.5817,-3.9249,-4.1611,-4.4905,-4.6316,-4.673,-4.6547,-4.3101,-3.873,0.0,0.0,-2.7728,-2.4602,-2.451,-2.528,-2.6274,-2.6687,-2.7523,-2.9327,-2.9849,-3.1171,-3.4386,-3.6493,-3.8891,0.0,0.0,0.0,0.0,0.0,0.0,0.0,0.0,0.0,0.0,-4.7782,-4.734,-4.6761,-4.5674,-4.4859,-4.4325,-4.2535,-4.1639,-4.1639,-4.1329,-4.1215,-4.1182,-4.0571,-4.0281,0.0,0.0,0.0,0.0,-3.6691,-3.62,-3.5982,-3.5543,-3.4936,-3.4155,-3.3727,-3.3029,-3.2173,0.0,0.0,0.0,0.0,0.0,0.0,0.0,-1.326,-1.325,-1.3313,-1.3031,-1.2761,-1.2612,-1.2085,-1.1906,-1.2391,0.0,0.0,0.0,0.0,0.0,0.0,0.0,0.0,0.0,0.0,-1.667,-1.7191,-1.7484,0.0,0.0,0.0,0.0,0.0,0.0,0.0,0.0,0.0,0.0,0.0,0.0,0.0,0.0,0.0,0.0,0.0,0.0,0.0,0.0,0.0,0.0,0.0,0.0,-2.2674,-2.5183,-3.1426,-3.5463,-3.8579,-4.1479,-4.3885,-4.5451,-4.485,-4.1438,-3.7341,0.0,-2.9968,-2.6378,-2.409,-2.4361,-2.5175,-2.572,-2.6733,-2.7673,-2.8307,-3.032,-3.2214,-3.3537,-3.5718,-3.7702,0.0,0.0,0.0,0.0,0.0,0.0,0.0,0.0,0.0,0.0,-4.6836,-4.6385,-4.7252,-4.5879,-4.4859,-4.4325,-4.1931,-4.0745,-4.0687,-3.9755,-3.9308,-3.9308,-3.9308,0.0,0.0,0.0,0.0,0.0,-3.6691,-3.5927,-3.5433,-3.5378,-3.4658,-3.3636,-3.3636,-3.3239,-3.2664,0.0,0.0,0.0,0.0,0.0,0.0,0.0,-1.2455,-1.2407,-1.2652,-1.1996,-1.1874,-1.2895,-1.1507,-1.1034,-1.2483,0.0,0.0,0.0,0.0,0.0,0.0,0.0,0.0,0.0,0.0,-1.7572,-1.7738,-1.835,-1.8569,-1.8406,0.0,0.0,0.0,0.0,0.0,0.0,0.0,0.0,0.0,0.0,0.0,0.0,0.0,0.0,0.0,0.0,0.0,0.0,0.0,0.0,0.0,0.0,0.0,0.0,-2.5722,-2.9715,0.0,-3.6201,-3.7554,-3.8173,-3.7992,-3.555,-3.2612,-3.033,-2.8068,-2.589,-2.3983,-2.402,-2.4674,-2.561,-2.6425,-2.7654,-2.9859,-3.1444,-3.2722,0.0,0.0,0.0,0.0,0.0,0.0,0.0,0.0,0.0,0.0,0.0,0.0,0.0,0.0,-4.6152,-4.6385,-4.3937,-4.2555,-4.2409,-4.0657,-3.9755,-3.9755,-3.9426,-3.9308,-3.9308,-3.9308,0.0,0.0,0.0,0.0,0.0,-3.6304,-3.5543,-3.5323,-3.4513,-3.3952,-3.3579,-3.3126,-3.2841,-3.2649,0.0,0.0,0.0,0.0,0.0,0.0,0.0,-1.1911,-1.1833,-1.2109,-1.1343,-1.1184,-1.2379,-1.1044,-1.0498,-1.1611,0.0,0.0,0.0,0.0,0.0,0.0,0.0,0.0,0.0,-1.6521,-1.7252,-1.8104,-1.8336,-1.851,-1.8603,-1.8552,-1.8492,0.0,0.0,0.0,0.0,0.0,0.0,0.0,0.0,0.0,-1.8999,0.0,0.0,0.0,0.0,0.0,0.0,0.0,0.0,0.0,0.0,0.0,0.0,0.0,-2.548,-2.898,-3.1668,-3.3411,-3.4384,-3.405,-3.1996,0.0,0.0,-2.6442,-2.4792,-2.3523,-2.3688,-2.4288,-2.4983,-2.5942,-2.7129,-2.8702,-3.0788,0.0,0.0,0.0,0.0,0.0,0.0,0.0,0.0,0.0,0.0,0.0,0.0,0.0,0.0,0.0,-4.4491,-4.4293,-4.249,-4.1507,-4.1507,-4.0011,-3.9308,-3.9308,-3.9124,-3.9033,-3.9033,0.0,0.0,0.0,0.0,0.0,0.0,-3.5992,-3.5268,-3.4991,-3.4009,-3.3466,-3.3239,-3.2841,-3.2566,-3.2401,0.0,0.0,0.0,0.0,0.0,0.0,0.0,0.0,-1.1569,-1.1694,-1.1036,-1.0762,-1.1338,-1.0779,-1.0306,-1.02,0.0,0.0,0.0,0.0,0.0,0.0,0.0,0.0,0.0,-1.5312,-1.6186,-1.8352,-1.7874,-1.807,-1.896,-1.8384,-1.8134,-1.8176,-1.7702,-1.827,0.0,0.0,0.0,0.0,0.0,0.0,0.0,0.0,0.0,0.0,0.0,0.0,0.0,0.0,0.0,0.0,0.0,0.0,0.0,0.0,0.0,0.0,0.0,-3.0828,-3.2947,-3.2123,-2.9991,-2.7854,-2.6887,-2.492,0.0,-2.2788,-2.3368,-2.396,-2.4035,-2.535,-2.6307,-2.5921,0.0,0.0,0.0,-3.4703,0.0,0.0,0.0,0.0,0.0,0.0,0.0,0.0,0.0,0.0,0.0,0.0,0.0,-4.1413,-4.1365,-4.1342,-4.1342,-3.9965,-3.9262,-3.9239,-3.8757,-3.8527,-3.8527,0.0,0.0,0.0,0.0,0.0,0.0,-3.5801,-3.4991,-3.4379,-3.3784,-3.3182,-3.2727,-3.2628,-3.2359,-3.1926,0.0,0.0,0.0,0.0,0.0,0.0,0.0,0.0,0.0,0.0,-1.1477,-1.1428,-1.2291,-1.1499,-1.0948,0.0,0.0,0.0,0.0,0.0,0.0,0.0,0.0,0.0,0.0,-1.6742,-1.7711,-1.8913,-1.9443,-1.9725,-1.9803,-2.0075,-1.9803,-1.9077,-1.8725,-1.8709,-1.8976,0.0,0.0,0.0,0.0,0.0,0.0,0.0,0.0,0.0,-2.0374,-2.0783,0.0,0.0,0.0,0.0,0.0,0.0,0.0,0.0,-2.1913,0.0,-2.3186,0.0,-2.5802,-2.5203,-2.4353,-2.3652,0.0,-2.3074,-2.2837,-2.2714,-2.3039,-2.3547,-2.4399,-2.5234,-2.6348,-2.7943,0.0,0.0,-3.2634,0.0,0.0,0.0,0.0,0.0,0.0,0.0,0.0,0.0,0.0,0.0,0.0,0.0,0.0,-4.0462,-4.0032,-3.9823,-3.9823,-3.9104,-3.8757,-3.8757,-3.8229,-3.7976,-3.7976,0.0,0.0,0.0,0.0,0.0,0.0,-3.5135,-3.4379,-3.3727,-3.3126,-3.2841,-3.2685,-3.2277,-3.207,-3.1926,0.0,0.0,0.0,0.0,0.0,0.0,0.0,0.0,0.0,0.0,0.0,0.0,0.0,0.0,0.0,0.0,0.0,0.0,0.0,0.0,0.0,0.0,0.0,0.0,-1.6302,-1.686,-1.797,-1.9703,-1.9936,-2.0373,-2.091,-2.086,-2.0268,-1.9298,-1.864,-1.8585,-1.8979,-1.8774,-1.9125,0.0,0.0,0.0,0.0,0.0,0.0,0.0,-2.0672,-2.0952,0.0,-2.073,-2.0735,-2.0947,0.0,0.0,0.0,0.0,-2.1868,-2.2378,-2.1898,-2.2792,-2.3698,-2.3025,-2.2715,-2.2558,-2.2558,-2.2522,-2.2475,-2.2475,-2.2769,-2.3237,-2.3828,-2.4567,-2.5719,0.0,-3.0438,0.0,0.0,0.0,0.0,0.0,0.0,0.0,0.0,0.0,0.0,0.0,0.0,0.0,0.0,0.0,0.0,0.0,-3.9446,-3.9193,-3.8964,-3.8711,-3.8459,-3.8206,-3.7701,-3.7448,-3.7448,0.0,0.0,0.0,0.0,0.0,-3.5703,-3.4544,-3.3896,-3.3501,-3.2726,-3.2359,-3.2297,-3.1899,-3.1609,-3.1381,0.0,0.0,0.0,0.0,0.0,0.0,0.0,0.0,0.0,0.0,0.0,0.0,0.0,0.0,0.0,0.0,0.0,0.0,0.0,0.0,0.0,0.0,0.0,-1.5071,-1.673,-1.6606,-1.7774,-2.0327,-2.0074,-2.0587,-2.1795,-2.1292,-2.0389,-1.9216,-1.8232,-1.8238,-1.9011,-1.8826,-1.9377,0.0,-2.0465,0.0,0.0,0.0,0.0,0.0,0.0,0.0,0.0,-2.1488,-2.1434,-2.1476,-2.1933,0.0,0.0,0.0,0.0,0.0,-2.239,-2.3474,-2.428,-2.3168,-2.3023,-2.3119,-2.3023,-2.2702,-2.2438,-2.2438,-2.283,-2.3192,-2.3304,-2.4121,0.0,0.0,0.0,0.0,0.0,0.0,0.0,0.0,0.0,0.0,0.0,0.0,0.0,0.0,0.0,0.0,0.0,0.0,0.0,0.0,-3.9239,-3.8964,-3.8459,-3.8459,-3.8206,-3.7655,-3.715,-3.692,-3.692,-3.692,0.0,0.0,0.0,0.0,-3.5046,-3.4009,-3.3537,-3.3261,-3.2357,-3.1946,-3.1878,-3.1443,-3.1029,-3.0677,0.0,0.0,0.0,0.0,0.0,0.0,0.0,0.0,0.0,0.0,0.0,0.0,0.0,0.0,0.0,0.0,0.0,0.0,0.0,0.0,0.0,0.0,-1.462,-1.568,-1.7571,-1.7598,-1.8363,-1.9999,-2.0757,-2.122,-2.1397,-2.2193,-2.1464,-1.9492,-1.8548,-1.8182,-1.8304,-1.8978,-1.9459,-1.9845,0.0,0.0,0.0,0.0,0.0,0.0,0.0,0.0,0.0,-2.1967,-2.1642,-2.1428,-2.15,0.0,0.0,0.0,0.0,0.0,-2.3312,-2.4627,-2.5197,-2.2902,-2.3023,-2.3577,-2.3119,-2.3288,-2.3553,-2.3553,-2.3625,-2.3938,-2.4795,-2.5444,-2.6505,0.0,0.0,0.0,0.0,0.0,0.0,0.0,0.0,0.0,0.0,0.0,0.0,0.0,0.0,0.0,0.0,0.0,0.0,0.0,0.0,-3.8436,-3.7907,-3.7907,-3.7655,-3.715,-3.6645,-3.6392,-3.6392,-3.6392,-3.6073,0.0,0.0,0.0,-3.384,-3.3671,-3.3043,-3.2238,-3.2064,-3.1816,-3.1422,-3.0967,-3.0739,-3.0636,0.0,0.0,0.0,0.0,0.0,0.0,0.0,0.0,0.0,0.0,0.0,0.0,0.0,0.0,0.0,0.0,0.0,0.0,0.0,0.0,0.0,-1.5705,-1.6043,-1.6894,-1.8411,-1.8853,-1.9983,-2.1795,-2.2146,-2.249,-2.275,-2.2011,-2.0687,-1.892,-1.8253,-1.8076,-1.8351,-1.8804,-1.95,-2.027,0.0,0.0,0.0,0.0,0.0,0.0,0.0,0.0,0.0,0.0,-2.1958,-2.1837,-2.1837,0.0,0.0,0.0,0.0,0.0,-2.2775,-2.3853,-2.4652,-2.3977,-2.5256,-2.6505,-2.5961,-2.601,-2.6138,-2.5776,-2.5888,-2.6154,-2.6415,0.0,-3.0212,-3.3921,0.0,0.0,0.0,0.0,0.0,0.0,0.0,0.0,0.0,0.0,0.0,0.0,0.0,0.0,0.0,0.0,0.0,0.0,0.0,-3.8206,-3.7379,-3.7379,-3.7127,-3.6622,-3.6392,-3.6332,-3.6277,-3.5927,-3.5653,0.0,0.0,-3.4121,-3.3558,-3.2966,-3.2455,-3.1926,-3.1505,-3.1174,-3.0946,-3.0491,-3.047,-3.0615,0.0,0.0,0.0,0.0,0.0,0.0,0.0,0.0,0.0,0.0,0.0,0.0,0.0,0.0,0.0,0.0,0.0,0.0,0.0,0.0,-1.5362,-1.6489,-1.7223,-1.8231,-1.9621,-2.0167,-2.1435,-2.3461,-2.3247,-2.3341,-2.3639,-2.1536,-1.9813,-1.8493,-1.814,-1.8108,-1.8311,-1.8902,-1.9684,-2.0577,0.0,0.0,0.0,0.0,0.0,0.0,0.0,0.0,0.0,0.0,0.0,0.0,0.0,0.0,0.0,-2.2197,-2.2197,-2.2246,-2.2486,-2.3425,-2.4618,-2.5787,-2.7301,-2.8586,-2.8761,-2.8961,-2.895,-2.8499,-2.8709,-2.8785,0.0,-3.0257,0.0,-3.7686,0.0,0.0,0.0,0.0,0.0,0.0,0.0,0.0,0.0,0.0,0.0,0.0,0.0,0.0,0.0,0.0,0.0,0.0,0.0,0.0,-3.6979,-3.692,-3.6668,-3.6332,-3.6332,-3.6332,-3.6277,-3.5653,-3.5256,-3.4979,-3.3892,-3.3353,-3.3163,-3.2357,-3.1926,-3.1816,-3.1112,-3.0719,-3.0491,-3.0243,-3.0387,-3.0657,0.0,0.0,0.0,0.0,0.0,0.0,0.0,0.0,0.0,0.0,0.0,0.0,0.0,0.0,0.0,0.0,0.0,0.0,0.0,0.0,-1.556,-1.5421,-1.7416,-1.9462,-2.156,-2.1308,-2.1957,-2.3672,-2.3489,-2.3165,-2.2762,-2.1104,-1.9786,-1.886,-1.882,-1.8357,-1.7695,-1.97,-2.0331,-2.0082,-2.1221,0.0,0.0,0.0,0.0,0.0,0.0,0.0,0.0,0.0,0.0,0.0,0.0,0.0,-2.2197,-2.2197,-2.2197,-2.2414,-2.3433,-2.474,-2.6297,-2.8261,-2.7802,-2.7532,-3.0021,-3.1023,-3.1436,-3.1681,-3.184,-3.1417,0.0,-3.2326,-3.5037,-3.6236,0.0,0.0,0.0,0.0,0.0,0.0,0.0,0.0,0.0,0.0,0.0,0.0,0.0,0.0,0.0,0.0,0.0,0.0,0.0,0.0,-3.6979,-3.6553,-3.63,-3.6332,-3.6332,-3.6332,-3.6277,-3.5653,-3.4857,-3.389,-3.3253,-3.2643,-3.2085,-3.2043,-3.1795,-3.1422,-3.136,-3.0801,-3.0098,-3.0491,-3.0657,-3.0739,0.0,0.0,0.0,0.0,0.0,0.0,0.0,0.0,0.0,0.0,0.0,0.0,0.0,0.0,0.0,0.0,0.0,0.0,0.0,0.0,-1.6353,-1.6912,-1.8037,-1.9415,-2.1032,-2.1586,-2.2626,-2.4144,-2.3703,-2.3203,-2.273,-2.1244,-2.0265,-1.9743,-1.9285,-1.9258,-1.9529,-1.9991,-2.0419,-2.0788,-2.1664,-2.1829,0.0,0.0,0.0,0.0,0.0,0.0,0.0,0.0,-2.3198,-2.2938,-2.2938,-2.275,-2.2506,-2.2506,-2.2352,-2.227,-2.2678,-2.4359,-2.6416,-2.8145,-2.9353,-3.08,-3.3498,-3.4848,-3.5608,-3.5974,-3.5908,-3.5453,0.0,0.0,-3.8016,0.0,0.0,0.0,0.0,0.0,0.0,0.0,0.0,0.0,0.0,0.0,0.0,0.0,0.0,0.0,0.0,0.0,0.0,0.0,0.0,0.0,0.0,-3.6048,-3.5795,-3.5795,-3.6117,-3.6332,-3.6277,-3.5268,-3.445,-3.3737,-3.2746,-3.2045,-3.1609,-3.1319,-3.1091,-3.0926,-3.0636,-3.0305,-3.0015,-3.0201,-3.0615,-3.1091,0.0,0.0,0.0,0.0,0.0,0.0,0.0,0.0,0.0,0.0,0.0,0.0,0.0,0.0,0.0,0.0,0.0,0.0,-1.6226,-1.6316,-1.6672,-1.7453,-1.8175,-1.8956,-1.9801,-2.1317,-2.2897,-2.4539,-2.4277,-2.3612,-2.2598,-2.1551,-2.077,-2.0163,-1.9901,-2.0084,-2.0506,-2.036,-2.0696,-2.1358,-2.167,-2.1689,0.0,0.0,0.0,0.0,0.0,0.0,0.0,0.0,-2.3749,-2.3641,-2.3469,-2.3175,-2.2967,-2.2936,-2.2566,-2.2221,-2.239,-2.3846,-2.5807,-2.7792,-3.0177,-3.2911,-3.6382,-3.7848,-3.8657,-3.9598,-3.8714,-3.7624,-3.7094,0.0,0.0,0.0,0.0,0.0,0.0,0.0,0.0,0.0,0.0,0.0,0.0,0.0,0.0,0.0,0.0,0.0,0.0,0.0,0.0,0.0,0.0,0.0,0.0,-3.5772,-3.5451,-3.529,-3.5634,-3.5818,-3.5818,-3.458,-3.3857,-3.3497,-3.2167,-3.1526,-3.134,-3.0884,-3.0677,-3.0636,-3.018,-2.9994,-3.0015,-3.016,-3.0615,-3.1133,0.0,0.0,0.0,0.0,0.0,0.0,0.0,0.0,0.0,0.0,0.0,0.0,0.0,0.0,0.0,0.0,0.0,0.0,-1.5985,-1.6104,-1.6247,-1.656,-1.7633,-1.8181,-1.8181,-2.041,-2.2644,-2.4797,-2.5245,-2.4376,-2.2208,-2.1998,-2.1181,-1.9954,-2.0775,-2.0743,-2.0161,-2.0831,-2.1297,-2.1551,-2.1086,-2.1306,-2.1891,0.0,0.0,0.0,0.0,0.0,0.0,0.0,-2.4025,-2.4197,-2.3592,-2.3452,-2.3515,-2.342,-2.2834,-2.2318,-2.2847,-2.3408,-2.456,-2.7544,-2.9985,-3.3029,-3.8366,-3.9625,-4.019,-4.2225,-3.9848,-3.7581,-3.7954,-3.7593,0.0,0.0,0.0,0.0,0.0,0.0,0.0,0.0,0.0,0.0,0.0,0.0,0.0,0.0,0.0,0.0,0.0,0.0,0.0,0.0,0.0,0.0,0.0,-3.5749,-3.5267,-3.4785,-3.4785,-3.4785,-3.4756,-3.3604,-3.3124,-3.2974,-3.1401,-3.0946,-3.1319,-3.0864,-3.0677,-3.0636,-3.018,-2.9994,-3.0056,-3.0512,-3.0677,-3.076,0.0,0.0,0.0,0.0,0.0,0.0,0.0,0.0,0.0,0.0,0.0,0.0,0.0,0.0,0.0,0.0,0.0,0.0,-1.5252,-1.5718,-1.6077,-1.6373,-1.7377,-1.7809,-1.7572,-1.9359,-2.1473,-2.3966,-2.3759,-2.3442,-2.2967,-2.2432,-2.2163,-2.2078,-2.1988,-2.1835,-2.1625,-2.1249,-2.1163,-2.1264,-2.1251,-2.1169,-2.1144,0.0,0.0,0.0,0.0,0.0,0.0,0.0,0.0,0.0,-2.4222,-2.3907,-2.3798,-2.3484,-2.2834,-2.2318,-2.2847,-2.4369,-2.6277,-2.8394,-3.1855,-3.5703,-3.9342,-4.0514,-4.1359,-4.3398,-4.1828,-4.0163,-4.0104,0.0,0.0,0.0,0.0,0.0,0.0,0.0,0.0,0.0,0.0,0.0,0.0,0.0,0.0,0.0,0.0,0.0,0.0,0.0,0.0,0.0,0.0,0.0,0.0,0.0,-3.4188,-3.3666,-3.3305,-3.3508,-3.4208,-3.3444,-3.2715,-3.1987,-3.1114,-3.0574,-3.0387,-3.0263,-3.0201,-3.018,-3.0056,-2.9994,-3.0015,-3.016,-3.0408,-3.0698,0.0,0.0,0.0,0.0,0.0,0.0,0.0,0.0,0.0,0.0,-1.1217,-1.1598,0.0,0.0,0.0,0.0,0.0,0.0,0.0,-1.5794,-1.6189,-1.6513,-1.719,-1.7708,-1.7968,-1.9116,-2.0585,-2.2428,-2.2631,-2.2719,-2.2754,-2.2889,-2.2996,-2.3075,-2.311,-2.2861,-2.2433,-2.1953,-2.1721,-2.1683,-2.1688,-2.1487,-2.1351,0.0,0.0,0.0,0.0,0.0,0.0,0.0,0.0,0.0,-2.473,-2.4396,-2.4224,-2.3589,-2.3074,-2.2907,-2.366,-2.5351,-2.7506,-2.9821,-3.3328,-3.717,-4.0647,-4.2265,-4.3149,-4.3607,-4.2438,-4.1441,-4.1651,0.0,0.0,0.0,0.0,0.0,0.0,0.0,0.0,0.0,0.0,0.0,0.0,0.0,0.0,0.0,0.0,0.0,0.0,0.0,0.0,0.0,0.0,0.0,0.0,0.0,0.0,-3.2891,-3.2374,-3.2325,-3.2691,-3.2323,-3.1964,-3.1508,-3.0945,-3.0429,-2.9994,-2.9994,-2.9994,-2.9994,-2.9994,-2.9994,-2.9994,-2.9994,-3.018,-3.0408,0.0,0.0,0.0,0.0,0.0,0.0,0.0,0.0,0.0,0.0,-1.1377,-1.1687,0.0,0.0,0.0,0.0,0.0,0.0,0.0,0.0,-1.6433,-1.6771,-1.7145,-1.788,-1.9044,-1.9346,-1.983,-2.0546,-2.1732,-2.2195,-2.1953,-2.3241,-2.3674,-2.3356,-2.4105,-2.3802,-2.2767,-2.2681,-2.26,-2.2523,-2.2176,-2.2,-2.2003,-2.2348,0.0,0.0,0.0,0.0,0.0,0.0,0.0,0.0,-2.4947,-2.4757,-2.4675,-2.3688,-2.3452,-2.3762,-2.4953,-2.6377,-2.8312,-3.1549,-3.471,-3.8079,-4.1983,-4.4193,-4.4922,-4.3208,0.0,-4.1731,-4.2627,0.0,0.0,0.0,0.0,0.0,0.0,0.0,0.0,0.0,0.0,0.0,0.0,0.0,0.0,0.0,0.0,0.0,0.0,0.0,0.0,0.0,0.0,0.0,0.0,0.0,0.0,0.0,-3.1761,-3.1292,-3.0797,-3.0806,-3.1019,-3.1339,-3.0829,-3.0387,-2.9994,-2.9994,-2.9994,-2.9994,-2.9994,-2.9994,-2.9994,-2.9994,-2.9994,-2.9994,0.0,0.0,0.0,0.0,0.0,0.0,0.0,0.0,0.0,0.0,0.0,0.0,0.0,0.0,0.0,0.0,0.0,0.0,0.0,0.0,-1.6336,-1.6791,-1.7307,-1.8207,-1.9523,-1.8504,-1.8415,-1.9302,-2.0501,-2.1496,-2.2287,-2.3077,-2.3668,-2.4069,-2.4359,-2.402,-2.322,-2.2635,-2.2281,-2.2093,-2.1813,-2.1327,-2.0808,-2.0967,-2.0637,0.0,0.0,0.0,0.0,0.0,0.0,0.0,-2.4008,-2.3951,-2.427,-2.3599,-2.3452,-2.3836,-2.5422,-2.7163,-2.9329,-3.271,-3.7286,-4.1182,-4.2028,-4.3083,-4.3751,-4.3336,-4.2519,-4.2061,0.0,0.0,0.0,0.0,0.0,0.0,0.0,0.0,0.0,0.0,0.0,0.0,0.0,0.0,0.0,0.0,0.0,0.0,0.0,0.0,0.0,0.0,0.0,0.0,-3.3614,-3.2898,-3.2279,0.0,-3.1197,-3.0893,-3.0724,-3.0768,-3.0641,-3.0349,-3.0192,-3.0098,-2.9994,-2.9994,-2.9994,-2.9994,-2.9994,-2.9994,-2.9994,-2.9994,-2.9994,-2.9994,0.0,0.0,0.0,0.0,0.0,0.0,0.0,0.0,0.0,0.0,0.0,0.0,0.0,0.0,0.0,0.0,0.0,0.0,0.0,0.0,0.0,-1.7103,-1.7707,-1.8331,-1.8961,-1.8452,-1.8541,-1.9293,-1.9896,-2.0847,-2.2071,-2.2702,-2.3416,-2.4301,-2.452,-2.3957,-2.2896,-2.2798,-2.2404,-2.1824,-2.2002,-2.1548,-2.0731,-2.0928,-2.0326,-1.947,0.0,0.0,0.0,0.0,0.0,0.0,0.0,0.0,-2.3875,-2.3231,-2.338,-2.4115,-2.5818,-2.7693,-3.0314,-3.5012,-3.9033,-4.1776,-4.1886,-4.2267,-4.2452,-4.1874,-4.1525,0.0,0.0,0.0,0.0,0.0,0.0,0.0,0.0,0.0,0.0,0.0,0.0,0.0,0.0,0.0,0.0,0.0,0.0,0.0,0.0,0.0,0.0,0.0,0.0,0.0,-3.3292,-3.2443,-3.1863,-3.1578,-3.0806,-3.0433,-3.0367,-3.0872,-3.0903,-3.0657,-3.0657,-3.0532,-3.0325,-3.0325,-3.0201,-2.9994,-2.9994,-2.9994,-2.9994,-2.9994,-2.9994,-2.9994,0.0,0.0,0.0,0.0,0.0,0.0,0.0,0.0,0.0,0.0,0.0,0.0,0.0,0.0,0.0,0.0,0.0,0.0,0.0,0.0,0.0,-1.7889,-1.8215,-1.8529,-1.8918,-1.8977,-1.9332,-1.9976,-1.9976,-2.0693,-2.2094,-2.2469,-2.3267,-2.4355,-2.4565,-2.3885,-2.2623,-2.3091,-2.2724,-2.1901,-2.2386,-2.197,-2.1107,-2.1219,-2.0416,-1.9206,0.0,0.0,0.0,0.0,0.0,0.0,0.0,0.0,-2.3237,-2.2874,-2.3306,-2.4274,-2.6156,-2.8528,-3.1746,-3.7182,-3.9886,-4.1253,-4.1537,-4.1603,-4.1214,-4.0002,0.0,0.0,0.0,0.0,0.0,0.0,0.0,0.0,0.0,0.0,0.0,0.0,0.0,0.0,0.0,0.0,0.0,0.0,0.0,0.0,0.0,0.0,0.0,0.0,0.0,-3.3119,-3.3119,-3.2037,-3.1432,-3.1345,-3.0338,-2.987,-2.9911,-3.076,-3.1133,-3.1133,-3.105,-3.0801,-3.045,-3.045,-3.0222,-2.9891,-2.9973,-2.9994,-2.9994,-2.9994,-2.9994,-2.9994,0.0,0.0,0.0,0.0,0.0,0.0,0.0,0.0,0.0,0.0,-1.2558,-1.3172,0.0,0.0,0.0,0.0,0.0,0.0,0.0,0.0,0.0,-1.959,-1.8669,-1.9295,-2.1777,-2.0195,-1.9952,-2.1173,-2.1173,-2.2015,-2.3591,-2.3046,-2.3391,-2.4544,-2.4422,-2.4142,-2.3753,-2.3415,-2.3121,-2.2783,-2.2491,-2.184,-2.1052,-2.0806,-1.9806,0.0,0.0,0.0,0.0,0.0,-2.0201,0.0,0.0,0.0,0.0,-2.2659,-2.3127,-2.3949,-2.6383,-3.0336,-3.446,-3.7325,-3.9285,-4.0579,-4.0873,0.0,-4.033,0.0,0.0,0.0,0.0,0.0,0.0,0.0,0.0,0.0,0.0,0.0,0.0,0.0,0.0,0.0,0.0,0.0,0.0,0.0,0.0,0.0,0.0,0.0,-3.3292,-3.3292,-3.2796,0.0,-3.2521,-3.1454,-3.0675,-3.0269,-2.968,-2.9394,-2.9415,-2.9932,-3.018,-3.016,-2.9766,-2.9539,-2.9497,-2.9497,-2.9456,-2.9435,-2.9829,-2.9994,-2.9994,-2.9994,-2.9994,-2.9889,0.0,0.0,0.0,0.0,0.0,0.0,0.0,0.0,0.0,0.0,0.0,-1.3968,0.0,0.0,0.0,0.0,0.0,0.0,0.0,0.0,0.0,-1.8693,-1.8589,-1.9383,-2.1118,-2.0551,-2.0678,-2.1563,-2.1834,-2.2684,-2.4055,-2.3881,-2.4408,-2.5412,-2.4502,-2.3933,-2.3585,-2.3245,-2.29,-2.2608,-2.2498,-2.1923,-2.1085,0.0,0.0,0.0,0.0,0.0,0.0,0.0,0.0,-1.9696,-2.0181,0.0,0.0,0.0,-2.2225,-2.3331,-2.6662,-3.0203,-3.3535,-3.5861,-3.7482,-3.8657,-3.9244,-3.9599,-3.9526,0.0,0.0,0.0,0.0,0.0,0.0,0.0,0.0,0.0,0.0,0.0,0.0,0.0,0.0,0.0,0.0,0.0,0.0,0.0,0.0,0.0,-3.3683,-3.343,-3.3292,-3.3292,-3.2695,0.0,-3.2067,-3.094,-3.0016,-2.9249,-2.9019,-2.8918,-2.8918,-2.9125,-2.9497,-2.9973,-2.9787,-2.9539,-2.9311,-2.9311,-2.9311,-2.9332,-2.9539,-2.9766,-2.9994,-2.9994,-2.9994,-2.9889,0.0,0.0,0.0,0.0,0.0,0.0,0.0,0.0,0.0,0.0,0.0,0.0,0.0,0.0,0.0,0.0,0.0,0.0,0.0,0.0,0.0,-1.7902,-1.8407,-1.9297,-2.0591,-2.0728,-2.116,-2.1934,-2.2298,-2.3119,-2.4384,-2.4687,-2.5457,-2.6631,-2.5127,-2.4149,-2.3564,-2.3355,-2.3089,-2.2834,-2.2714,-2.223,-2.1507,0.0,0.0,0.0,0.0,0.0,0.0,0.0,0.0,0.0,0.0,0.0,0.0,0.0,0.0,-2.29,-2.5886,-2.8533,-3.1085,-3.3491,-3.4899,-3.6103,0.0,0.0,0.0,0.0,0.0,0.0,0.0,0.0,0.0,0.0,0.0,0.0,0.0,0.0,0.0,0.0,0.0,0.0,0.0,0.0,0.0,0.0,0.0,0.0,-3.3798,-3.3338,-3.3086,-3.3086,-3.2279,-3.1684,-3.1426,-3.0134,-2.9153,-2.8442,-2.8317,-2.8276,-2.8276,-2.8276,-2.8649,-2.9311,-2.9415,-2.927,-2.8959,-2.8959,-2.8959,-2.8959,-2.9083,-2.9415,-2.9829,-2.9829,-2.9786,-2.9554,0.0,0.0,0.0,0.0,0.0,0.0,0.0,0.0,0.0,0.0,0.0,0.0,0.0,-1.6073,-1.6191,-1.657,0.0,0.0,0.0,0.0,0.0,-1.843,-1.8248,0.0,-2.1757,-2.0908,-2.1169,-2.2639,-2.2662,-2.342,-2.4852,-2.5188,-2.6404,-2.8196,-2.6476,-2.5206,-2.4325,-2.4265,-2.4265,-2.4213,-2.327,-2.2867,0.0,0.0,0.0,0.0,0.0,0.0,0.0,0.0,0.0,0.0,0.0,0.0,0.0,0.0,0.0,0.0,-2.3245,-2.5062,-2.7475,-3.0085,-3.1523,-3.3089,0.0,0.0,0.0,0.0,0.0,0.0,0.0,0.0,0.0,0.0,0.0,0.0,0.0,0.0,0.0,0.0,0.0,0.0,0.0,0.0,0.0,0.0,0.0,0.0,-3.3315,-3.281,-3.2535,-3.2535,-3.1105,-3.0324,-3.0302,-2.8754,-2.7986,-2.7945,-2.7531,-2.7372,-2.7372,-2.7372,-2.7413,-2.7475,-2.7841,-2.8028,-2.7986,-2.7986,-2.7986,-2.8028,-2.8483,-2.8938,-2.9352,-2.9352,-2.9082,-2.8635,0.0,0.0,0.0,0.0,0.0,0.0,0.0,0.0,0.0,0.0,0.0,0.0,0.0,-1.6676,-1.6823,-1.7647,-1.7777,0.0,0.0,0.0,0.0,-1.8137,-1.844,-1.9326,-2.0885,-2.0917,-2.133,-2.2203,-2.2524,-2.3282,-2.4476,-2.4755,-2.5655,-2.6967,-2.6017,-2.5512,-2.5228,-2.4265,-2.3862,-2.3876,-2.3627,0.0,0.0,0.0,0.0,0.0,0.0,0.0,0.0,0.0,0.0,0.0,0.0,0.0,0.0,0.0,0.0,-2.138,-2.2889,-2.4148,-2.5551,-2.7562,-2.9186,-3.0767,-3.26,-3.405,0.0,0.0,0.0,0.0,0.0,0.0,0.0,0.0,0.0,0.0,0.0,0.0,0.0,0.0,0.0,0.0,0.0,0.0,0.0,0.0,0.0,0.0,-3.3292,-3.2764,-3.2342,-3.2048,-3.0843,-2.9715,-2.8712,-2.791,-2.7489,-2.7489,-2.7392,-2.7309,-2.7309,-2.7309,-2.7309,-2.7309,-2.7427,-2.7489,-2.7489,-2.7489,-2.7655,-2.7945,-2.811,-2.8628,-2.926,-2.8674,-2.8573,-2.8475,0.0,0.0,0.0,0.0,0.0,0.0,0.0,0.0,0.0,0.0,0.0,0.0,0.0,0.0,-1.7902,-1.8434,-1.8833,-1.8799,-1.8096,-1.8702,-1.8839,-1.8419,-1.888,-1.9631,-2.0641,-2.0695,-2.1078,-2.1894,-2.1927,-2.2524,-2.3695,-2.4237,-2.5006,-2.6001,-2.5644,-2.5596,-2.5726,-2.5015,-2.4513,-2.4221,-2.4445,0.0,-2.3587,0.0,0.0,0.0,0.0,0.0,0.0,0.0,0.0,0.0,0.0,0.0,0.0,0.0,0.0,0.0,-2.1419,0.0,0.0,0.0,-2.6469,-2.7878,-3.0,0.0,0.0,0.0,0.0,0.0,0.0,0.0,0.0,0.0,0.0,0.0,0.0,0.0,0.0,0.0,0.0,0.0,0.0,0.0,0.0,0.0,0.0,0.0,-3.2764,-3.2137,-3.1385,-3.0577,-2.9833,-2.8882,-2.7696,-2.7455,-2.7309,-2.7309,-2.7309,-2.7309,-2.7309,-2.7309,-2.7309,-2.7309,-2.7309,-2.7309,-2.7309,-2.7309,-2.7475,-2.7696,-2.7696,-2.8025,-2.8401,-2.7961,-2.7728,-2.7481,0.0,0.0,0.0,0.0,0.0,0.0,0.0,0.0,0.0,0.0,0.0,0.0,0.0,0.0,0.0,-1.8977,-1.9387,-1.9439,-1.8849,-1.938,-1.9641,-1.9417,0.0,0.0,-2.1155,-2.0205,-2.0435,-2.1871,-2.0885,-2.1192,-2.2719,-2.3672,-2.4682,-2.567,-2.5477,-2.5537,-2.5856,-2.6526,-2.6268,-2.5467,0.0,-2.5287,-2.471,0.0,0.0,0.0,-2.3204,-2.2864,0.0,-2.1824,0.0,0.0,0.0,0.0,0.0,0.0,0.0,0.0,0.0,0.0,0.0,0.0,0.0,0.0,-2.8664,0.0,0.0,0.0,0.0,0.0,0.0,0.0,0.0,0.0,0.0,0.0,0.0,0.0,0.0,0.0,0.0,0.0,0.0,0.0,0.0,0.0,0.0,-3.1754,-3.1661,-3.0801,-2.9601,-2.8045,-2.7998,-2.7762,-2.7289,-2.7289,-2.7289,-2.7289,-2.7289,-2.7309,-2.733,-2.733,-2.733,-2.733,-2.733,-2.7309,-2.7309,-2.7309,-2.7309,-2.7309,-2.7262,-2.7049,-2.6854,-2.71,-2.6484,-2.554,0.0,0.0,0.0,0.0,0.0,0.0,0.0,0.0,0.0,0.0,0.0,0.0,-2.0007,-2.078,-2.0939,-2.0072,-2.0747,-2.0765,-1.9508,-1.9931,-2.0014,-1.9641,-1.9647,-1.9975,-2.0595,-2.0343,-2.0595,-2.1408,-2.1109,-2.1353,-2.2134,-2.2432,-2.3282,-2.4636,-2.4906,-2.5392,-2.5984,-2.5095,-2.5317,-2.6181,-2.5814,-2.625,0.0,0.0,0.0,0.0,0.0,-2.5271,-2.4886,0.0,-2.2998,-2.1915,0.0,0.0,0.0,0.0,0.0,0.0,-1.8504,0.0,0.0,0.0,0.0,0.0,0.0,0.0,0.0,0.0,0.0,0.0,0.0,0.0,0.0,0.0,0.0,0.0,0.0,0.0,0.0,0.0,0.0,0.0,0.0,0.0,0.0,0.0,0.0,-3.1616,-3.1226,-3.0267,-2.9201,-2.8066,-2.7668,-2.7285,-2.6812,-2.6812,-2.6812,-2.6812,-2.6812,-2.7096,-2.7738,-2.7738,-2.7738,-2.7738,-2.7738,-2.7552,-2.7309,-2.7309,-2.7309,-2.7262,-2.6668,-2.6563,-2.6665,-2.556,-2.5142,-2.5073,0.0,0.0,0.0,0.0,0.0,0.0,0.0,0.0,0.0,0.0,0.0,0.0,-2.1557,-2.2136,-2.2206,-2.1417,-2.1899,-2.1766,-2.0687,-2.0862,-2.0825,-2.035,-2.0327,-2.0435,-2.071,-2.0504,-2.0664,-2.1201,-2.0994,-2.1101,-2.1606,-2.2042,-2.2708,-2.3603,-2.4499,-2.5043,-2.5249,-2.4588,0.0,0.0,-2.6211,0.0,0.0,-2.7455,-2.7771,0.0,0.0,0.0,-2.6911,-2.5587,-2.3998,0.0,0.0,0.0,0.0,0.0,0.0,0.0,0.0,0.0,0.0,0.0,0.0,0.0,-2.3735,-2.5008,0.0,0.0,0.0,0.0,0.0,0.0,0.0,0.0,0.0,0.0,0.0,0.0,0.0,0.0,0.0,0.0,0.0,0.0,0.0,0.0,-3.0767,-3.0606,-3.0056,-2.9473,-2.8795,-2.7998,-2.7338,-2.6895,-2.6625,-2.6625,-2.6521,-2.6335,-2.6521,-2.6951,-2.7655,-2.7655,-2.7738,-2.7924,-2.7924,-2.7676,-2.7309,-2.7309,-2.7119,-2.6764,-2.6284,-2.5859,-2.54,-2.4597,-2.436,-2.4404,0.0,0.0,0.0,0.0,0.0,0.0,0.0,0.0,0.0,0.0,0.0,-2.3637,-2.3797,-2.3682,-2.3361,0.0,-2.28,-2.2547,-2.2009,-2.1986,-2.1812,-2.1385,-2.1362,-2.1362,-2.1362,-2.0894,-2.0848,-2.127,-2.0848,-2.0871,-2.1293,-2.2259,-2.2742,-2.2823,0.0,0.0,-2.4292,-2.4682,0.0,-2.5369,-2.6679,-2.6871,0.0,0.0,-2.9193,-2.9261,-2.8724,-2.8673,-2.8574,-2.6712,-2.4785,0.0,0.0,0.0,0.0,0.0,-2.0778,0.0,0.0,0.0,0.0,0.0,0.0,0.0,-2.4279,-2.4918,-2.5519,0.0,0.0,0.0,0.0,0.0,0.0,0.0,0.0,0.0,0.0,0.0,0.0,0.0,0.0,0.0,0.0,0.0,-3.0101,-3.0055,-2.962,-2.9125,-2.8567,-2.8556,-2.8333,-2.7866,-2.7066,-2.6563,-2.648,-2.6521,-2.6314,-2.5813,-2.6314,-2.6812,-2.7309,-2.7309,-2.7483,-2.784,-2.7798,-2.7503,-2.7085,-2.7023,-2.6668,-2.6091,-2.5994,-2.505,-2.3723,-2.4014,-2.3876,-2.3631,0.0,0.0,0.0,0.0,0.0,0.0,0.0,0.0,0.0,-2.3663,-2.4242,-2.5058,-2.6319,-2.5333,-2.443,0.0,-2.3499,-2.304,-2.257,-2.2524,-2.2478,-2.242,-2.242,-2.242,-2.242,-2.2294,-2.2088,-2.1757,-2.2088,-2.2088,-2.1789,-2.2409,-2.2891,-2.327,-2.3568,-2.4095,-2.4751,0.0,0.0,-2.6041,-2.6857,0.0,-2.9942,-2.9576,-2.9644,-2.9942,-2.9463,-2.9308,-2.9079,-2.713,-2.5954,-2.5066,0.0,0.0,0.0,0.0,0.0,0.0,0.0,0.0,0.0,0.0,0.0,0.0,-2.2169,-2.2723,-2.3148,0.0,0.0,0.0,0.0,0.0,0.0,0.0,0.0,0.0,0.0,0.0,0.0,0.0,0.0,0.0,0.0,0.0,-2.9458,-2.9022,-2.8625,-2.8121,-2.7573,-2.7543,-2.7377,-2.6889,-2.6713,-2.6227,-2.5502,-2.5834,-2.5792,-2.5357,-2.5813,-2.6501,-2.7309,-2.7309,-2.7357,-2.7372,-2.7152,-2.6557,-2.5844,-2.5478,-2.5635,-2.6042,-2.5392,-2.4559,-2.3637,-2.3125,-2.2909,-2.2929,0.0,0.0,0.0,0.0,0.0,0.0,0.0,0.0,-2.4206,-2.5218,-2.5968,-2.6542,-2.6818,-2.6152,-2.5371,0.0,0.0,0.0,0.0,-2.3052,-2.2937,-2.2719,-2.2719,-2.2719,-2.2719,-2.2719,-2.2547,-2.2294,-2.2547,-2.2547,-2.2317,-2.2823,-2.3052,-2.3098,-2.3797,-2.4141,-2.4187,0.0,-2.5494,-2.6377,-2.6984,0.0,-2.9714,-2.9804,-3.0009,-3.0193,-2.994,-2.9693,-2.9283,-2.8077,-2.7281,0.0,0.0,-2.4581,-2.4205,0.0,-2.2694,-2.2783,0.0,0.0,0.0,-2.2201,0.0,0.0,0.0,-2.2554,-2.2928,-2.2836,0.0,0.0,0.0,0.0,0.0,0.0,0.0,0.0,0.0,0.0,0.0,0.0,0.0,0.0,0.0,0.0,-2.8637,-2.8355,-2.8203,-2.7877,-2.734,-2.707,-2.6843,-2.6617,-2.6156,-2.5689,-2.5189,-2.544,-2.5337,-2.4859,-2.5337,-2.6041,-2.6957,-2.6957,-2.6975,-2.7042,-2.6844,-2.6181,-2.5206,-2.4979,-2.4903,-2.4854,-2.4461,-2.3818,-2.3088,-2.2754,-2.2723,-2.2877,-1.9824,0.0,0.0,0.0,0.0,0.0,0.0,0.0,-2.5105,-2.6846,-2.7667,-2.7966,-2.7571,-2.718,-2.668,0.0,0.0,0.0,0.0,-2.382,-2.3316,-2.2846,-2.2914,-2.2914,-2.2823,-2.2914,-2.2914,-2.2823,-2.2914,-2.2914,-2.2846,-2.3316,-2.342,-2.3144,-2.4269,-2.4416,-2.3935,-2.515,0.0,-2.6835,0.0,-2.7862,-2.8598,-2.9736,-3.0147,-3.0078,-3.0193,-2.9943,-2.9533,-2.8768,0.0,-2.7785,-2.6222,-2.5838,0.0,0.0,0.0,0.0,0.0,0.0,0.0,0.0,0.0,-2.2535,0.0,0.0,0.0,-2.3014,0.0,0.0,0.0,0.0,0.0,0.0,0.0,0.0,0.0,0.0,0.0,0.0,0.0,0.0,0.0,0.0,-2.7273,-2.7188,-2.741,-2.7348,-2.6909,-2.6619,-2.6483,-2.6483,-2.5618,-2.5148,-2.5065,-2.5148,-2.4962,-2.4507,-2.4962,-2.5606,-2.631,-2.6254,-2.6317,-2.6428,-2.628,-2.5561,-2.4573,-2.448,-2.4066,-2.3488,-2.3637,-2.3238,-2.2603,-2.2603,-2.2791,-2.3014,-2.1017,-2.1491,0.0,0.0,0.0,0.0,0.0,0.0,-2.6938,-2.8907,-2.8838,-2.9274,-3.102,-2.9527,-2.8953,0.0,0.0,0.0,-2.7392,0.0,-2.3879,-2.3338,-2.3787,-2.381,-2.3338,-2.3787,-2.381,-2.3316,-2.381,-2.3787,-2.3338,-2.3879,-2.4315,-2.4636,-2.4384,-2.4705,-2.5463,0.0,-2.6519,0.0,-2.8333,-2.8586,0.0,-2.9825,-2.994,-2.9642,-3.0055,-3.017,-2.9897,0.0,-2.8475,-2.8849,0.0,-2.6021,-2.6598,0.0,0.0,0.0,0.0,0.0,0.0,0.0,-2.3247,0.0,0.0,0.0,-2.2076,-2.0785,0.0,0.0,0.0,0.0,0.0,0.0,0.0,0.0,0.0,0.0,0.0,0.0,0.0,0.0,0.0,0.0,0.0,-2.4285,-2.5037,-2.5508,-2.5451,-2.5802,-2.5965,-2.5965,-2.5461,-2.5003,-2.4569,-2.4983,-2.4962,-2.4507,-2.4962,-2.523,-2.5354,-2.5048,-2.4941,-2.4979,-2.4337,-2.377,-2.3271,-2.2976,-2.2787,-2.2787,-2.3438,-2.3238,-2.2603,-2.2603,-2.262,-2.2705,-2.1652,-2.2215,-2.2926,0.0,0.0,0.0,0.0,0.0,-2.8953,-2.9802,-3.0491,-3.1226,-3.2099,0.0,0.0,0.0,0.0,-2.8057,0.0,0.0,0.0,-2.5187,-2.4545,-2.4223,-2.4256,-2.4223,-2.4223,-2.4256,-2.4223,-2.4223,-2.4256,-2.4223,-2.4154,-2.4049,-2.4453,-2.4682,-2.4912,0.0,-2.6955,0.0,0.0,0.0,0.0,-2.9825,-3.0101,-2.994,-3.0147,-3.0216,-3.0056,0.0,-2.9282,0.0,0.0,0.0,0.0,0.0,0.0,0.0,0.0,0.0,0.0,0.0,0.0,0.0,0.0,0.0,-2.1502,0.0,0.0,0.0,0.0,0.0,0.0,0.0,0.0,0.0,0.0,0.0,0.0,0.0,0.0,0.0,0.0,0.0,0.0,0.0,0.0,-2.4914,-2.5192,-2.515,-2.5109,-2.5109,-2.4879,-2.4693,-2.4507,-2.4693,-2.4693,-2.4507,-2.4693,-2.4746,-2.4638,-2.4675,-2.4399,-2.3883,-2.3777,-2.3376,-2.2826,-2.2671,-2.2603,-2.2653,-2.2937,-2.2887,-2.2603,-2.2603,-2.2603,-2.262,-2.2376,-2.2903,-2.3522,-2.3925,0.0,0.0,-2.672,-2.854,-3.0009,-3.056,-3.1479,-3.2397,-3.3224,-3.2764,0.0,0.0,-3.1869,-3.0514,0.0,0.0,-2.6611,0.0,0.0,0.0,-2.4728,-2.4499,-2.4499,-2.4728,-2.4361,-2.4384,-2.4705,-2.4361,-2.4062,-2.3843,-2.4714,-2.5096,-2.5142,0.0,-2.7713,-2.7966,-2.9206,-2.9458,-2.9183,-2.978,-3.0101,-3.0216,-3.0216,-3.0216,-3.0102,-2.9463,-2.9668,0.0,-2.8393,0.0,0.0,0.0,0.0,0.0,-2.376,0.0,0.0,0.0,0.0,0.0,0.0,0.0,0.0,0.0,0.0,0.0,0.0,0.0,0.0,0.0,0.0,0.0,0.0,0.0,0.0,0.0,0.0,0.0,0.0,0.0,0.0,0.0,-2.4152,0.0,-2.4447,-2.459,-2.4693,-2.4693,-2.4693,-2.4693,-2.4693,-2.4569,-2.4507,-2.4507,-2.4315,-2.4132,-2.4014,-2.4069,-2.3683,-2.3045,-2.3256,-2.3088,-2.2603,-2.2603,-2.2603,-2.2603,-2.2603,-2.2603,-2.2603,-2.2603,-2.2603,-2.2603,-2.3361,-2.3384,-2.3407,-2.343,-2.4233,-2.5601,-2.7621,-2.8402,-2.9458,-3.1503,-3.1341,0.0,0.0,0.0,0.0,0.0,0.0,-3.366,-3.3178,0.0,-2.8287,0.0,0.0,-2.5754,0.0,-2.4659,-2.4659,-2.4223,-2.42,-2.42,-2.4223,-2.42,-2.443,-2.4889,-2.544,-2.6221,-2.7167,-2.8218,-2.8953,-2.9458,-2.9986,-3.0193,-3.0124,0.0,-2.9802,-3.0216,-3.0216,0.0,0.0,-2.8903,-2.9286,0.0,0.0,0.0,0.0,0.0,0.0,0.0,0.0,0.0,0.0,-2.4076,0.0,0.0,0.0,0.0,-2.1528,0.0,0.0,0.0,0.0,0.0,0.0,0.0,0.0,0.0,0.0,0.0,0.0,0.0,0.0,0.0,0.0,0.0,0.0,0.0,-2.1911,0.0,-2.2584,-2.4218,-2.5168,-2.5168,-2.5168,-2.5168,-2.5168,-2.4735,-2.4507,-2.4487,-2.3841,-2.3513,-2.3509,-2.288,-2.2546,-2.2553,-2.2606,-2.2603,-2.2603,-2.2603,-2.2603,-2.2603,-2.2603,-2.2603,-2.2603,-2.2603,-2.2603,-2.2654,-2.3948,-2.3948,-2.3948,-2.3948,-2.4476,-2.5716,-2.8103,-2.9757,-3.1823,0.0,-3.5703,0.0,0.0,-3.9928,-3.9928,0.0,0.0,-3.715,-3.6323,-3.3591,0.0,0.0,0.0,-2.792,0.0,0.0,0.0,-2.521,-2.4522,-2.4361,-2.4659,-2.4338,-2.4292,-2.4476,-2.5325,-2.6083,0.0,0.0,0.0,0.0,0.0,-3.0422,-3.0698,0.0,0.0,-3.0216,-3.0216,-3.0216,0.0,-2.9738,-2.9897,-3.0056,-2.9169,-2.8714,-2.8348,-2.7668,-2.7069,0.0,0.0,0.0,-2.6729,-2.4311,0.0,0.0,0.0,0.0,0.0,0.0,0.0,0.0,0.0,0.0,0.0,0.0,0.0,0.0,0.0,0.0,0.0,0.0,0.0,0.0,0.0,0.0,0.0,-2.1354,-2.2105,-2.2501,0.0,-2.3908,-2.459,-2.4343,-2.459,-2.4735,-2.4735,-2.4569,-2.4272,-2.3841,-2.3624,-2.3013,-2.2087,-2.2098,-2.1966,-2.1804,-2.2051,-2.2362,-2.2603,-2.2603,-2.2603,-2.2603,-2.2603,-2.2603,-2.2603,-2.2603,-2.2603,-2.2688,-2.4499,-2.4315,-2.42,-2.42,-2.505,-2.6473,-2.8654,-3.1479,-3.4326,0.0,-3.8826,0.0,-4.3349,0.0,-4.2936,0.0,-4.1765,-4.0089,-3.8206,-3.6415,0.0,-3.3086,-3.1616,0.0,0.0,0.0,0.0,0.0,0.0,-2.4981,-2.4912,-2.443,-2.42,-2.4246,-2.544,-2.6175,-2.6605,-2.8264,-2.9183,0.0,0.0,-3.0422,0.0,0.0,-3.0331,0.0,0.0,-3.0216,-3.0216,-3.0216,-3.0216,-3.017,-2.9848,-2.9301,-2.8756,-2.8436,-2.7989,-2.7654,-2.7654,-2.7955,0.0,0.0,-2.5147,0.0,-2.1984,0.0,0.0,0.0,0.0,0.0,0.0,0.0,0.0,0.0,0.0,0.0,0.0,0.0,0.0,0.0,0.0,0.0,0.0,0.0,-1.9353,-2.0463,-2.1044,-2.1377,0.0,0.0,-2.4012,-2.3888,-2.4259,-2.4569,-2.4735,-2.4569,-2.4143,-2.3493,-2.3232,-2.2511,-2.1419,-2.1496,-2.1485,-2.1422,-2.1833,-2.221,-2.2603,-2.2603,-2.2603,-2.2603,-2.2603,-2.2603,-2.2603,-2.2603,-2.2774,-2.3083,-2.5004,-2.4613,-2.4361,-2.4407,-2.5991,0.0,0.0,0.0,-3.6691,0.0,-4.0686,-4.3165,-4.4727,-4.4405,-4.4267,-4.475,-4.4245,-4.2454,-3.9101,-3.9216,0.0,0.0,-3.3798,-3.2535,-3.0445,0.0,0.0,0.0,0.0,-2.5922,-2.4912,-2.443,-2.42,-2.4292,-2.58,0.0,-2.6674,-2.8609,-2.9481,-2.9573,-3.0032,-3.0239,-3.0262,-3.0216,0.0,-3.095,-3.0399,-3.0216,-3.0216,-3.0216,-3.0216,-3.0216,-3.0216,-2.9894,-2.9527,-2.9527,-2.9527,-2.9527,-2.9527,-2.8858,-2.7984,-2.7058,0.0,0.0,0.0,0.0,-2.3935,0.0,0.0,0.0,0.0,0.0,0.0,0.0,0.0,0.0,0.0,0.0,0.0,0.0,0.0,0.0,0.0,-1.759,-1.7382,-1.8148,-1.886,-1.9318,0.0,0.0,0.0,-2.3867,-2.4302,-2.4714,-2.5148,-2.4714,-2.4143,-2.345,-2.2711,-2.205,-2.1329,-2.1026,-2.1079,-2.1422,-2.1833,-2.221,-2.2603,-2.2603,-2.2603,-2.2603,-2.2603,-2.2603,-2.262,-2.262,-2.3083,-2.377,-2.4935,-2.5739,-2.668,0.0,-2.7667,-2.8677,0.0,0.0,0.0,0.0,-4.4061,-4.6564,-4.8837,-4.8286,-4.7666,-4.7436,-4.5921,0.0,0.0,0.0,0.0,-3.8631,-3.7288,-3.5497,-3.3086,-3.1823,0.0,-2.7598,0.0,-2.5555,-2.4912,-2.443,-2.4384,-2.4774,-2.5555,-2.6335,-2.7116,-2.8379,-2.9343,-3.0032,-3.017,-3.0445,0.0,0.0,-3.0537,-3.095,-3.0399,-3.0216,-3.0216,-3.0216,-3.0216,-3.0216,-3.0216,-3.0124,-3.0032,-3.0032,-3.0032,-3.0032,-3.0032,-2.9829,-2.9331,-2.79,-2.7239,-2.6475,0.0,0.0,0.0,0.0,0.0,0.0,0.0,0.0,0.0,0.0,0.0,0.0,0.0,0.0,0.0,0.0,0.0,0.0,0.0,0.0,-1.6875,-1.789,-1.8656,0.0,0.0,0.0,0.0,-2.337,-2.4136,-2.4549,-2.4673,-2.4549,-2.3884,-2.2668,-2.2492,-2.1739,-2.0581,-2.0795,-2.1079,-2.1422,-2.1833,-2.221,-2.2603,-2.2603,-2.2603,-2.2603,-2.2603,-2.2774,-2.2963,-2.2963,-2.3271,-2.377,-2.6221,-2.7667,-2.9068,-2.9619,0.0,0.0,-3.3843,-3.5933,0.0,-4.2591,-4.5507,0.0,-4.9158,-4.9388,-4.925,-4.8745,-4.7069,0.0,-4.4658,0.0,0.0,-4.0456,-3.9147,-3.7265,-3.4716,-3.3201,0.0,-2.8654,0.0,0.0,-2.5578,-2.4843,-2.4774,-2.5279,-2.5807,-2.6358,-2.6978,-2.8195,-2.9412,-3.0537,-3.0308,0.0,0.0,-3.0331,-3.0399,-3.0629,-3.0331,-3.0216,-3.0216,-3.0216,-3.0216,-3.0216,-3.0216,-3.0216,-3.0216,-3.0216,-3.0216,-3.0216,-3.0216,-3.0216,-2.9942,-2.8836,-2.8589,-2.8277,-2.6663,-2.6222,-2.5939,0.0,0.0,0.0,0.0,0.0,0.0,0.0,0.0,0.0,0.0,0.0,0.0,0.0,0.0,0.0,0.0,0.0,0.0,0.0,0.0,0.0,0.0,0.0,0.0,0.0,-2.3887,-2.4507,-2.4507,-2.4693,-2.4078,-2.2669,-2.2479,-2.1742,-2.0549,-2.0771,-2.1079,-2.1422,-2.1833,-2.221,-2.2603,-2.2603,-2.2603,-2.2603,-2.2603,-2.2723,-2.2895,-2.3049,-2.346,-2.3973,-2.8172,-2.9871,0.0,0.0,0.0,0.0,0.0,-3.8436,0.0,-4.3234,0.0,-4.801,-4.7987,-4.9066,-4.9617,-4.9158,0.0,-4.6311,-4.4979,-4.4222,-4.3028,-4.1283,-4.0112,-3.839,-3.5979,-3.4326,0.0,0.0,0.0,0.0,-2.649,-2.5463,-2.5302,-2.583,-2.6306,0.0,0.0,-2.8195,-2.9573,-3.079,-3.0376,-3.0216,-3.0216,-3.0216,-3.0216,-3.0216,-3.0216,-3.0216,-3.0216,-3.0216,-3.0216,-3.0216,-3.0216,-3.0216,-3.0216,-3.0216,-3.0216,-3.0216,-3.0216,-3.0216,-3.008,-2.9715,-2.9897,-2.9988,-2.9071,-2.851,-2.7891,-2.6899,-2.5363,0.0,0.0,0.0,0.0,0.0,0.0,0.0,0.0,0.0,0.0,0.0,0.0,0.0,0.0,0.0,0.0,0.0,0.0,0.0,0.0,0.0,0.0,0.0,-2.368,0.0,-2.4673,0.0,-2.446,-2.3153,-2.2706,-2.1961,-2.096,-2.0994,-2.1199,-2.1508,-2.1901,-2.2294,-2.2603,-2.2603,-2.2603,-2.2603,-2.2603,-2.262,-2.2705,-2.2997,-2.3597,-2.4227,-2.9642,-3.1111,-3.2236,0.0,0.0,-3.8275,-4.0869,-4.2913,-4.4725,-4.6035,-4.8492,-5.0099,-5.0099,-4.9594,-4.9204,-4.9112,-4.7734,0.0,0.0,0.0,0.0,-4.3303,-4.1535,-3.9767,-3.8091,-3.5749,-3.3292,0.0,0.0,0.0,-2.649,-2.5853,-2.5853,-2.6375,-2.6467,0.0,-2.7824,-2.8884,0.0,-2.978,-3.0101,-3.0216,-3.0216,-3.0216,-3.0216,-3.0216,-3.0216,-3.0216,-3.0216,-3.0216,-3.0216,-3.0216,-3.0216,-3.0216,-3.0216,-3.0216,-3.0216,-3.0216,-3.0216,-3.0216,-3.017,-3.008,-3.0125,-3.008,-2.9485,-2.8936,-2.8324,-2.739,-2.6316,-2.518,-2.3889,0.0,0.0,0.0,0.0,0.0,0.0,0.0,0.0,0.0,0.0,0.0,0.0,0.0,0.0,0.0,0.0,0.0,0.0,0.0,0.0,0.0,0.0,0.0,0.0,0.0,0.0,-2.4051,-2.3248,-2.2318,-2.1319,-2.1645,-2.1833,-2.1919,-2.2345,-2.2534,-2.2603,-2.2603,-2.2603,-2.2603,-2.2603,-2.2791,-2.3032,-2.3083,-2.3597,-2.4193,-3.1708,0.0,-3.43,0.0,0.0,0.0,0.0,-4.6866,0.0,-4.7344,-4.8102,-4.8676,-4.8676,-4.8928,-4.9112,-4.9112,-4.7734,-4.6885,-4.6885,-4.4956,-4.3693,-4.3441,-4.1765,0.0,-3.8206,-3.568,-3.3269,-3.1019,0.0,0.0,0.0,-2.6335,-2.6381,-2.6864,-2.6864,-2.7575,0.0,0.0,0.0,-3.0285,-3.0239,-3.0216,-3.0216,-3.0216,-3.0216,-3.0216,-3.0216,-3.0216,-3.0216,-3.0216,-3.0216,-3.0216,-3.0216,-3.0216,-3.0216,-3.0216,-3.0216,-3.0216,-3.0216,-3.0216,-3.0216,-3.0216,-3.0216,-3.008,-2.9623,-2.9301,-2.8778,-2.7565,-2.6732,-2.5853,-2.4479,-2.3158,0.0,0.0,0.0,0.0,0.0,0.0,0.0,0.0,0.0,0.0,0.0,0.0,0.0,0.0,0.0,0.0,0.0,0.0,0.0,0.0,0.0,0.0,0.0,0.0,0.0,-2.3607,-2.2999,-2.238,-2.173,-2.1901,-2.2004,-2.2021,-2.2431,-2.2603,-2.2603,-2.2603,-2.2603,-2.2603,-2.2603,-2.2705,-2.2826,-2.2826,-2.3288,-2.3973,-3.4349,-3.5221,0.0,0.0,-4.2063,0.0,-4.7559,-4.974,-5.0233,-4.8331,-4.778,-4.7482,-4.7367,-4.8308,-4.8905,-4.8814,-4.762,-4.6839,-4.6724,-4.4887,-4.3648,-4.3257,-4.1696,-4.002,-3.8298,-3.568,-3.3407,0.0,0.0,0.0,0.0,0.0,0.0,0.0,0.0,0.0,0.0,0.0,-2.9825,-3.0813,-3.0514,-3.0376,-3.0376,-3.0262,-3.0216,-3.0216,-3.0216,-3.0216,-3.0216,-3.0216,-3.0216,-3.0216,-3.0216,-3.0216,-3.0216,-3.0216,-3.0216,-3.0216,-3.0216,-3.0216,-3.0216,-3.0216,-3.0216,-3.008,-2.9715,-2.9485,-2.9006,-2.7831,-2.7062,-2.6178,-2.471,-2.398,0.0,0.0,0.0,0.0,0.0,0.0,0.0,0.0,0.0,0.0,0.0,0.0,0.0,0.0,0.0,0.0,0.0,0.0,0.0,0.0,0.0,0.0,-2.4069,0.0,-2.355,0.0,-2.2841,-2.2456,-2.2107,-2.2107,-2.2107,-2.2124,-2.2465,-2.2603,-2.2603,-2.2603,-2.2603,-2.2603,-2.2603,-2.2637,-2.2723,-2.2723,-2.3186,-2.3836,0.0,0.0,0.0,0.0,0.0,0.0,0.0,-5.0626,-5.1503,-4.9927,-4.9663,-4.9434,-4.8951,-4.863,-4.8286,-4.7754,-4.7229,-4.6678,-4.6219,-4.4704,-4.3785,-4.3739,-4.1857,-4.0502,-3.9919,-3.692,-3.4624,0.0,0.0,0.0,0.0,0.0,0.0,0.0,0.0,0.0,0.0,-3.0032,-3.0606,-3.0331,-3.0767,-3.095,-3.0882,-3.0399,-3.0216,-3.0216,-3.0216,-3.0216,-3.0216,-3.0216,-3.0216,-3.0216,-3.0216,-3.0216,-3.0216,-3.0216,-3.0216,-3.0216,-3.0216,-3.0216,-3.0216,-3.0216,-3.0216,-3.017,-3.0125,-2.9417,-2.8749,-2.8612,-2.7505,-2.6115,-2.454,-2.4669,-2.4638,0.0,0.0,0.0,0.0,0.0,0.0,0.0,0.0,0.0,0.0,0.0,0.0,0.0,0.0,0.0,0.0,0.0,0.0,0.0,0.0,-2.3711,-2.4241,-2.3796,0.0,-2.4256,-2.3381,-2.2796,-2.2551,-2.2551,-2.2551,-2.2551,-2.2585,-2.2603,-2.2603,-2.2603,-2.2603,-2.2603,-2.2603,-2.2808,-2.3066,-2.3066,-2.3528,-2.4179,0.0,0.0,0.0,0.0,0.0,0.0,0.0,-5.2161,-5.1679,-4.9674,-4.9747,-4.9686,-4.8772,-4.824,-4.7734,-4.7229,-4.7,-4.6541,-4.5714,-4.4497,-4.3533,-4.2959,-4.1581,-4.0433,-3.9629,-3.7219,-3.5221,0.0,0.0,0.0,0.0,0.0,0.0,0.0,0.0,-2.9619,-2.9389,-3.0537,-3.1065,-3.1134,-3.1042,-3.1019,-3.095,-3.0422,-3.0216,-3.0216,-3.0216,-3.0216,-3.0216,-3.0216,-3.0216,-3.0216,-3.0216,-3.0216,-3.0216,-3.0216,-3.0216,-3.0216,-3.0216,-3.0216,-3.0216,-3.0216,-3.0216,-3.0216,-3.0216,-2.9669,-2.9117,-2.8771,-2.7568,-2.6326,-2.5394,-2.5221,-2.5039,0.0,0.0,0.0,0.0,0.0,0.0,0.0,0.0,0.0,0.0,0.0,0.0,0.0,0.0,0.0,0.0,0.0,0.0,-2.2104,0.0,-2.2625,-2.3805,-2.3015,-2.2828,-2.3316,-2.295,-2.2698,-2.2603,-2.2603,-2.2603,-2.2603,-2.2603,-2.2603,-2.2603,-2.2603,-2.2603,-2.262,-2.2792,-2.298,-2.3134,-2.3357,-2.3785,-2.4176,-4.4559,0.0,-4.7419,0.0,-5.1264,-5.1488,-5.3615,-5.2695,-5.1166,-4.9634,-4.9533,-4.9298,-4.8499,-4.7941,-4.7436,-4.6908,-4.6747,-4.6219,-4.5209,-4.429,-4.3441,-4.2591,-4.1443,0.0,-3.9767,-3.7747,-3.6117,-3.49,-3.3247,0.0,0.0,0.0,0.0,0.0,-2.994,-3.0399,-3.0491,-3.1157,-3.1662,-3.1938,-3.1433,-3.1226,-3.1157,-3.0468,-3.0216,-3.0216,-3.0216,-3.0216,-3.0216,-3.0216,-3.0216,-3.0216,-3.0216,-3.0216,-3.0216,-3.0216,-3.0216,-3.0216,-3.0216,-3.0216,-3.0216,-3.0216,-3.0216,-3.017,-3.0034,-2.9623,-2.9071,-2.8398,-2.7509,-2.6687,-2.621,-2.5834,-2.5544,0.0,0.0,0.0,0.0,0.0,0.0,0.0,-2.0328,-1.9496,-1.8129,0.0,0.0,0.0,0.0,0.0,0.0,0.0,0.0,0.0,0.0,0.0,0.0,0.0,-2.2345,-2.2603,-2.2603,-2.2603,-2.2603,-2.2603,-2.2603,-2.2603,-2.2603,-2.2603,-2.2603,-2.2603,-2.2603,-2.2637,-2.2963,-2.3186,-2.3323,-2.3699,-2.4076,-2.4401,-4.7332,-4.8573,-4.9829,-5.1344,-5.1578,-5.1944,-5.3129,-5.1536,-5.0151,-5.0175,-4.9176,-4.8497,-4.843,-4.7941,-4.7436,-4.6908,-4.6426,-4.5691,-4.4681,-4.4107,-4.3602,0.0,0.0,-4.0823,-4.08,-3.8803,-3.7517,-3.6933,0.0,0.0,-3.1779,0.0,0.0,-2.9573,-3.157,-3.1915,-3.1065,-3.2053,-3.2466,-3.2443,-3.2009,-3.1802,-3.1687,-3.0606,-3.0216,-3.0216,-3.0216,-3.0216,-3.0216,-3.0216,-3.0216,-3.0216,-3.0216,-3.0216,-3.0216,-3.0216,-3.0216,-3.0216,-3.0216,-3.0216,-3.0216,-3.0216,-3.0216,-3.008,-2.9623,-2.9095,-2.8445,-2.7499,-2.7309,-2.7164,-2.6687,-2.6604,-2.6268,-2.5334,0.0,0.0,0.0,0.0,0.0,0.0,-2.2828,-2.2298,-1.9445,0.0,0.0,0.0,0.0,0.0,0.0,0.0,0.0,-2.0699,-2.1851,0.0,-2.2036,-2.2397,-2.2585,-2.2603,-2.2603,-2.2603,-2.2603,-2.2603,-2.2603,-2.2603,-2.2603,-2.2603,-2.2603,-2.2603,-2.2603,-2.2637,-2.2963,-2.3357,-2.3734,-2.4093,-2.447,-2.4812,-4.828,-4.9717,-5.1284,-5.2156,-5.2889,-5.2987,-5.1826,-5.1082,-5.0245,-4.9147,-4.8376,-4.7861,-4.7849,-4.7436,-4.677,0.0,-4.5691,-4.5163,0.0,-4.3602,-4.2798,-4.1604,-4.1076,-4.0502,-3.979,-3.8826,-3.7907,-3.6979,0.0,0.0,0.0,-3.2099,-3.1662,-3.1135,-3.2053,-3.2305,-3.2053,-3.2741,-3.304,-3.2994,-3.2466,-3.2259,-3.2239,-3.1525,-3.1065,-3.0767,-3.0767,-3.0537,-3.0216,-3.0216,-3.0216,-3.0216,-3.0216,-3.0216,-3.0216,-3.0216,-3.0216,-3.0216,-3.0216,-3.0216,-3.0216,-3.0216,-3.0216,-3.008,-2.9623,-2.8839,-2.8045,-2.7452,-2.7309,-2.7268,-2.7102,-2.6832,-2.6418,-2.5771,0.0,0.0,0.0,0.0,0.0,0.0,-2.1757,-2.1176,0.0,-1.9569,0.0,0.0,0.0,0.0,0.0,0.0,0.0,0.0,-2.1549,0.0,-2.2704,-2.2646,-2.2603,-2.2603,-2.2603,-2.274,-2.2946,-2.3238,-2.322,-2.2946,-2.3255,-2.3066,-2.262,-2.2826,-2.2929,-2.2963,-2.334,-2.3717,-2.411,-2.4487,-2.471,-2.4812,-4.9228,-5.0186,-5.1215,-5.1598,-5.2208,-5.2211,-5.0771,-4.9937,-4.9081,-4.8197,-4.7666,-4.7275,-4.7092,-4.6954,0.0,-4.5714,-4.5461,-4.491,-4.3877,-4.3533,-4.2683,-4.1168,-4.0915,-4.0433,-3.9607,0.0,0.0,-3.7609,-3.6025,-3.4395,-3.2787,-3.2581,-3.2328,-3.2053,-3.2558,-3.2787,-3.281,-3.3132,-3.3292,-3.3247,-3.2695,-3.2489,-3.2443,-3.2009,-3.1456,-3.1019,-3.1019,-3.0675,-3.0216,-3.0216,-3.0216,-3.0216,-3.0216,-3.0216,-3.0216,-3.0216,-3.0216,-3.0216,-3.0216,-3.0216,-3.0216,-3.0216,-3.0216,-3.0034,-2.9325,-2.8606,-2.7857,-2.7404,-2.7309,-2.7309,-2.7309,-2.6936,-2.6459,-2.6003,0.0,0.0,0.0,0.0,0.0,0.0,0.0,0.0,0.0,-2.027,0.0,0.0,0.0,0.0,0.0,0.0,0.0,-2.1164,-2.1657,0.0,-2.3029,-2.2891,-2.2877,-2.3014,-2.3014,-2.3135,-2.3323,-2.3615,-2.3545,-2.3357,-2.358,-2.3461,-2.3032,-2.322,-2.3323,-2.3357,-2.3734,-2.4025,-2.4227,-2.4675,-2.4812,-2.4812,-4.9793,-4.9952,0.0,0.0,-5.008,0.0,-4.9985,-4.8239,-4.7092,-4.7528,-4.7138,-4.6632,-4.6173,-4.6518,-4.6586,-4.6104,0.0,0.0,0.0,-4.3739,-4.3051,-4.1581,-4.1076,0.0,-4.008,-3.9078,-3.8527,-3.8436,-3.6002,-3.4303,-3.3315,-3.2787,-3.2535,-3.2558,-3.3063,-3.3292,-3.3292,-3.3292,-3.3292,-3.3247,-3.2741,-3.2535,-3.2489,-3.2101,-3.1547,-3.1065,-3.1111,-3.0744,-3.0285,-3.0285,-3.0285,-3.0262,-3.0239,-3.0239,-3.0262,-3.0239,-3.0216,-3.0216,-3.0262,-3.0285,-3.0285,-3.0285,-3.0216,-2.9943,-2.8998,-2.8459,-2.7941,-2.7446,-2.7351,-2.7351,-2.7309,-2.6957,-2.6501,-2.5958,-2.4966,-2.4319,-2.4483,0.0,0.0,0.0,0.0,0.0,0.0,-2.1482,-2.0998,0.0,0.0,0.0,0.0,0.0,0.0,-2.0942,-2.2036,-2.2791,-2.3151,-2.3151,-2.3323,-2.3718,-2.3752,-2.3752,-2.3752,-2.3787,-2.3734,-2.3751,-2.3768,-2.3734,-2.3718,-2.3752,-2.3752,-2.3787,-2.4093,-2.4193,-2.4316,-2.4675,-2.4812,-2.4812,0.0,0.0,-4.9357,-4.9322,-4.9716,-4.9716,-4.8928,-4.7993,-4.7367,-4.7092,-4.6609,-4.6265,-4.6127,-4.5875,-4.5668,-4.5553,-4.4704,-4.4061,-4.3831,-4.3096,-4.2178,-4.1053,-4.0892,-4.041,-3.9492,-3.8895,-3.7999,-3.6828,-3.5474,-3.4463,-3.3821,-3.3315,-3.3086,-3.3109,-3.3224,-3.3292,-3.3292,-3.3292,-3.3292,-3.3269,-3.3155,-3.3086,-3.3086,-3.2971,-3.2374,-3.1639,-3.2007,-3.157,-3.0836,-3.0836,-3.0836,-3.0744,-3.0354,-3.0491,-3.0744,-3.0331,-3.0216,-3.0308,-3.0721,-3.0836,-3.0836,-3.0836,-3.0488,-3.0158,-2.9917,-2.9424,-2.883,-2.7939,-2.7759,-2.7655,-2.7372,-2.7226,-2.6874,-2.5999,-2.5184,-2.4616,-2.4524,0.0,0.0,0.0,-2.3639,-2.3031,-2.267,-2.2171,-2.1621,0.0,0.0,0.0,0.0,0.0,-2.1968,-2.1747,-2.2311,-2.2911,-2.3528,-2.3562,-2.3614,-2.3699,-2.3973,-2.4093,-2.411,-2.4401,-2.4384,-2.4127,-2.4419,-2.4213,-2.3735,-2.3973,-2.4093,-2.411,-2.4142,-2.4364,-2.4693,-2.4778,-2.4812,-2.4812,-4.7397,-4.7907,-4.8446,-4.8446,-4.886,-4.8951,-4.8171,-4.762,-4.7183,-4.6908,-4.6426,-4.6127,-4.6127,-4.5875,-4.5507,-4.5048,-4.4497,-4.4061,-4.3831,-4.3096,-4.2132,-4.0869,-4.0823,-4.0249,-3.901,-3.8481,-3.7586,-3.6332,-3.529,-3.4647,-3.4349,-3.3614,-3.3292,-3.3292,-3.3292,-3.3292,-3.3292,-3.3292,-3.3292,-3.3292,-3.3292,-3.3292,-3.3292,-3.3292,-3.2787,-3.2121,-3.2397,-3.2007,-3.1364,-3.1364,-3.1203,-3.0996,-3.095,-3.0973,-3.0996,-3.095,-3.0928,-3.0973,-3.1272,-3.1364,-3.1364,-3.1341,-3.1105,-3.0794,-3.029,-2.9965,-2.9486,-2.8445,-2.8069,-2.7841,-2.7614,-2.7055,-2.6501,-2.5958,-2.4941,-2.4295,-2.4483,-2.328,0.0,-2.4102,-2.3255,-2.2676,-2.2972,-2.2398,-2.1917,-2.171,0.0,0.0,-2.1679,-2.2398,-2.2638,-2.2311,-2.2946,-2.3511,-2.3922,-2.411,-2.4127,-2.3956,-2.4316,-2.4449,-2.4504,-2.4727,-2.471,-2.4521,-2.4727,-2.4573,-2.4213,-2.4419,-2.4449,-2.4449,-2.4449,-2.4641,-2.4812,-2.4812,-2.4812,-2.4812,-4.7569,-4.7609,-4.7757,-4.7757,-4.8102,-4.8217,-4.7712,-4.7206,-4.6816,-4.6655,-4.6265,-4.6012,-4.6012,-4.6012,-4.5622,-4.4681,-4.4543,-4.4267,-4.3739,-4.3257,-4.2339,-4.0892,-4.0823,-4.0112,-3.8619,-3.7999,-3.7219,-3.6332,-3.529,-3.4808,-3.4785,-3.3752,-3.3292,-3.3292,-3.3292,-3.3292,-3.3292,-3.3292,-3.3292,-3.3292,-3.3292,-3.3292,-3.3292,-3.3292,-3.2948,-3.2489,-3.2581,-3.2282,-3.1917,-3.1917,-3.1593,-3.1295,-3.171,-3.1525,-3.1318,-3.1754,-3.1915,-3.1961,-3.1892,-3.1917,-3.1892,-3.1794,-3.1819,-3.1508,-3.0504,-3.028,-3.0012,-2.8932,-2.84,-2.809,-2.7945,-2.691,-2.6107,-2.6044,-2.4747,-2.3961,-2.4524,0.0,-2.3094,-2.4148,-2.3237,-2.2793,-2.3329,-2.2881,-2.2472,-2.2294,-2.2534,0.0,0.0,-2.2912,-2.3134,-2.286,-2.3734,-2.421,-2.4261,-2.4658,-2.4658,-2.4279,-2.4658,-2.4812,-2.4812,-2.4812,-2.4812,-2.4812,-2.4812,-2.4812,-2.4812,-2.4812,-2.4812,-2.4812,-2.4812,-2.4812,-2.4812,-2.4812,-2.4812,-2.4812,-4.6773,-4.7417,-4.8286,-4.8286,-4.8331,-4.8217,-4.7712,-4.7206,-4.6564,-4.5783,-4.553,-4.5484,-4.5484,-4.5484,-4.5232,-4.4658,-4.4199,-4.3716,-4.3234,-4.2729,-4.1971,-4.0869,-4.0823,-4.0112,-3.8619,-3.7632,-3.6851,-3.6332,-3.529,-3.4808,-3.4785,-3.3752,-3.3292,-3.3292,-3.3292,-3.3292,-3.3292,-3.3292,-3.3292,-3.3292,-3.3292,-3.3292,-3.3292,-3.3292,-3.2948,-3.2535,-3.2994,-3.281,-3.2374,-3.2374,-3.2328,-3.219,-3.1917,-3.1984,-3.2259,-3.2351,-3.2695,-3.2948,-3.2489,-3.2374,-3.2368,-3.2284,-3.1982,-3.1555,-3.0845,-3.0726,-3.0414,-2.9372,-2.9145,-2.8856,-2.8069,-2.7448,-2.6957,-2.6563,-2.5619,-2.4998,0.0,0.0,-2.4366,-2.5485,-2.5551,-2.5441,-2.5151,-2.5089,-2.4564,-2.3531,-2.3169,-2.3134,-2.3443,-2.3819,-2.4042,-2.3973,-2.4091,-2.4347,-2.4727,-2.4795,-2.4795,-2.4727,-2.4795,-2.4812,-2.4812,-2.4812,-2.4812,-2.4812,-2.4812,-2.4812,-2.4812,-2.4812,-2.4812,-2.4812,-2.4812,-2.4812,-2.4812,-2.4812,-2.4812,-2.4812,-4.7232,-4.7538,-4.7895,-4.762,-4.7574,-4.7413,-4.6908,-4.6632,-4.6196,-4.5461,-4.5438,-4.5438,-4.5438,-4.5438,-4.5163,-4.4658,-4.413,-4.3602,-4.3119,-4.2614,-4.1817,-4.0869,-4.0548,-3.9584,-3.7793,-3.7012,-3.6507,-3.6332,-3.529,-3.4808,-3.4785,-3.3752,-3.3292,-3.3292,-3.3292,-3.3292,-3.3292,-3.3292,-3.3292,-3.3292,-3.3292,-3.3292,-3.3292,-3.3292,-3.3132,-3.2948,-3.3201,-3.3132,-3.2925,-3.2925,-3.2718,-3.2489,-3.2607,-3.2535,-3.2535,-3.2833,-3.3086,-3.3224,-3.2971,-3.2704,-3.2429,-3.2404,-3.2012,-3.1497,-3.0949,-3.0785,-3.0587,-2.9808,-2.9477,-2.9104,-2.8421,-2.7531,-2.6957,-2.6978,-2.5771,0.0,0.0,-2.5123,-2.4906,-2.5865,-2.5954,-2.601,-2.6205,-2.5643,-2.5112,-2.4668,-2.3877,-2.358,-2.3956,-2.4145,-2.4279,-2.4538,-2.4501,-2.4641,-2.4812,-2.4812,-2.4812,-2.4812,-2.4812,-2.4812,-2.4812,-2.4812,-2.4812,-2.4812,-2.4812,-2.4812,-2.4812,-2.4812,-2.4812,-2.4812,-2.4812,-2.4812,-2.4812,-2.4812,-2.4812,-2.4812,-4.7654,-4.7353,-4.716,-4.677,-4.6701,-4.6564,-4.6173,-4.6127,-4.5944,-4.5415,-4.5438,-4.5438,-4.5438,-4.5438,-4.5094,-4.4474,-4.4038,-4.3556,-4.2959,-4.2454,-4.1765,-4.0869,-3.9997,-3.8803,-3.7242,-3.6599,-3.6332,-3.6332,-3.529,-3.4808,-3.4785,-3.3752,-3.3292,-3.3292,-3.3292,-3.3292,-3.3292,-3.3292,-3.3292,-3.3292,-3.3292,-3.3292,-3.3292,-3.3292,-3.3292,-3.3292,-3.3292,-3.3292,-3.3292,-3.3292,-3.3017,-3.2741,-3.3155,-3.2994,-3.2764,-3.3155,-3.3292,-3.3292,-3.3292,-3.2846,-3.237,-3.2269,-3.1812,-3.127,-3.0754,-3.0578,-3.0495,-3.0099,-2.9704,-2.9332,-2.8856,-2.7821,-2.7138,-2.7413,0.0,0.0,0.0,-2.6032,-2.5752,-2.6309,-2.6287,-2.6321,-2.6589,-2.5784,-2.5253,-2.5308,-2.447,-2.4059,-2.435,-2.4313,-2.4504,-2.4812,-2.4812,-2.4812,-2.4812,-2.4812,-2.4812,-2.4812,-2.4812,-2.4812,-2.4812,-2.4812,-2.4812,-2.4812,-2.4812,-2.4812,-2.4812,-2.4812,-2.4812,-2.4812,-2.4812,-2.4812,-2.4812,-2.4812,-2.4812,-2.4812,-4.738,-4.6514,-4.6219,-4.6173,-4.6173,-4.6173,-4.6127,-4.6127,-4.5944,-4.5415,-4.5438,-4.5438,-4.5438,-4.5438,-4.4956,-4.3946,-4.3831,-4.3395,-4.239,-4.1903,-4.1397,-4.0846,-3.8987,-3.7885,-3.7724,-3.6782,-3.6332,-3.6332,-3.529,-3.4808,-3.4785,-3.3752,-3.3292,-3.3292,-3.3292,-3.3292,-3.3292,-3.3292,-3.3292,-3.3292,-3.3292,-3.3292,-3.3292,-3.3292,-3.3292,-3.3292,-3.3292,-3.3292,-3.3292,-3.3292,-3.3247,-3.3224,-3.3269,-3.3247,-3.3224,-3.3269,-3.3292,-3.3292,-3.3292,-3.2846,-3.2269,-3.1761,-3.1249,-3.0754,-3.0203,-3.0047,-3.0047,-2.9994,-2.9973,-2.9808,-2.9332,-2.8814,-2.8338,-2.7945,0.0,0.0,-2.7247,-2.7483,-2.7554,-2.7271,-2.7574,-2.7381,-2.6263,-2.6064,-2.57,-2.4944,-2.4744,-2.4744,-2.4778,-2.4778,-2.4795,-2.4812,-2.4812,-2.4812,-2.4812,-2.4812,-2.4812,-2.4812,-2.4812,-2.4812,-2.4812,-2.4812,-2.4812,-2.4812,-2.4812,-2.4812,-2.4812,-2.4812,-2.4812,-2.4812,-2.4812,-2.4812,-2.4812,-2.4812,-2.4812,-2.4812,-4.7991,-4.6896,-4.6035,-4.5714,-4.5645,-4.5645,-4.5645,-4.5645,-4.5576,-4.5461,-4.5438,-4.5438,-4.5438,-4.5438,-4.5071,-4.4359,-4.3992,-4.351,-4.2844,-4.1742,-4.0732,-3.9928,-3.8527,-3.7632,-3.7333,-3.6622,-3.6332,-3.6332,-3.5588,-3.5244,-3.5221,-3.4555,-3.405,-3.3729,-3.3729,-3.3568,-3.3292,-3.3292,-3.3292,-3.3292,-3.3292,-3.3292,-3.3292,-3.3292,-3.3292,-3.3292,-3.3292,-3.3292,-3.3292,-3.3292,-3.3292,-3.3292,-3.3292,-3.3292,-3.3292,-3.3292,-3.3292,-3.322,-3.2846,-3.2342,-3.1761,-3.1249,-3.0703,-3.0235,-3.0047,-2.9994,-2.9994,-2.9994,-2.9994,-2.9849,-2.9394,-2.8938,-2.8649,-2.8773,0.0,-2.76,-2.84,-2.8421,-2.8155,-2.7787,-2.8172,-2.8013,-2.6987,-2.6409,-2.5972,-2.5606,-2.509,-2.4812,-2.4812,-2.4812,-2.4812,-2.4812,-2.4812,-2.4812,-2.4812,-2.4812,-2.4812,-2.4812,-2.4812,-2.4812,-2.4812,-2.4812,-2.4812,-2.4812,-2.4812,-2.4812,-2.4812,-2.4812,-2.4812,-2.4812,-2.4812,-2.4967,-2.5138,-2.4898,-2.4967,-2.5064,-4.7918,-4.6823,-4.5783,-4.5484,-4.5438,-4.5438,-4.5438,-4.5438,-4.5438,-4.5438,-4.5438,-4.5438,-4.5438,-4.5438,-4.5163,-4.4658,-4.413,-4.3602,-4.3119,-4.1673,-4.0364,-3.9354,-3.8481,-3.7793,-3.7288,-3.6759,-3.6438,-3.6332,-3.5772,-3.552,-3.552,-3.5014,-3.4601,-3.4257,-3.4257,-3.4073,-3.3752,-3.3568,-3.3614,-3.3729,-3.3407,-3.3384,-3.3499,-3.3338,-3.3292,-3.3292,-3.3292,-3.3292,-3.3292,-3.3292,-3.3292,-3.3292,-3.3292,-3.3292,-3.3292,-3.3292,-3.3292,-3.3119,-3.237,-3.1863,-3.1476,-3.094,-3.0391,-2.9994,-2.9994,-2.9994,-2.9994,-2.9994,-3.0118,-3.0077,-2.9601,-2.9373,-2.927,-2.929,-2.8628,-2.84,-2.9187,-2.9145,-2.8737,-2.7931,-2.8066,-2.7833,-2.6699,-2.6045,-2.5714,-2.5894,-2.5197,-2.4812,-2.4812,-2.4932,-2.5001,-2.5001,-2.5001,-2.5001,-2.5001,-2.4881,-2.4812,-2.4812,-2.4932,-2.5001,-2.5001,-2.5121,-2.5104,-2.5001,-2.5001,-2.4932,-2.4812,-2.4812,-2.4881,-2.5001,-2.5001,-2.5223,-2.5515,-2.5258,-2.5213,-2.5155,-4.6874,-4.6092,-4.5438,-4.5438,-4.5438,-4.5438,-4.5438,-4.5438,-4.5438,-4.5438,-4.5438,-4.5438,-4.5438,-4.5438,-4.5163,-4.4658,-4.413,-4.3602,-4.3096,-4.165,-4.0364,-3.9354,-3.8849,-3.8321,-3.7793,-3.7288,-3.6782,-3.6332,-3.5772,-3.552,-3.552,-3.5037,-3.4808,-3.4808,-3.4808,-3.4808,-3.4762,-3.4234,-3.4303,-3.4716,-3.3706,-3.3568,-3.3958,-3.3476,-3.3292,-3.3292,-3.3292,-3.3292,-3.3292,-3.3292,-3.3292,-3.3292,-3.3292,-3.3292,-3.3292,-3.3292,-3.3292,-3.3042,-3.1907,-3.1578,-3.1476,-3.094,-3.0391,-2.9994,-3.0015,-3.0015,-3.0015,-3.0015,-3.0367,-3.0553,-3.0098,-3.0387,-3.0387,-2.9477,-2.9704,-2.9849,-2.9394,-2.9704,-2.9343,-2.7599,-2.7384,-2.6754,-2.4979,-2.483,-2.4984,-2.54,-2.5035,-2.483,-2.483,-2.5172,-2.5378,-2.5378,-2.5378,-2.5378,-2.5378,-2.5018,-2.483,-2.483,-2.5206,-2.5378,-2.5451,-2.5771,-2.5737,-2.5378,-2.5378,-2.5172,-2.483,-2.483,-2.5052,-2.5434,-2.5378,-2.56,-2.5885,-2.5885,-2.5536,-2.4944,-4.6741,-4.6092,-4.5438,-4.5438,-4.5438,-4.5438,-4.5438,-4.5438,-4.5438,-4.5438,-4.5438,-4.5438,-4.5438,-4.5438,-4.5163,-4.4658,-4.413,-4.3142,-4.1604,-4.1076,-4.0364,-3.9354,-3.8481,-3.7953,-3.7793,-3.6943,-3.6415,-3.6332,-3.6117,-3.6048,-3.6048,-3.591,-3.5634,-3.5313,-3.5313,-3.5106,-3.4785,-3.4624,-3.4647,-3.4762,-3.4463,-3.444,-3.4555,-3.4395,-3.4349,-3.4303,-3.3935,-3.3798,-3.3798,-3.3798,-3.3798,-3.3843,-3.4234,-3.4349,-3.4349,-3.4349,-3.4038,-3.3548,-3.2845,-3.2317,-3.1806,-3.0979,-3.063,-3.0574,-3.0884,-3.0967,-3.0967,-3.0967,-3.1071,-3.1133,-3.0988,-3.1071,-3.1091,-3.0801,-3.0884,-3.0926,-3.0781,-3.0594,-3.0097,-2.8928,-2.7953,-2.6952,-2.5826,-2.5426,-2.5138,-2.5001,-2.5121,-2.5326,-2.5526,-2.5703,-2.5771,-2.5771,-2.5771,-2.5771,-2.5771,-2.5395,-2.5206,-2.5206,-2.5583,-2.5771,-2.5771,-2.5833,-2.5874,-2.5771,-2.5771,-2.5703,-2.5543,-2.5543,-2.5515,-2.5395,-2.5669,-2.584,-2.5885,-2.5402,-2.5277,-2.5113,-4.6227,-4.5822,-4.5438,-4.5438,-4.5438,-4.5438,-4.5438,-4.5438,-4.5438,-4.5438,-4.5438,-4.5438,-4.5438,-4.5438,-4.5163,-4.4658,-4.3946,-4.2844,-4.1214,-4.0938,-4.0456,-3.9629,-3.8642,-3.7999,-3.7793,-3.7196,-3.6668,-3.6332,-3.6332,-3.6332,-3.6332,-3.6332,-3.6117,-3.5818,-3.5818,-3.5657,-3.5359,-3.5175,-3.5198,-3.5336,-3.4946,-3.4923,-3.506,-3.4877,-3.4808,-3.4762,-3.444,-3.4326,-3.4326,-3.4326,-3.4326,-3.4372,-3.4693,-3.4808,-3.4808,-3.4808,-3.4366,-3.3785,-3.3231,-3.2642,-3.2027,-3.14,-3.1091,-3.1029,-3.1319,-3.1381,-3.1381,-3.1381,-3.1526,-3.1588,-3.1402,-3.1526,-3.1588,-3.1402,-3.1381,-3.1319,-3.1133,-3.1029,-3.056,-2.9545,-2.8501,-2.7547,-2.6662,-2.5957,-2.5497,-2.5275,-2.56,-2.584,-2.5885,-2.608,-2.6165,-2.6165,-2.6165,-2.6165,-2.6165,-2.5925,-2.5737,-2.56,-2.5977,-2.6165,-2.6165,-2.6319,-2.6302,-2.6165,-2.6165,-2.608,-2.5867,-2.5771,-2.5754,-2.5823,-2.5908,-2.5938,-2.5898,-2.5542,-2.5196,-2.4767,-4.5438,-4.5438,-4.5438,-4.5438,-4.5438,-4.5438,-4.5438,-4.5438,-4.5438,-4.5438,-4.5438,-4.5438,-4.5438,-4.5438,-4.5163,-4.4658,-4.3671,-4.266,-4.165,-4.1099,-4.0594,-4.0126,-3.9147,-3.8413,-3.7862,-3.777,-3.7242,-3.6332,-3.6332,-3.6332,-3.6332,-3.6332,-3.6332,-3.6332,-3.6332,-3.6332,-3.6286,-3.5772,-3.5841,-3.624,-3.529,-3.5198,-3.5543,-3.5106,-3.4923,-3.4923,-3.4877,-3.4854,-3.4854,-3.4854,-3.49,-3.4923,-3.4923,-3.4923,-3.4923,-3.487,-3.4449,-3.3843,-3.3309,-3.2717,-3.2226,-3.2114,-3.1795,-3.1505,-3.1505,-3.1505,-3.1505,-3.1505,-3.1816,-3.1981,-3.1567,-3.1836,-3.1905,-3.1567,-3.1505,-3.136,-3.0926,-3.1195,-3.1004,-2.9793,-2.9003,-2.8314,-2.7518,-2.6504,-2.5902,-2.597,-2.6319,-2.6354,-2.6004,-2.6354,-2.6542,-2.6542,-2.6542,-2.6542,-2.6542,-2.6542,-2.6354,-2.5936,-2.6354,-2.6542,-2.6559,-2.6919,-2.6884,-2.6542,-2.6542,-2.6336,-2.5902,-2.5617,-2.5857,-2.6405,-2.6055,-2.5932,-2.6034,-2.5945,-2.5149,-2.4054,-4.5438,-4.5438,-4.5438,-4.5438,-4.5438,-4.5438,-4.5438,-4.5438,-4.5438,-4.5438,-4.5438,-4.5438,-4.5438,-4.5438,-4.5163,-4.4658,-4.3671,-4.266,-4.165,-4.1099,-4.0594,-4.0126,-3.9469,-3.8918,-3.8436,-3.7609,-3.6897,-3.6332,-3.6332,-3.6332,-3.6332,-3.6332,-3.6332,-3.6332,-3.6332,-3.6332,-3.6309,-3.6217,-3.6162,-3.6309,-3.6025,-3.6025,-3.6094,-3.5979,-3.5956,-3.591,-3.5497,-3.5359,-3.5359,-3.5359,-3.5634,-3.5956,-3.5956,-3.5956,-3.5902,-3.5391,-3.4845,-3.424,-3.3652,-3.3036,-3.2571,-3.2561,-3.2499,-3.2437,-3.2437,-3.2437,-3.2437,-3.2437,-3.252,-3.2483,-3.2457,-3.252,-3.2483,-3.2457,-3.2437,-3.2395,-3.2313,-3.2064,-3.1746,-3.1476,-2.9744,-2.854,-2.8352,-2.6831,-2.6182,-2.6782,-2.661,-2.6593,-2.6816,-2.6902,-2.6953,-2.6953,-2.6953,-2.6953,-2.6953,-2.6953,-2.6747,-2.6371,-2.6765,-2.6953,-2.6953,-2.7039,-2.7021,-2.6953,-2.6953,-2.673,-2.6354,-2.6285,-2.6165,-2.6021,-2.5696,-2.5582,-2.5507,-2.4808,-2.4348,-2.3993,-4.5438,-4.5438,-4.5438,-4.5438,-4.5438,-4.5438,-4.5438,-4.5438,-4.5438,-4.5438,-4.5438,-4.5438,-4.5438,-4.514,-4.4704,-4.3946,-4.3165,-4.25,-4.1971,-4.1466,-4.0961,-4.0456,-3.9928,-3.9331,-3.8596,-3.7793,-3.715,-3.6622,-3.6392,-3.6332,-3.6332,-3.6332,-3.6332,-3.6332,-3.6332,-3.6332,-3.6332,-3.6332,-3.6332,-3.6332,-3.6332,-3.6332,-3.6332,-3.6332,-3.6332,-3.6286,-3.5979,-3.5887,-3.5887,-3.5887,-3.6048,-3.6332,-3.6332,-3.6091,-3.5817,-3.5488,-3.4769,-3.4009,-3.3671,-3.3182,-3.2669,-3.2669,-3.2669,-3.2669,-3.2669,-3.2669,-3.2669,-3.2669,-3.2669,-3.2669,-3.2669,-3.2669,-3.2669,-3.2669,-3.2669,-3.2607,-3.238,-3.2339,-3.2235,-3.2008,-3.0744,-2.9527,-2.8663,-2.7282,-2.6645,-2.7039,-2.6884,-2.6867,-2.7073,-2.7073,-2.7073,-2.7073,-2.7073,-2.7073,-2.7073,-2.7073,-2.697,-2.6765,-2.697,-2.7073,-2.7073,-2.7073,-2.7073,-2.7073,-2.7073,-2.6953,-2.6747,-2.6559,-2.6296,-2.5939,-2.5658,-2.5217,-2.4788,-2.4286,-2.3914,-2.3527,-4.5438,-4.5438,-4.5438,-4.5438,-4.5438,-4.5438,-4.5438,-4.5507,-4.5461,-4.5438,-4.5507,-4.5461,-4.5438,-4.4819,-4.4107,-4.3165,-4.2637,-4.2275,-4.2275,-4.1765,-4.126,-4.0846,-4.0249,-3.9538,-3.8734,-3.8114,-3.754,-3.6979,-3.653,-3.6332,-3.6332,-3.6332,-3.6332,-3.6332,-3.6332,-3.6332,-3.6332,-3.6332,-3.6332,-3.6332,-3.6332,-3.6332,-3.6332,-3.6332,-3.6332,-3.6332,-3.6332,-3.6332,-3.6332,-3.6332,-3.6332,-3.6332,-3.6332,-3.5872,-3.5378,-3.5268,-3.4435,-3.3579,-3.3466,-3.3069,-3.2669,-3.2669,-3.2669,-3.2669,-3.2669,-3.2669,-3.2669,-3.2669,-3.2669,-3.2669,-3.2669,-3.2669,-3.2669,-3.2669,-3.2669,-3.2545,-3.2153,-3.2421,-3.2582,-3.2153,-3.1489,-3.0412,-2.8659,-2.7659,-2.7073,-2.7073,-2.7073,-2.7073,-2.7073,-2.7073,-2.7073,-2.7073,-2.7073,-2.7073,-2.7073,-2.7073,-2.7073,-2.7073,-2.7073,-2.7073,-2.7073,-2.7073,-2.7073,-2.7073,-2.7073,-2.7039,-2.6953,-2.6628,-2.6363,-2.6133,-2.5534,-2.4907,-2.4239,-2.3976,-2.3604,-2.3106,-4.5438,-4.5438,-4.5438,-4.5438,-4.5438,-4.5438,-4.5438,-4.5737,-4.5852,-4.5484,-4.5737,-4.5852,-4.5484,-4.4497,-4.3693,-4.3142,-4.2637,-4.2275,-4.2275,-4.1443,-4.0892,-4.0823,-3.9905,-3.9331,-3.9216,-3.8275,-3.754,-3.6979,-3.653,-3.6332,-3.6332,-3.6332,-3.6332,-3.6332,-3.6332,-3.6332,-3.6332,-3.6332,-3.6332,-3.6332,-3.6332,-3.6332,-3.6332,-3.6332,-3.6332,-3.6332,-3.6332,-3.6332,-3.6332,-3.6332,-3.6332,-3.6332,-3.6332,-3.5872,-3.5323,-3.4747,-3.4155,-3.3466,-3.2955,-3.2784,-3.2669,-3.2669,-3.2669,-3.2669,-3.2669,-3.2669,-3.2669,-3.2669,-3.2669,-3.2669,-3.2669,-3.2669,-3.2669,-3.2669,-3.2669,-3.2649,-3.2587,-3.2628,-3.2706,-3.2587,-3.1149,-2.9648,-2.86,-2.7659,-2.7073,-2.7073,-2.7073,-2.7073,-2.7073,-2.7073,-2.7073,-2.7073,-2.7073,-2.7073,-2.7073,-2.7073,-2.7073,-2.7073,-2.7073,-2.7073,-2.7073,-2.7073,-2.7073,-2.7073,-2.7073,-2.6884,-2.6559,-2.6508,-2.6465,-2.6321,-2.512,-2.4785,-2.4795,-2.3666,-2.3168,-2.3106,-4.5438,-4.5438,-4.5438,-4.5438,-4.5438,-4.5461,-4.5737,-4.5737,-4.5714,-4.5783,-4.5737,-4.5599,-4.5461,-4.4428,-4.351,-4.2729,-4.2477,-4.2275,-4.2275,-4.165,-4.1122,-4.0823,-4.0112,-3.9584,-3.9308,-3.8596,-3.8114,-3.7907,-3.6805,-3.6332,-3.6332,-3.6332,-3.6332,-3.6332,-3.6332,-3.6332,-3.6332,-3.6332,-3.6332,-3.6332,-3.6332,-3.6332,-3.6332,-3.6332,-3.6332,-3.6332,-3.6332,-3.6332,-3.6332,-3.6332,-3.6332,-3.6332,-3.6332,-3.5653,-3.4858,-3.458,-3.3818,-3.3069,-3.2784,-3.2669,-3.2669,-3.2669,-3.2669,-3.2669,-3.2669,-3.2669,-3.2669,-3.2669,-3.2669,-3.2669,-3.2669,-3.2669,-3.2669,-3.2669,-3.2669,-3.2669,-3.2669,-3.2669,-3.2669,-3.2669,-3.1073,-2.9766,-2.9294,-2.796,-2.7073,-2.7073,-2.7073,-2.7073,-2.7073,-2.7073,-2.7073,-2.7073,-2.7073,-2.7073,-2.7073,-2.7073,-2.7073,-2.7073,-2.7073,-2.7073,-2.7073,-2.7073,-2.7073,-2.7073,-2.7073,-2.697,-2.6816,-2.6816,-2.6395,-2.5654,-2.5048,-2.447,-2.3929,-2.3293,-2.3106,-2.3106]},{"header":{"parameterUnit":"m.s-1","parameterCategory":1,"la1":30.6,"la2":28.766,"lo1":-90.7593,"lo2":-88.6598,"dy":0.0162,"dx":0.0183,"nx":116,"ny":114,"refTime":"2023-03-14T18:00:00:Z","depth":0,"parameterNumber":3,"parameterNumberName":"V-component_of_WINDS"},"data":[0.0,0.0,0.0,0.0,0.0,0.0,0.0,0.0,0.0,0.0,0.0,0.0,0.0,0.0,0.0,0.0,0.0,0.0,0.0,0.0,0.0,0.0,0.0,0.0,0.0,0.0,0.0,0.0,0.0,0.0,0.0,0.0,0.0,0.0,0.0,0.0,0.0,0.0,0.0,0.0,0.0,0.0,0.0,0.0,0.0,0.0,0.0,0.0,0.0,0.0,0.0,0.0,0.0,0.0,0.0,0.0,0.0,0.0,0.0,0.0,0.0,0.0,0.0,0.0,0.0,0.0,0.0,0.0,0.0,0.0,0.0,0.0,0.0,0.0,0.0,0.0,0.0,0.0,0.0,0.0,0.0,0.0,0.0,0.0,0.0,0.0,0.0,0.0,0.0,0.0,0.0,0.0,0.0,0.0,0.0,0.0,0.0,0.0,0.0,0.0,0.0,0.0,0.0,0.0,0.0,0.0,0.0,0.0,0.0,0.0,0.0,0.0,0.0,0.0,0.0,0.0,0.0,0.0,0.0,0.0,0.0,0.0,0.0,0.0,0.0,0.0,0.0,0.0,0.0,0.0,0.0,0.0,0.0,0.0,0.0,0.0,0.0,0.0,0.0,0.0,0.0,0.0,0.0,0.0,0.0,0.0,0.0,0.0,0.0,0.0,0.0,0.0,0.0,0.0,0.0,0.0,0.0,0.0,0.0,0.0,0.0,0.0,0.0,0.0,0.0,0.0,0.0,0.0,0.0,0.0,0.0,0.0,0.0,0.0,0.0,0.0,0.0,0.0,0.0,0.0,0.0,0.0,0.0,0.0,0.0,0.0,0.0,0.0,0.0,0.0,0.0,0.0,0.0,0.0,0.0,0.0,0.0,0.0,0.0,0.0,0.0,0.0,0.0,0.0,0.0,0.0,0.0,0.0,0.0,0.0,0.0,0.0,0.0,0.0,0.0,0.0,0.0,0.0,0.0,0.0,0.0,0.0,0.0,0.0,0.0,0.0,0.0,0.0,0.0,0.0,0.0,0.0,0.0,0.0,0.0,0.0,0.0,0.0,0.0,0.0,0.0,0.0,0.0,0.0,0.0,0.0,0.0,0.0,0.0,0.0,0.0,0.0,0.0,0.0,0.0,0.0,0.0,0.0,0.0,0.0,0.0,0.0,0.0,0.0,0.0,0.0,0.0,0.0,0.0,0.0,0.0,0.0,0.0,0.0,0.0,0.0,0.0,0.0,0.0,0.0,0.0,0.0,0.0,0.0,0.0,0.0,0.0,0.0,0.0,0.0,0.0,0.0,0.0,0.0,0.0,0.0,0.0,0.0,0.0,0.0,0.0,0.0,0.0,0.0,0.0,0.0,0.0,0.0,0.0,0.0,0.0,0.0,0.0,0.0,0.0,0.0,0.0,0.0,0.0,0.0,0.0,0.0,0.0,0.0,0.0,0.0,0.0,0.0,0.0,0.0,0.0,0.0,0.0,0.0,0.0,0.0,0.0,0.0,0.0,0.0,0.0,0.0,0.0,0.0,0.0,0.0,0.0,0.0,0.0,0.0,0.0,0.0,0.0,0.0,0.0,0.0,0.0,0.0,0.0,0.0,0.0,0.0,0.0,0.0,0.0,0.0,0.0,0.0,0.0,0.0,0.0,0.0,0.0,0.0,0.0,0.0,0.0,0.0,0.0,0.0,0.0,0.0,0.0,0.0,0.0,0.0,0.0,0.0,0.0,0.0,0.0,0.0,0.0,0.0,0.0,0.0,0.0,0.0,0.0,0.0,0.0,0.0,0.0,0.0,0.0,0.0,0.0,0.0,0.0,0.0,0.0,0.0,0.0,0.0,0.0,0.0,0.0,0.0,0.0,0.0,0.0,0.0,0.0,0.0,0.0,0.0,0.0,0.0,0.0,0.0,0.0,0.0,0.0,0.0,0.0,0.0,0.0,0.0,0.0,0.0,0.0,0.0,0.0,0.0,0.0,0.0,0.0,0.0,0.0,0.0,0.0,0.0,0.0,0.0,0.0,0.0,0.0,0.0,0.0,0.0,0.0,0.0,0.0,0.0,0.0,0.0,0.0,0.0,0.0,0.0,0.0,0.0,0.0,0.0,0.0,0.0,0.0,0.0,0.0,0.0,0.0,0.0,0.0,0.0,0.0,0.0,0.0,0.0,0.0,0.0,0.0,0.0,0.0,0.0,0.0,0.0,0.0,0.0,0.0,0.0,0.0,0.0,0.0,0.0,0.0,0.0,0.0,0.0,0.0,0.0,0.0,0.0,0.0,0.0,0.0,0.0,0.0,0.0,0.0,0.0,0.0,0.0,0.0,0.0,0.0,0.0,0.0,0.0,0.0,0.0,0.0,0.0,0.0,0.0,0.0,0.0,0.0,0.0,0.0,0.0,0.0,0.0,0.0,0.0,0.0,0.0,0.0,0.0,0.0,0.0,0.0,0.0,0.0,0.0,0.0,0.0,0.0,0.0,0.0,0.0,0.0,0.0,0.0,0.0,0.0,0.0,0.0,0.0,0.0,0.0,0.0,0.0,0.0,0.0,0.0,0.0,0.0,0.0,0.0,0.0,0.0,0.0,0.0,0.0,0.0,0.0,0.0,0.0,0.0,0.0,0.0,0.0,0.0,0.0,0.0,0.0,0.0,0.0,0.0,0.0,0.0,0.0,0.0,0.0,0.0,0.0,0.0,0.0,0.0,0.0,0.0,0.0,0.0,0.0,0.0,0.0,0.0,0.0,0.0,0.0,0.0,0.0,0.0,0.0,0.0,0.0,0.0,0.0,0.0,0.0,0.0,0.0,0.0,0.0,0.0,0.0,0.0,0.0,0.0,0.0,0.0,0.0,0.0,0.0,0.0,0.0,0.0,0.0,0.0,0.0,0.0,0.0,0.0,0.0,0.0,0.0,0.0,0.0,0.0,0.0,0.0,0.0,0.0,0.0,0.0,0.0,0.0,0.0,0.0,0.0,0.0,0.0,0.0,0.0,0.0,0.0,0.0,0.0,0.0,0.0,0.0,0.0,0.0,0.0,0.0,0.0,0.0,0.0,0.0,0.0,0.0,0.0,0.0,0.0,0.0,0.0,0.0,0.0,0.0,0.0,0.0,0.0,0.0,0.0,0.0,0.0,0.0,0.0,0.0,0.0,0.0,0.0,0.0,0.0,0.0,0.0,0.0,0.0,0.0,0.0,0.0,0.0,0.0,0.0,0.0,0.0,0.0,0.0,0.0,0.0,0.0,0.0,0.0,0.0,0.0,0.0,0.0,0.0,0.0,0.0,0.0,0.0,0.0,0.0,0.0,0.0,0.0,0.0,0.0,0.0,0.0,0.0,0.0,0.0,0.0,0.0,0.0,0.0,0.0,0.0,0.0,0.0,0.0,0.0,0.0,0.0,0.0,0.0,0.0,0.0,0.0,0.0,0.0,0.0,0.0,0.0,0.0,0.0,0.0,0.0,0.0,0.0,0.0,0.0,0.0,0.0,0.0,0.0,0.0,0.0,0.0,0.0,0.0,0.0,0.0,0.0,0.0,0.0,0.0,0.0,0.0,0.0,0.0,0.0,0.0,0.0,0.0,0.0,0.0,0.0,0.0,0.0,0.0,0.0,0.0,0.0,0.0,0.0,0.0,0.0,0.0,0.0,0.0,0.0,0.0,0.0,0.0,0.0,0.0,0.0,0.0,0.0,0.0,0.0,0.0,0.0,0.0,0.0,0.0,0.0,0.0,0.0,0.0,0.0,0.0,0.0,0.0,0.0,0.0,0.0,0.0,0.0,0.0,0.0,0.0,0.0,0.0,0.0,0.0,0.0,0.0,0.0,0.0,0.0,0.0,0.0,0.0,0.0,0.0,0.0,0.0,0.0,0.0,0.0,0.0,0.0,0.0,0.0,0.0,0.0,0.0,0.0,0.0,0.0,0.0,0.0,0.0,0.0,0.0,0.0,0.0,0.0,0.0,0.0,0.0,0.0,0.0,0.0,0.0,0.0,0.0,0.0,0.0,0.0,0.0,0.0,0.0,0.0,0.0,0.0,0.0,0.0,0.0,0.0,0.0,0.0,0.0,0.0,0.0,0.0,0.0,0.0,0.0,0.0,0.0,0.0,0.0,0.0,0.0,0.0,0.0,0.0,0.0,0.0,0.0,0.0,0.0,0.0,0.0,0.0,0.0,0.0,0.0,0.0,0.0,0.0,0.0,0.0,0.0,0.0,0.0,0.0,0.0,0.0,0.0,0.0,0.0,0.0,0.0,0.0,0.0,0.0,0.0,0.0,0.0,0.0,0.0,0.0,0.0,0.0,0.0,0.0,0.0,0.0,0.0,0.0,0.0,0.0,0.0,0.0,0.0,0.0,0.0,0.0,0.0,0.0,0.0,0.0,0.0,0.0,0.0,0.0,0.0,0.0,0.0,0.0,0.0,0.0,0.0,0.0,0.0,0.0,0.0,0.0,0.0,0.0,0.0,0.0,0.0,0.0,0.0,0.0,0.0,0.0,0.0,0.0,0.0,0.0,0.0,0.0,0.0,0.0,0.0,0.0,0.0,0.0,0.0,0.0,0.0,0.0,0.0,0.0,0.0,0.0,0.0,0.0,0.0,0.0,0.0,0.0,0.0,0.0,0.0,0.0,0.0,0.0,0.0,0.0,0.0,0.0,0.0,0.0,0.0,0.0,0.0,0.0,0.0,0.0,0.0,0.0,0.0,0.0,0.0,0.0,0.0,0.0,0.0,0.0,0.0,0.0,0.0,0.0,0.0,0.0,0.0,0.0,0.0,0.0,0.0,0.0,0.0,0.0,0.0,0.0,0.0,0.0,0.0,0.0,0.0,0.0,0.0,0.0,0.0,0.0,0.0,0.0,0.0,0.0,0.0,0.0,0.0,0.0,0.0,0.0,0.0,0.0,0.0,0.0,0.0,0.0,0.0,0.0,0.0,0.0,0.0,0.0,0.0,0.0,0.0,0.0,0.0,0.0,0.0,0.0,0.0,0.0,0.0,0.0,0.0,0.0,0.0,0.0,0.0,0.0,0.0,0.0,0.0,0.0,0.0,0.0,0.0,0.0,0.0,0.0,0.0,0.0,0.0,0.0,0.0,0.0,0.0,0.0,0.0,0.0,0.0,0.0,0.0,0.0,0.0,0.0,0.0,0.0,0.0,0.0,0.0,0.0,0.0,0.0,0.0,0.0,0.0,0.0,0.0,0.0,0.0,0.0,0.0,0.0,0.0,0.0,0.0,0.0,0.0,0.0,0.0,0.0,0.0,0.0,0.0,0.0,0.0,0.0,0.0,0.0,0.0,0.0,0.0,0.0,0.0,0.0,0.0,0.0,0.0,0.0,0.0,0.0,0.0,0.0,0.0,0.0,0.0,0.0,0.0,0.0,0.0,0.0,0.0,0.0,0.0,0.0,0.0,0.0,0.0,0.0,0.0,0.0,0.0,0.0,0.0,0.0,0.0,0.0,0.0,0.0,0.0,0.0,0.0,0.0,0.0,0.0,0.0,0.0,0.0,0.0,0.0,0.0,0.0,0.0,0.0,0.0,0.0,0.0,0.0,0.0,0.0,0.0,0.0,0.0,0.0,0.0,0.0,0.0,0.0,0.0,0.0,0.0,0.0,0.0,0.0,0.0,0.0,0.0,0.0,0.0,0.0,0.0,0.0,0.0,0.0,0.0,0.0,0.0,0.0,0.0,0.0,0.0,0.0,0.0,0.0,0.0,0.0,0.0,0.0,0.0,0.0,0.0,0.0,0.0,0.0,0.0,0.0,0.0,0.0,0.0,0.0,0.0,0.0,0.0,0.0,0.0,0.0,0.0,0.0,0.0,0.0,0.0,0.0,0.0,0.0,0.0,0.0,0.0,0.0,0.0,0.0,0.0,0.0,0.0,0.0,0.0,0.0,0.0,0.0,0.0,0.0,0.0,0.0,0.0,0.0,0.0,0.0,0.0,0.0,0.0,0.0,0.0,0.0,0.0,0.0,0.0,0.0,0.0,0.0,0.0,0.0,0.0,0.0,0.0,0.0,0.0,0.0,0.0,0.0,0.0,0.0,0.0,0.0,0.0,0.0,0.0,0.0,0.0,0.0,0.0,0.0,0.0,0.0,0.0,0.0,0.0,2.2598,0.0,0.0,0.0,0.0,0.0,0.0,0.0,0.0,0.0,0.0,0.0,0.0,0.0,0.0,0.0,0.0,0.0,0.0,0.0,0.0,0.0,0.0,0.0,0.0,0.0,0.0,0.0,0.0,0.0,0.0,0.0,0.0,0.0,0.0,0.0,0.0,0.0,0.0,0.0,2.3036,2.3758,2.4307,2.4952,2.4574,2.3339,0.0,0.0,0.0,0.0,0.0,0.0,0.0,0.0,0.0,0.0,0.0,0.0,0.0,0.0,0.0,0.0,0.0,0.0,0.0,0.0,0.0,0.0,0.0,0.0,0.0,0.0,0.0,0.0,0.0,0.0,0.0,0.0,0.0,0.0,0.0,0.0,0.0,0.0,0.0,0.0,0.0,0.0,0.0,0.0,0.0,0.0,0.0,0.0,0.0,0.0,0.0,0.0,0.0,0.0,0.0,0.0,0.0,0.0,0.0,0.0,0.0,0.0,0.0,0.0,0.0,0.0,0.0,0.0,0.0,0.0,0.0,2.3534,0.0,0.0,0.0,0.0,0.0,0.0,0.0,0.0,0.0,0.0,0.0,0.0,0.0,0.0,0.0,0.0,0.0,0.0,0.0,0.0,0.0,0.0,0.0,0.0,0.0,0.0,0.0,0.0,0.0,0.0,0.0,0.0,0.0,0.0,0.0,2.3247,2.3862,2.3599,2.5108,2.6674,2.8293,2.9236,2.8397,2.6079,2.4891,0.0,0.0,0.0,0.0,0.0,0.0,0.0,0.0,0.0,0.0,0.0,0.0,0.0,0.0,0.0,0.0,0.0,0.0,0.0,0.0,0.0,0.0,0.0,0.0,0.0,0.0,0.0,0.0,0.0,0.0,0.0,0.0,0.0,0.0,0.0,0.0,0.0,0.0,0.0,0.0,0.0,0.0,0.0,0.0,0.0,0.0,0.0,0.0,0.0,0.0,0.0,0.0,0.0,0.0,0.0,0.0,0.0,0.0,0.0,0.0,0.0,0.0,0.0,0.0,3.2276,3.2547,3.4226,3.4492,3.333,2.8826,2.6691,2.6269,0.0,0.0,0.0,0.0,0.0,0.0,0.0,0.0,0.0,0.0,0.0,0.0,0.0,0.0,0.0,0.0,0.0,0.0,0.0,0.0,0.0,0.0,1.9636,1.984,2.01,2.0154,2.0534,0.0,0.0,0.0,0.0,0.0,0.0,2.1999,2.3018,2.3441,2.3169,2.5833,2.8582,3.1457,3.2917,3.3637,3.3551,2.9011,2.771,2.8656,0.0,0.0,0.0,0.0,0.0,0.0,0.0,0.0,0.0,0.0,0.0,0.0,0.0,0.0,0.0,0.0,0.0,0.0,0.0,0.0,0.0,0.0,0.0,0.0,0.0,0.0,0.0,0.0,0.0,0.0,0.0,0.0,0.0,0.0,0.0,0.0,0.0,0.0,0.0,0.0,0.0,2.3934,2.3063,0.0,0.0,0.0,0.0,0.0,0.0,0.0,0.0,0.0,0.0,0.0,0.0,0.0,0.0,2.9707,3.1351,3.2364,3.2784,3.5734,3.688,3.6489,3.7307,3.7593,3.7344,3.5756,0.0,3.0037,2.7824,0.0,0.0,0.0,0.0,0.0,0.0,0.0,0.0,0.0,0.0,0.0,0.0,0.0,0.0,0.0,0.0,0.0,0.0,0.0,0.0,0.0,2.2221,2.298,2.3272,2.4562,2.481,2.3524,0.0,0.0,0.0,0.0,2.419,2.3608,2.4332,2.5766,2.7905,3.0669,3.3056,3.4963,3.6087,3.688,3.729,3.4764,3.2916,3.1424,2.8385,0.0,0.0,0.0,0.0,0.0,0.0,0.0,0.0,0.0,0.0,0.0,0.0,0.0,0.0,0.0,0.0,0.0,0.0,0.0,0.0,0.0,0.0,0.0,0.0,0.0,0.0,0.0,0.0,0.0,0.0,0.0,0.0,0.0,0.0,0.0,0.0,0.0,0.0,0.0,2.6129,2.6805,2.4917,2.6911,2.7685,0.0,0.0,0.0,0.0,0.0,0.0,0.0,0.0,0.0,3.2035,3.2774,3.3541,3.4395,3.6237,3.7479,3.8041,3.9674,4.0396,4.0355,4.0659,4.0894,4.0991,3.9871,3.8557,3.682,3.2524,2.9907,2.8446,0.0,0.0,0.0,0.0,0.0,2.7165,0.0,0.0,0.0,0.0,0.0,0.0,0.0,0.0,0.0,0.0,0.0,0.0,2.3633,2.5076,2.629,2.7122,2.8518,2.8405,2.6121,2.6746,0.0,0.0,2.4725,2.5052,2.4949,2.6164,2.8645,3.2423,3.5056,3.6914,3.8141,3.9385,4.0,4.0079,4.0294,3.8371,3.4791,3.1782,2.9545,2.7831,0.0,0.0,0.0,0.0,0.0,0.0,0.0,0.0,0.0,0.0,0.0,0.0,0.0,0.0,0.0,0.0,0.0,0.0,0.0,0.0,0.0,0.0,0.0,0.0,0.0,0.0,0.0,0.0,0.0,0.0,0.0,0.0,0.0,0.0,0.0,0.0,0.0,2.847,2.9211,2.6606,2.9509,3.0595,0.0,0.0,0.0,0.0,0.0,0.0,3.3427,3.412,3.508,3.6413,3.7221,3.7958,3.8758,4.0219,4.133,4.2025,4.2493,4.2849,4.3102,4.3057,4.3097,4.3127,4.2194,4.1911,4.1655,3.6422,3.3628,3.2452,3.0683,2.9662,0.0,2.9867,3.0476,3.11,0.0,0.0,0.0,0.0,0.0,0.0,0.0,0.0,0.0,0.0,0.0,2.3765,2.6745,2.7592,2.8825,3.1022,3.0211,2.9434,2.91,2.7542,2.6196,2.5176,2.5955,2.6072,2.5391,2.8254,3.1411,3.4728,3.6875,3.8901,4.067,4.3056,4.3649,4.2813,4.4755,4.3437,3.946,3.5341,3.351,3.3073,2.9122,0.0,0.0,0.0,0.0,0.0,0.0,0.0,0.0,0.0,0.0,0.0,0.0,0.0,0.0,0.0,0.0,0.0,0.0,0.0,0.0,0.0,0.0,0.0,0.0,0.0,0.0,0.0,0.0,0.0,0.0,0.0,0.0,0.0,0.0,0.0,0.0,0.0,0.0,2.6952,3.1824,0.0,0.0,0.0,0.0,3.2169,3.5029,3.7182,3.8042,3.8838,3.9948,4.1468,4.0926,4.0979,4.1884,4.1971,4.232,4.2931,4.3525,4.3812,4.3842,4.3756,4.3472,4.291,4.2481,4.2258,4.2036,3.8795,3.7604,3.7665,3.6166,3.6,3.6572,3.6605,3.6663,3.6597,0.0,0.0,0.0,0.0,0.0,0.0,0.0,0.0,0.0,2.2867,2.4236,2.6189,2.8944,3.1385,3.3454,3.4842,3.5994,3.5593,3.3255,3.1694,3.0168,2.8667,2.7766,2.7966,2.9424,3.1962,3.4835,3.7958,3.9908,4.1563,4.3035,4.3897,4.4265,4.4292,4.5978,4.5718,4.3709,4.0498,3.7551,3.4769,3.2076,2.9491,0.0,0.0,0.0,0.0,0.0,0.0,0.0,0.0,0.0,0.0,0.0,0.0,0.0,0.0,0.0,0.0,0.0,0.0,0.0,0.0,0.0,0.0,0.0,0.0,0.0,0.0,0.0,0.0,0.0,0.0,0.0,0.0,0.0,0.0,0.0,0.0,0.0,3.3508,3.7015,0.0,3.4797,3.5941,3.6896,3.6998,3.8671,4.0354,4.1928,4.2643,4.3277,4.3812,4.3974,4.4006,4.3892,4.4327,4.4647,4.485,4.4675,4.4323,4.3943,4.3519,4.3167,4.291,4.2299,4.2417,4.2867,4.1302,4.0166,3.9237,3.7918,3.7303,3.7206,3.7655,3.7815,3.7847,0.0,0.0,0.0,0.0,0.0,0.0,0.0,0.0,0.0,2.3822,2.5737,2.8257,3.1432,3.4684,3.7132,3.826,3.9373,3.8666,3.5628,3.3235,3.1253,2.975,2.8997,2.997,3.2819,3.5354,3.7982,4.0727,4.2589,4.395,4.491,4.4977,4.5069,4.5367,4.7043,4.7344,4.6431,4.5413,4.2233,3.7675,3.5317,3.3164,3.095,0.0,0.0,0.0,0.0,0.0,0.0,0.0,0.0,0.0,0.0,0.0,0.0,0.0,0.0,0.0,0.0,0.0,0.0,0.0,0.0,0.0,0.0,0.0,0.0,0.0,0.0,0.0,0.0,0.0,0.0,0.0,0.0,0.0,0.0,0.0,3.8581,3.8135,4.1087,4.2045,3.9341,4.0176,4.091,4.1065,4.2262,4.3602,4.4879,4.5547,4.5866,4.5866,4.6098,4.5982,4.5547,4.5779,4.5895,4.5866,4.543,4.4908,4.4269,4.3834,4.342,4.2983,4.246,4.2535,4.293,4.2274,4.1371,4.0419,3.9807,3.9157,3.8591,3.9094,3.9314,3.9377,0.0,0.0,0.0,0.0,0.0,0.0,0.0,0.0,2.3722,2.5385,2.7118,2.988,3.4274,3.7262,3.9597,4.1175,3.9898,3.8106,3.6082,3.1909,2.9135,2.8272,2.972,3.2066,3.5326,3.8206,4.0745,4.2891,4.4766,4.5935,4.6421,4.6537,4.6415,4.6155,4.8126,4.8486,4.7728,4.9831,4.7521,4.2092,3.8935,3.7331,3.6236,0.0,0.0,0.0,0.0,0.0,0.0,0.0,0.0,0.0,0.0,0.0,0.0,0.0,0.0,0.0,0.0,0.0,0.0,0.0,0.0,0.0,0.0,0.0,0.0,0.0,0.0,0.0,0.0,0.0,0.0,0.0,0.0,0.0,3.469,3.8463,4.1047,4.0408,4.3718,4.4792,4.1628,4.3573,4.4763,4.4182,4.5837,4.6865,4.6865,4.7491,4.784,4.7811,4.7201,4.6836,4.6807,4.6243,4.5924,4.5924,4.5895,4.5547,4.4879,4.4879,4.4211,4.3021,4.2992,4.2673,4.2063,4.1627,4.1416,4.1439,4.195,4.1721,4.1162,4.136,4.1426,4.1426,0.0,0.0,0.0,0.0,0.0,0.0,0.0,2.3654,2.4331,2.5435,2.8448,3.1712,3.4931,3.8467,4.1003,4.1856,4.1153,3.9676,3.7373,3.4084,3.1902,3.1166,3.3106,3.581,3.9095,4.1007,4.3118,4.5637,4.6001,4.6363,4.6739,4.6528,4.6739,4.7375,4.8557,4.9393,4.981,5.09,5.0166,4.8003,4.3848,4.08,3.8325,0.0,0.0,0.0,0.0,0.0,0.0,0.0,0.0,0.0,0.0,0.0,0.0,0.0,0.0,0.0,0.0,0.0,0.0,0.0,0.0,0.0,0.0,0.0,0.0,0.0,0.0,0.0,0.0,0.0,0.0,0.0,0.0,3.9857,3.8696,4.2411,4.5343,4.5634,4.784,4.8624,4.6795,4.7259,4.7608,4.7433,4.7898,4.8391,4.8856,4.9059,4.8943,4.8478,4.8304,4.7985,4.7521,4.6882,4.6563,4.6563,4.6098,4.5547,4.4879,4.4879,4.4472,4.3689,4.3195,4.2905,4.2702,4.2133,4.1622,4.112,4.065,4.0357,4.0154,3.9853,3.9849,3.9985,0.0,0.0,0.0,0.0,0.0,0.0,0.0,2.3374,2.4084,2.5745,2.9126,3.2466,3.5182,3.8768,4.1028,4.1128,4.0174,3.8616,3.6365,3.4121,3.3074,3.3457,3.5999,3.8667,4.1315,4.3281,4.5061,4.6679,4.7053,4.7409,4.7824,4.745,4.7751,4.8567,4.9036,4.968,5.0445,5.1648,5.1753,5.0898,4.8837,4.6085,4.2944,3.9673,3.8392,3.7981,3.5406,3.5034,3.534,3.2825,0.0,0.0,0.0,0.0,0.0,0.0,0.0,0.0,0.0,0.0,0.0,0.0,0.0,0.0,0.0,0.0,0.0,0.0,0.0,0.0,0.0,0.0,0.0,0.0,4.1047,4.3776,4.4095,4.6388,4.8391,4.9291,5.0394,5.0772,5.0017,4.9881,4.9814,4.9553,4.9553,4.9582,4.9669,4.9717,4.9494,4.9117,4.8856,4.8537,4.8188,4.755,4.7085,4.6778,4.6446,4.5924,4.5314,4.5314,4.4966,0.0,4.395,4.3485,4.2963,4.2615,4.2092,0.0,0.0,0.0,0.0,0.0,3.9192,3.9301,0.0,0.0,0.0,0.0,0.0,0.0,0.0,2.2808,2.3487,2.6114,2.924,3.2215,3.4831,3.799,3.9798,3.9446,3.7913,3.6176,3.4328,3.3237,3.3519,3.5525,3.8542,4.1026,4.2783,4.5229,4.6682,4.7027,4.7901,4.8623,4.9197,4.8792,4.9107,4.9916,4.9482,4.979,5.0769,5.2252,5.2519,5.2119,5.3173,5.1657,4.8391,4.4385,4.3513,4.3932,3.9731,3.8517,3.8554,3.6217,0.0,0.0,0.0,0.0,0.0,0.0,0.0,0.0,0.0,0.0,0.0,0.0,0.0,0.0,0.0,0.0,0.0,0.0,0.0,0.0,0.0,0.0,0.0,0.0,4.4792,4.7346,4.9727,5.0162,5.0598,5.1497,5.1672,5.1701,5.1643,5.1614,5.1352,5.0714,5.0734,5.0394,4.9746,0.0,0.0,0.0,0.0,4.8827,4.8827,4.8217,4.7608,4.6981,4.6865,4.6534,4.5982,4.5924,4.5576,4.4995,4.4908,4.424,4.3195,4.305,4.2644,4.2075,4.1569,4.0597,3.9484,3.9232,3.9142,0.0,0.0,0.0,0.0,0.0,0.0,0.0,0.0,2.3529,2.3662,2.5724,2.8408,3.0809,3.2667,3.5006,3.681,3.7588,3.6459,3.5219,3.425,3.4504,3.5884,3.8485,4.1171,4.3631,4.5698,4.6942,4.793,4.8778,4.8731,4.9096,4.9995,4.9639,5.0422,5.2046,5.0464,5.1424,5.4161,5.2577,5.295,5.463,5.4386,5.2387,4.9349,4.7956,4.694,4.5998,4.3586,4.3745,4.4487,4.0744,3.9874,3.9806,3.6719,0.0,0.0,0.0,0.0,0.0,0.0,0.0,0.0,0.0,0.0,0.0,0.0,0.0,0.0,0.0,0.0,0.0,0.0,0.0,0.0,4.4589,4.8159,5.0859,5.1875,5.292,5.3094,5.1788,5.2078,5.2194,5.1672,5.1614,5.1352,5.0714,5.0734,5.0394,4.9746,4.9717,0.0,4.9717,4.9553,4.9494,4.9494,4.8856,4.8478,4.8286,0.0,0.0,4.6621,4.6127,4.5808,4.5663,4.5111,4.4734,4.4443,4.3398,4.2644,4.2034,4.1407,4.0479,3.9504,3.9434,3.9306,3.909,0.0,0.0,0.0,0.0,0.0,0.0,0.0,2.3366,2.3244,2.5055,2.7087,2.9025,3.0809,3.224,3.3294,3.3847,3.2996,3.2829,3.3801,3.5251,3.7546,4.0805,4.3394,4.5405,4.6698,4.7848,4.8682,4.9029,4.9163,4.9577,5.0318,5.0318,5.0826,5.1611,5.0447,5.1177,5.3368,5.2615,5.3347,5.4966,5.5329,5.4306,5.2455,5.1468,5.054,4.9465,4.755,4.7666,4.8206,4.4472,4.3598,4.3598,4.052,3.8018,3.5742,0.0,0.0,0.0,0.0,0.0,0.0,0.0,0.0,0.0,0.0,0.0,0.0,0.0,0.0,3.7463,0.0,0.0,4.5285,4.7869,5.0423,5.231,5.2949,5.3617,5.3646,5.2688,5.2862,5.292,5.2601,5.2572,5.2165,5.1207,5.1149,5.0714,4.9727,4.9717,4.9717,4.9717,4.9717,4.9717,4.9717,4.9349,4.903,4.8663,4.8025,4.7387,4.6778,4.6505,4.6185,4.5866,4.5547,4.5024,4.4327,4.3079,4.2353,4.2063,4.1715,4.0906,3.9905,3.9727,3.9424,3.909,0.0,0.0,0.0,0.0,0.0,0.0,0.0,0.0,0.0,2.4285,2.5587,2.6986,2.8633,2.9366,2.9756,2.9997,2.9974,3.1008,3.3462,3.6034,3.9045,4.2625,4.5254,4.6772,4.7139,4.8447,4.9018,4.8895,4.9309,4.9821,5.0401,5.1018,5.133,5.1286,5.0897,5.1433,5.2666,5.3093,5.396,5.5111,5.579,5.5776,5.5271,5.3888,5.3106,5.2514,5.0598,4.9901,4.9524,4.694,4.5982,4.5518,4.3485,4.182,3.9905,3.6353,3.5204,0.0,0.0,0.0,0.0,0.0,0.0,0.0,0.0,0.0,3.6687,3.76,3.9712,4.2092,4.4327,4.6795,4.9117,5.0946,5.2397,5.3413,5.3675,5.382,5.3733,5.3384,5.3442,5.35,5.35,5.3384,5.2862,5.1701,5.1497,5.0917,4.9727,4.9717,4.9717,4.9717,4.9717,4.9717,4.9717,4.9717,4.9407,4.8914,4.8653,4.8014,4.6998,4.6766,4.6359,4.5895,4.5895,4.5227,4.4066,4.2934,4.2382,4.2266,4.2192,4.1569,4.0588,4.0097,3.9638,3.9261,0.0,0.0,0.0,0.0,0.0,0.0,0.0,0.0,0.0,2.3659,2.4166,2.4632,2.5283,2.6056,2.6875,2.7764,3.0188,3.2316,3.3959,3.7391,4.0679,4.3532,4.6301,4.7846,4.8139,4.8774,4.9149,4.9229,4.9278,4.9664,5.0229,5.1737,5.275,5.3441,5.3726,5.4874,5.6566,5.5001,5.5383,5.6848,5.5396,5.5024,5.5217,5.346,5.3049,5.3152,5.1236,4.9146,4.7155,4.6807,4.6359,4.5837,4.5547,4.4952,4.3441,3.9082,3.6648,3.453,3.0685,2.9784,3.0742,3.4176,3.5083,3.6335,0.0,0.0,4.2279,4.2963,4.4705,4.633,4.7201,4.9465,5.1643,5.2978,5.4778,5.562,5.4546,5.4865,5.4575,5.2862,5.3181,5.35,5.35,5.3007,5.2368,5.1672,5.1091,5.0452,4.9727,4.9717,4.9717,4.9717,4.9717,4.9717,4.9717,4.9717,4.964,4.9553,4.842,4.7811,4.7637,4.6505,4.5953,4.5895,4.5895,4.5459,4.4734,4.4066,4.3427,4.2889,4.2502,4.2034,4.146,4.0627,4.0088,3.9697,0.0,0.0,0.0,0.0,0.0,0.0,0.0,0.0,0.0,0.0,0.0,2.3903,2.4123,2.4767,2.5361,2.5703,2.8211,3.0905,3.361,3.6879,4.0224,4.3639,4.5849,4.7319,4.8071,4.8646,4.9152,4.9628,4.9652,4.9924,5.0511,5.1966,5.2737,5.3012,5.3885,5.4828,5.5652,5.5213,5.548,5.6116,5.5357,5.4979,5.4608,5.237,5.0948,4.9988,4.8449,4.7201,0.0,0.0,4.4618,4.5314,4.5314,4.4356,4.2673,3.9654,3.7418,3.5473,3.3499,3.3238,3.4167,3.6925,3.8734,4.0554,4.3427,4.4676,4.5518,4.6534,4.7985,4.9378,5.0394,5.2078,5.3471,0.0,5.5068,5.5533,5.4633,5.44,5.3733,5.2194,5.2252,5.2397,5.2397,5.2514,5.2216,5.1149,5.1178,5.0772,4.9727,4.9717,4.9717,4.9717,4.9717,4.9717,4.9717,4.9717,4.9717,4.9717,4.9146,4.8682,4.8304,4.7404,4.6592,4.5866,4.5488,4.514,4.4821,4.3805,4.3253,4.2934,4.2449,4.2205,4.2016,4.1499,4.1083,4.071,0.0,0.0,0.0,0.0,0.0,0.0,0.0,0.0,0.0,0.0,0.0,0.0,0.0,2.3879,2.4205,2.4227,2.6444,2.9136,3.2214,3.5654,3.9045,4.2283,4.4618,4.6276,4.723,4.7958,4.866,4.9327,4.9352,4.9681,5.0358,5.1729,5.2418,5.2668,5.3981,5.475,5.5055,5.531,5.5365,5.5358,5.4674,5.3979,5.3152,5.0246,4.7949,4.6098,4.5169,4.4153,0.0,0.0,4.1529,4.2573,4.3095,4.2573,4.1314,3.9025,3.6889,3.527,3.5363,3.6083,3.7476,4.0118,4.2557,4.4705,4.6156,4.7491,4.8624,4.9378,5.0423,5.1439,5.2165,5.3355,5.4284,5.4487,5.501,5.5184,5.4604,5.3936,5.2833,5.1033,5.083,5.0743,5.0569,5.1468,5.1722,5.0793,5.0917,5.0656,4.9727,4.9717,4.9717,4.9717,4.9717,4.9717,4.9717,4.9717,4.9717,4.9717,4.9494,4.9088,4.8449,4.7637,4.6766,4.5866,4.5372,4.5169,4.5082,4.3979,4.3427,4.3195,4.2627,4.2403,4.2374,4.2317,4.196,4.1547,0.0,0.0,0.0,0.0,0.0,0.0,0.0,0.0,0.0,0.0,0.0,0.0,0.0,0.0,2.3236,2.3511,2.5626,2.7651,2.932,3.3871,3.7271,3.8969,4.266,4.4945,4.5547,4.6627,4.7456,4.7983,4.7983,4.8393,4.9264,5.0949,5.2182,5.3017,5.4677,5.5713,5.6319,5.5681,5.5391,5.5188,5.2775,5.1414,5.0403,4.6594,4.396,4.2266,4.2237,0.0,0.0,0.0,3.6961,3.667,3.8525,3.9939,0.0,3.7139,3.4495,0.0,0.0,0.0,3.9189,4.3602,4.6185,4.813,5.0124,5.1497,5.2223,5.1643,5.2049,5.2339,5.1759,5.2688,5.3762,5.44,5.501,5.5184,5.4604,5.3936,5.2339,4.9127,4.8779,4.8566,0.0,4.9611,5.0714,5.0734,5.0075,4.9727,4.9717,4.9717,4.9717,4.9717,4.9717,4.9717,4.9717,4.9717,4.9717,4.9717,4.9059,4.842,4.7753,4.6505,4.5924,4.5895,4.5866,4.5866,4.5808,4.5111,4.4472,4.3935,4.3465,4.2906,4.2474,4.282,4.2535,4.195,0.0,0.0,0.0,0.0,0.0,0.0,0.0,0.0,0.0,0.0,0.0,0.0,0.0,0.0,0.0,0.0,2.5021,2.6462,2.812,3.1135,3.376,3.5775,3.902,4.1404,4.271,4.3815,4.4819,4.5723,4.5723,4.6231,4.723,4.8632,4.9858,5.0896,5.2718,5.3413,5.3239,5.3442,5.3036,5.2136,5.0427,4.9068,4.7677,4.3849,4.0972,3.858,0.0,0.0,0.0,0.0,0.0,0.0,3.4548,0.0,0.0,3.2851,0.0,0.0,0.0,0.0,4.2353,4.6417,4.8566,5.0191,5.2107,5.2572,5.2565,5.2281,5.1062,5.0075,5.0278,5.0685,5.1323,5.2426,5.4168,5.5184,5.4604,5.4313,5.2978,4.9785,4.933,0.0,0.0,0.0,0.0,4.9988,5.0598,5.0598,4.9776,5.0104,5.0182,4.9746,4.9717,4.9717,4.9717,4.9717,4.9717,4.9717,4.9465,4.8798,4.7782,4.7346,4.6679,4.5895,4.5895,4.5895,4.5837,4.5169,4.4763,4.4531,4.3978,4.3423,4.3065,4.3808,4.3482,4.2743,0.0,0.0,0.0,0.0,0.0,0.0,0.0,0.0,0.0,0.0,0.0,0.0,0.0,0.0,0.0,0.0,0.0,2.5244,2.6503,2.8697,3.0629,3.2166,3.49,3.6908,3.8032,3.907,4.0129,4.1238,4.1777,4.2753,4.4098,4.5488,4.6759,4.8049,4.9201,4.9944,5.022,4.9811,4.93,4.8577,4.6488,4.4791,4.3199,3.9702,3.6925,0.0,0.0,0.0,0.0,0.0,0.0,0.0,0.0,0.0,0.0,0.0,0.0,0.0,0.0,4.2963,4.5895,4.9524,5.1062,5.1962,5.2949,5.2688,5.2049,5.1323,4.9349,4.7695,4.7666,4.7462,4.7869,4.9611,5.1265,5.2601,5.3384,5.3094,5.1962,4.964,4.933,4.8798,0.0,0.0,0.0,4.9291,5.054,5.0917,5.0124,5.0502,5.0531,5.0095,4.9785,4.9717,4.9717,4.9717,4.9717,4.9717,4.9436,4.8798,4.7782,4.755,4.6882,4.5895,4.5895,4.5895,4.5866,4.543,4.5111,4.4894,4.4748,4.4363,4.4044,4.5053,4.484,4.4074,0.0,0.0,0.0,0.0,0.0,0.0,0.0,0.0,0.0,0.0,0.0,0.0,0.0,0.0,0.0,0.0,0.0,0.0,2.4436,2.6628,2.8008,2.8249,3.042,3.172,3.2042,3.289,3.3844,3.4895,3.6367,3.8081,3.987,4.1334,4.289,4.4371,4.4248,4.5281,4.7027,4.4796,4.4187,4.4506,4.11,3.8823,3.7204,3.4385,0.0,0.0,0.0,0.0,0.0,0.0,0.0,0.0,0.0,0.0,0.0,0.0,0.0,3.9683,4.4705,4.7462,4.9669,5.2833,5.353,5.3297,5.2717,5.1962,5.0888,4.8972,4.6969,4.5198,0.0,0.0,4.3747,4.6314,4.6894,4.8112,5.1236,5.0685,4.9698,0.0,0.0,0.0,0.0,0.0,0.0,4.8779,0.0,5.0714,5.0714,5.0714,5.0714,5.0734,5.0066,4.9717,4.9717,4.9717,4.9717,4.9717,4.9059,4.8449,4.7811,4.7201,4.6563,4.5924,4.5924,4.5924,4.5895,4.5895,4.5562,4.5069,4.5693,4.5607,4.5263,4.6524,4.6501,4.5804,0.0,0.0,0.0,0.0,0.0,0.0,0.0,0.0,0.0,0.0,0.0,0.0,0.0,0.0,0.0,0.0,0.0,0.0,2.2356,2.4191,2.5297,2.5368,2.7691,2.9178,2.9654,3.0433,3.1203,3.198,3.2052,3.3146,3.5139,3.5401,3.6308,3.7684,3.8169,3.8438,3.8379,3.7887,3.7771,3.7713,0.0,3.4477,3.4269,0.0,0.0,0.0,0.0,0.0,0.0,0.0,0.0,0.0,0.0,3.333,3.5501,0.0,0.0,4.4618,4.784,5.0133,5.2136,5.4371,5.3849,5.2775,5.2652,5.0598,4.8362,4.6911,4.3573,4.1105,0.0,0.0,0.0,4.5634,4.8537,0.0,5.2136,5.2891,0.0,5.173,0.0,5.0627,4.9988,5.0075,0.0,0.0,5.0917,5.1381,5.1381,5.1381,5.1149,5.0685,5.0066,4.9717,4.9717,4.9717,4.9717,4.9717,4.9524,4.9088,4.8478,4.8257,4.759,4.6592,4.6592,4.633,4.5895,4.5895,4.6092,4.6402,4.6577,4.6591,4.6637,4.7947,4.73,4.5988,0.0,0.0,0.0,0.0,0.0,0.0,0.0,0.0,0.0,0.0,0.0,0.0,0.0,0.0,0.0,0.0,0.0,0.0,0.0,2.2489,2.3062,2.3245,2.4501,2.5405,2.5889,2.6413,2.6903,2.7387,2.8014,2.9114,3.0663,3.1453,3.2422,3.3603,3.3934,3.4198,3.439,3.3417,0.0,0.0,0.0,0.0,0.0,0.0,0.0,0.0,0.0,2.7781,2.9174,3.0305,3.189,3.3614,3.4929,3.7076,3.9605,4.1848,0.0,4.8159,5.1033,5.2601,5.3675,5.4749,5.3559,5.1788,5.0365,4.8014,4.5518,4.3398,4.006,0.0,3.8501,3.8812,0.0,0.0,0.0,0.0,5.1439,5.2601,5.3181,0.0,5.2659,0.0,5.1606,5.1497,5.1497,0.0,5.1846,5.2049,5.2049,5.1759,5.1439,5.1091,5.0162,4.9717,4.9717,4.9717,4.9717,4.9717,4.9717,4.9349,4.8663,4.8663,4.7996,4.6778,0.0,4.6475,4.5895,4.5895,4.6269,4.6975,4.7435,4.7798,4.8264,4.9671,4.9006,4.7659,0.0,0.0,0.0,0.0,0.0,0.0,0.0,0.0,0.0,0.0,0.0,0.0,0.0,0.0,0.0,0.0,0.0,0.0,0.0,0.0,0.0,2.1822,2.1744,2.1839,2.2174,2.2432,2.2668,2.2852,2.4551,2.5799,2.6682,2.8329,2.9601,3.0478,0.0,0.0,0.0,0.0,0.0,0.0,0.0,0.0,0.0,0.0,0.0,0.0,2.6123,2.8041,3.086,3.3126,3.5096,3.707,3.916,4.1512,4.4008,4.6633,4.8769,5.0859,5.3936,5.4691,5.4604,5.4546,5.292,5.054,4.7358,4.4966,4.2469,3.9334,0.0,3.4927,3.5131,3.5764,3.7418,4.0786,0.0,4.6475,5.0278,5.141,5.231,5.35,5.3704,5.3559,5.3007,5.2862,5.2833,5.2833,5.2798,5.2688,5.2688,5.2078,5.1672,5.1497,5.0307,4.9717,4.9717,4.9717,4.9717,4.9717,4.9717,4.9378,4.8856,4.8856,4.8235,4.7194,0.0,0.0,4.6326,4.6104,4.6491,4.7249,4.8221,4.9044,4.9805,5.1247,5.091,4.9801,0.0,0.0,0.0,0.0,0.0,0.0,0.0,0.0,0.0,0.0,2.0937,2.0252,0.0,0.0,0.0,0.0,0.0,0.0,0.0,0.0,0.0,0.0,2.1896,2.2141,2.204,0.0,0.0,0.0,0.0,0.0,2.4138,2.4365,2.4658,0.0,0.0,0.0,0.0,0.0,0.0,0.0,0.0,0.0,0.0,0.0,0.0,0.0,2.7837,2.894,3.0513,3.4491,3.7099,3.9218,4.2208,4.4531,4.6766,4.9872,5.1759,5.3326,5.5474,5.5678,5.5126,5.4633,5.2252,4.9349,4.665,4.2934,0.0,0.0,3.3964,3.2513,3.362,3.5183,3.7709,4.1976,4.4821,4.7666,5.0975,5.2455,5.3471,0.0,5.4778,5.5039,0.0,0.0,0.0,0.0,0.0,0.0,5.3355,5.2746,5.1933,5.0888,5.0075,4.9717,4.9717,4.9717,4.9717,4.9717,4.9717,4.9611,4.9524,4.9524,4.9424,4.9195,0.0,0.0,4.8364,4.7183,4.7465,4.8584,4.9125,4.9757,5.0454,5.1429,5.1237,5.049,0.0,0.0,0.0,0.0,0.0,0.0,0.0,2.2459,2.2735,2.3312,2.2998,2.2234,2.0886,2.066,0.0,0.0,0.0,0.0,0.0,0.0,0.0,0.0,0.0,0.0,0.0,0.0,0.0,0.0,0.0,0.0,0.0,0.0,0.0,0.0,0.0,0.0,0.0,0.0,0.0,0.0,0.0,0.0,0.0,0.0,0.0,0.0,0.0,2.8177,2.9697,3.268,3.5693,3.9131,4.4327,4.7056,4.8837,5.1759,5.3268,5.4371,5.5968,5.591,5.5184,5.4226,5.1323,4.7695,4.3776,0.0,0.0,0.0,3.138,3.0829,3.1818,3.379,3.6344,3.9509,4.2179,4.5082,4.8624,5.0511,5.2136,5.3791,5.4836,5.53,0.0,0.0,0.0,0.0,0.0,0.0,5.35,5.292,5.1868,5.022,5.0191,5.0017,4.9717,4.9717,4.9717,4.9717,4.9717,4.9717,4.9717,5.0105,5.0106,4.9753,0.0,0.0,4.8905,4.7865,4.7988,4.8913,4.9327,5.0033,5.0908,5.154,5.1218,5.0408,0.0,0.0,0.0,0.0,0.0,0.0,0.0,2.3276,2.3588,2.4601,2.4931,2.4368,2.2563,2.1543,2.0837,0.0,0.0,0.0,0.0,0.0,0.0,0.0,0.0,0.0,0.0,0.0,0.0,0.0,0.0,0.0,0.0,0.0,0.0,0.0,0.0,0.0,0.0,0.0,0.0,0.0,0.0,0.0,0.0,0.0,0.0,0.0,0.0,2.7348,2.8706,3.068,3.3545,3.7324,4.3573,4.7085,4.9378,5.1737,5.31,5.4197,5.562,5.562,5.4923,5.3646,5.0423,4.6272,4.125,3.7455,0.0,3.019,2.9291,2.9436,3.0219,3.2251,3.4574,3.6925,3.9218,4.2121,4.6198,4.8478,5.0598,0.0,5.4546,0.0,0.0,0.0,0.0,0.0,0.0,0.0,5.35,5.292,5.1817,5.0133,5.0481,5.0415,4.9746,4.9863,4.996,4.996,5.0105,5.0172,5.0172,5.0745,5.0823,5.0469,0.0,0.0,0.0,4.8534,4.8532,4.9147,4.9559,5.0267,5.1172,5.1614,5.1325,5.0651,0.0,0.0,0.0,0.0,0.0,0.0,0.0,2.4213,2.5229,2.5129,2.5933,2.5816,2.4001,2.2636,2.1404,0.0,0.0,0.0,0.0,0.0,0.0,0.0,0.0,0.0,0.0,0.0,0.0,0.0,0.0,0.0,0.0,0.0,0.0,0.0,0.0,0.0,0.0,0.0,0.0,0.0,0.0,0.0,0.0,0.0,0.0,0.0,0.0,0.0,2.7853,3.057,3.2069,3.3392,3.7092,4.1947,4.6621,4.8432,0.0,0.0,5.4168,5.4633,5.4284,5.2978,4.9756,4.5721,4.1134,0.0,3.2748,2.9464,2.8303,2.8246,2.9465,3.0828,3.2974,3.6722,3.8463,4.1134,4.6082,4.846,5.0452,5.2426,0.0,0.0,0.0,0.0,0.0,0.0,0.0,0.0,0.0,5.292,5.2223,5.1468,5.0946,5.0415,4.9746,5.0364,5.0728,5.0728,5.1403,5.1697,5.1697,5.1743,5.2124,5.2617,0.0,0.0,0.0,4.9595,4.9188,4.9821,5.0253,5.0685,5.1172,5.1614,5.1951,5.2075,0.0,0.0,0.0,0.0,0.0,0.0,2.3449,2.4354,2.5187,2.605,2.6132,2.5826,2.5089,2.325,2.1674,0.0,0.0,0.0,0.0,0.0,0.0,0.0,0.0,0.0,0.0,0.0,0.0,0.0,0.0,0.0,0.0,0.0,0.0,0.0,0.0,0.0,0.0,0.0,0.0,0.0,0.0,0.0,0.0,0.0,0.0,0.0,0.0,0.0,0.0,0.0,2.9871,3.1404,3.2044,3.5091,3.9392,0.0,4.7184,4.9407,5.2514,5.3355,5.321,5.2739,4.9088,4.4472,3.9973,0.0,3.1874,2.8274,2.7636,2.8101,2.9378,3.0016,3.138,3.4486,3.5096,3.6838,4.157,4.3921,4.6417,4.9843,5.2281,0.0,0.0,0.0,0.0,0.0,0.0,0.0,0.0,5.3268,5.2659,5.1643,5.1804,5.1582,5.0934,5.1285,5.1496,5.1496,5.1743,5.188,5.1926,5.2366,5.2726,5.2931,0.0,0.0,0.0,5.0187,4.9661,4.9971,5.0331,5.0755,5.1172,5.1614,5.1753,5.1713,0.0,0.0,0.0,0.0,0.0,2.2536,2.3799,2.4369,2.5031,2.6107,2.5844,2.5446,2.5179,2.3192,2.1683,2.1123,0.0,0.0,0.0,0.0,0.0,0.0,0.0,0.0,0.0,0.0,0.0,0.0,0.0,0.0,0.0,0.0,0.0,0.0,0.0,0.0,0.0,0.0,0.0,0.0,0.0,0.0,0.0,0.0,0.0,0.0,0.0,0.0,0.0,0.0,0.0,2.9143,2.8194,2.958,3.2864,3.9605,4.34,4.6214,4.9872,5.1439,5.2013,5.181,4.8079,4.3394,0.0,0.0,3.1066,2.7625,2.7341,2.8014,2.9116,2.9639,3.0568,3.2571,3.3151,3.4695,3.8527,4.0887,4.3669,0.0,0.0,0.0,0.0,0.0,0.0,0.0,0.0,0.0,0.0,5.3535,5.304,5.1933,5.2426,5.2407,5.1784,5.206,5.223,5.223,5.2426,5.2516,5.2592,5.3113,5.3334,0.0,0.0,0.0,0.0,5.05,4.9939,5.0097,5.0409,5.0832,5.1359,5.1688,5.172,5.1614,0.0,0.0,0.0,0.0,0.0,0.0,0.0,2.4359,2.4985,2.4907,2.51,2.4844,2.3909,2.2374,2.1314,2.1036,0.0,0.0,0.0,0.0,0.0,0.0,0.0,0.0,0.0,0.0,2.1773,2.2506,2.3361,0.0,0.0,0.0,0.0,0.0,0.0,0.0,0.0,0.0,0.0,0.0,0.0,0.0,0.0,0.0,0.0,0.0,0.0,0.0,0.0,0.0,0.0,0.0,0.0,2.6199,2.8154,3.4146,3.8871,4.2847,4.5966,4.874,5.0589,4.9921,4.6632,4.2485,0.0,3.4247,3.0277,2.7712,2.7474,2.7898,2.8565,2.9755,3.0801,3.1438,3.3674,3.6172,3.8495,4.0998,4.3466,0.0,0.0,0.0,0.0,0.0,0.0,0.0,0.0,0.0,0.0,5.3641,5.336,5.2594,5.2662,5.2407,5.1784,5.2597,5.298,5.3024,5.3726,5.4103,5.4103,5.4103,0.0,0.0,0.0,0.0,0.0,5.05,5.0136,5.0486,5.0525,5.1022,5.1794,5.1794,5.205,5.2274,0.0,0.0,0.0,0.0,0.0,0.0,0.0,2.324,2.3707,2.424,2.348,2.3367,2.451,2.193,2.0589,2.1841,0.0,0.0,0.0,0.0,0.0,0.0,0.0,0.0,0.0,0.0,2.2952,2.3169,2.4518,2.5037,2.4818,0.0,0.0,0.0,0.0,0.0,0.0,0.0,0.0,0.0,0.0,0.0,0.0,0.0,0.0,0.0,0.0,0.0,0.0,0.0,0.0,0.0,0.0,0.0,0.0,2.9138,3.322,0.0,4.0205,4.1983,4.3052,4.2848,4.0626,3.7849,3.5278,3.2431,2.9718,2.765,2.715,2.7403,2.8505,2.9348,3.0713,3.309,3.4922,3.6662,0.0,0.0,0.0,0.0,0.0,0.0,0.0,0.0,0.0,0.0,0.0,0.0,0.0,0.0,5.3562,5.336,5.3537,5.3498,5.3315,5.3588,5.3726,5.3726,5.4017,5.4103,5.4103,5.4103,0.0,0.0,0.0,0.0,0.0,5.0779,5.0409,5.0563,5.1167,5.154,5.1831,5.2122,5.2302,5.2376,0.0,0.0,0.0,0.0,0.0,0.0,0.0,2.2821,2.3037,2.351,2.2322,2.2009,2.359,2.1158,1.9901,2.1165,0.0,0.0,0.0,0.0,0.0,0.0,0.0,0.0,0.0,2.2276,2.2998,2.397,2.4724,2.513,2.5255,2.5535,2.5336,0.0,0.0,0.0,0.0,0.0,0.0,0.0,0.0,0.0,2.4317,0.0,0.0,0.0,0.0,0.0,0.0,0.0,0.0,0.0,0.0,0.0,0.0,0.0,2.9505,3.2828,3.5873,3.793,3.9207,3.9084,3.7297,0.0,0.0,3.1303,2.922,2.7786,2.7491,2.7695,2.8488,2.9517,3.0866,3.2656,3.4723,0.0,0.0,0.0,0.0,0.0,0.0,0.0,0.0,0.0,0.0,0.0,0.0,0.0,0.0,0.0,5.4092,5.3851,5.3898,5.3971,5.3971,5.4072,5.4103,5.4103,5.385,5.3724,5.3724,0.0,0.0,0.0,0.0,0.0,0.0,5.0809,5.0602,5.0794,5.1503,5.1904,5.205,5.2302,5.2243,5.1978,0.0,0.0,0.0,0.0,0.0,0.0,0.0,0.0,2.2952,2.2889,2.1602,2.0952,2.1665,2.0326,1.9383,1.9439,0.0,0.0,0.0,0.0,0.0,0.0,0.0,0.0,0.0,2.1417,2.2329,2.4858,2.4433,2.4871,2.6156,2.5655,2.5306,2.5132,2.4365,2.4578,0.0,0.0,0.0,0.0,0.0,0.0,0.0,0.0,0.0,0.0,0.0,0.0,0.0,0.0,0.0,0.0,0.0,0.0,0.0,0.0,0.0,0.0,0.0,3.5777,3.7817,3.7445,3.5821,3.394,3.2762,3.0637,0.0,2.8141,2.8222,2.8491,2.8581,3.0078,3.1213,3.0823,0.0,0.0,0.0,4.0275,0.0,0.0,0.0,0.0,0.0,0.0,0.0,0.0,0.0,0.0,0.0,0.0,0.0,5.4092,5.403,5.3999,5.3999,5.4009,5.404,5.4008,5.3344,5.3028,5.3028,0.0,0.0,0.0,0.0,0.0,0.0,5.0657,5.0794,5.121,5.1651,5.2086,5.2373,5.2343,5.1912,5.1216,0.0,0.0,0.0,0.0,0.0,0.0,0.0,0.0,0.0,0.0,2.1989,2.1663,2.2173,2.0959,2.0058,0.0,0.0,0.0,0.0,0.0,0.0,0.0,0.0,0.0,0.0,2.2938,2.3826,2.556,2.6577,2.7337,2.7763,2.8144,2.7763,2.6745,2.5891,2.5226,2.473,0.0,0.0,0.0,0.0,0.0,0.0,0.0,0.0,0.0,2.6019,2.6542,0.0,0.0,0.0,0.0,0.0,0.0,0.0,0.0,2.7242,0.0,2.8824,0.0,3.1024,3.0506,3.0141,2.9802,0.0,2.8814,2.8202,2.805,2.7886,2.8124,2.9142,3.0073,3.1331,3.3154,0.0,0.0,3.8549,0.0,0.0,0.0,0.0,0.0,0.0,0.0,0.0,0.0,0.0,0.0,0.0,0.0,0.0,5.4807,5.4348,5.4065,5.4065,5.3575,5.3344,5.3344,5.2618,5.227,5.227,0.0,0.0,0.0,0.0,0.0,0.0,5.1121,5.121,5.1688,5.2122,5.2302,5.2307,5.1779,5.1448,5.1216,0.0,0.0,0.0,0.0,0.0,0.0,0.0,0.0,0.0,0.0,0.0,0.0,0.0,0.0,0.0,0.0,0.0,0.0,0.0,0.0,0.0,0.0,0.0,0.0,2.3776,2.3528,2.4508,2.6871,2.7377,2.817,2.918,2.9312,2.8678,2.7306,2.6193,2.5462,2.5072,2.4688,2.4813,0.0,0.0,0.0,0.0,0.0,0.0,0.0,2.6282,2.6757,0.0,2.6534,2.648,2.6811,0.0,0.0,0.0,0.0,2.7677,2.807,2.7902,2.8589,2.9264,2.8753,2.875,2.8873,2.8873,2.8504,2.8192,2.8192,2.8307,2.8632,2.936,3.027,3.1548,0.0,3.5955,0.0,0.0,0.0,0.0,0.0,0.0,0.0,0.0,0.0,0.0,0.0,0.0,0.0,0.0,0.0,0.0,0.0,5.4292,5.3945,5.3629,5.3281,5.2934,5.2586,5.1891,5.1543,5.1543,0.0,0.0,0.0,0.0,0.0,5.1108,5.1334,5.1577,5.1835,5.1867,5.1912,5.1812,5.1048,5.0585,5.022,0.0,0.0,0.0,0.0,0.0,0.0,0.0,0.0,0.0,0.0,0.0,0.0,0.0,0.0,0.0,0.0,0.0,0.0,0.0,0.0,0.0,0.0,0.0,2.3375,2.4572,2.366,2.4747,2.7914,2.7567,2.8401,3.0275,3.0058,2.9118,2.7507,2.6098,2.5568,2.5634,2.504,2.5309,0.0,2.5499,0.0,0.0,0.0,0.0,0.0,0.0,0.0,0.0,2.738,2.7372,2.7488,2.8073,0.0,0.0,0.0,0.0,0.0,2.8658,2.9444,3.005,2.9388,2.9402,2.9525,2.9402,2.9058,2.8719,2.8719,2.9156,2.9617,2.9827,3.0874,0.0,0.0,0.0,0.0,0.0,0.0,0.0,0.0,0.0,0.0,0.0,0.0,0.0,0.0,0.0,0.0,0.0,0.0,0.0,0.0,5.4008,5.3629,5.2934,5.2934,5.2586,5.1828,5.1132,5.0816,5.0816,5.0816,0.0,0.0,0.0,0.0,5.0755,5.1503,5.1765,5.1711,5.1407,5.1249,5.1015,5.032,4.9657,4.9094,0.0,0.0,0.0,0.0,0.0,0.0,0.0,0.0,0.0,0.0,0.0,0.0,0.0,0.0,0.0,0.0,0.0,0.0,0.0,0.0,0.0,0.0,2.306,2.3301,2.5035,2.4055,2.4704,2.7089,2.818,2.9342,3.0558,3.1622,3.0797,2.8361,2.6925,2.5847,2.5135,2.5415,2.559,2.5688,0.0,0.0,0.0,0.0,0.0,0.0,0.0,0.0,0.0,2.7248,2.7208,2.7426,2.7519,0.0,0.0,0.0,0.0,0.0,2.9771,3.0823,3.1116,2.9051,2.9402,3.0109,2.9525,2.974,3.0079,3.0079,3.0171,3.0571,3.1736,3.2567,3.3621,0.0,0.0,0.0,0.0,0.0,0.0,0.0,0.0,0.0,0.0,0.0,0.0,0.0,0.0,0.0,0.0,0.0,0.0,0.0,0.0,5.2902,5.2175,5.2175,5.1828,5.1132,5.0437,5.0089,5.0089,5.0089,5.0224,0.0,0.0,0.0,5.1614,5.1725,5.1619,5.1343,5.1313,5.0916,5.0286,4.9558,4.9193,4.9028,0.0,0.0,0.0,0.0,0.0,0.0,0.0,0.0,0.0,0.0,0.0,0.0,0.0,0.0,0.0,0.0,0.0,0.0,0.0,0.0,0.0,2.5881,2.5304,2.5403,2.6354,2.5653,2.6761,2.9793,3.0552,3.1603,3.2948,3.2176,3.0526,2.8183,2.7126,2.6301,2.5727,2.5882,2.6292,2.6838,0.0,0.0,0.0,0.0,0.0,0.0,0.0,0.0,0.0,0.0,2.7854,2.795,2.795,0.0,0.0,0.0,0.0,0.0,2.915,3.019,3.0853,2.9942,3.1119,3.2368,3.1704,3.1764,3.2063,3.2405,3.2765,3.3251,3.4039,0.0,3.7309,4.007,0.0,0.0,0.0,0.0,0.0,0.0,0.0,0.0,0.0,0.0,0.0,0.0,0.0,0.0,0.0,0.0,0.0,0.0,0.0,5.2586,5.1448,5.1448,5.1101,5.0405,5.0089,4.9892,4.9931,5.0136,5.0331,0.0,0.0,5.1429,5.1798,5.1622,5.1437,5.1216,5.0419,4.9889,4.9525,4.8796,4.8763,4.8995,0.0,0.0,0.0,0.0,0.0,0.0,0.0,0.0,0.0,0.0,0.0,0.0,0.0,0.0,0.0,0.0,0.0,0.0,0.0,0.0,2.513,2.6776,2.71,2.761,2.8415,2.7886,2.9234,3.259,3.2743,3.3489,3.4801,3.2308,3.0076,2.8139,2.7342,2.6658,2.609,2.6438,2.703,2.7682,0.0,0.0,0.0,0.0,0.0,0.0,0.0,0.0,0.0,0.0,0.0,0.0,0.0,0.0,0.0,2.8411,2.8411,2.8473,2.8781,2.9782,3.088,3.1492,3.2826,3.3992,3.4049,3.4135,3.4502,3.5429,3.6011,3.635,0.0,3.8124,0.0,4.4713,0.0,0.0,0.0,0.0,0.0,0.0,0.0,0.0,0.0,0.0,0.0,0.0,0.0,0.0,0.0,0.0,0.0,0.0,0.0,0.0,5.1015,5.0816,5.0469,4.9892,4.9892,4.9892,4.9931,5.0331,5.0467,5.0422,5.1206,5.1605,5.1681,5.1407,5.1216,5.0916,4.979,4.916,4.8796,4.8398,4.863,4.9061,0.0,0.0,0.0,0.0,0.0,0.0,0.0,0.0,0.0,0.0,0.0,0.0,0.0,0.0,0.0,0.0,0.0,0.0,0.0,0.0,2.5145,2.5414,2.6883,2.8854,3.1443,3.0715,3.1358,3.3495,3.3624,3.3942,3.4308,3.2266,3.0467,2.8972,2.7968,2.6772,2.5567,2.7115,2.7476,2.7077,2.8225,0.0,0.0,0.0,0.0,0.0,0.0,0.0,0.0,0.0,0.0,0.0,0.0,0.0,2.8411,2.8411,2.8411,2.8688,2.9925,3.1033,3.2186,3.3755,3.3577,3.3547,3.5541,3.6484,3.7464,3.9386,3.976,3.9497,0.0,3.992,4.2598,4.7331,0.0,0.0,0.0,0.0,0.0,0.0,0.0,0.0,0.0,0.0,0.0,0.0,0.0,0.0,0.0,0.0,0.0,0.0,0.0,0.0,5.1015,5.0311,4.9963,4.9892,4.9892,4.9892,4.9931,5.0331,5.0364,5.0126,5.0598,5.0994,5.1347,5.128,5.0883,5.0286,5.0187,4.9293,4.8166,4.8796,4.9061,4.9193,0.0,0.0,0.0,0.0,0.0,0.0,0.0,0.0,0.0,0.0,0.0,0.0,0.0,0.0,0.0,0.0,0.0,0.0,0.0,0.0,2.617,2.7065,2.8109,2.9543,3.1329,3.1188,3.2463,3.5213,3.5558,3.556,3.5169,3.3106,3.1506,3.0402,2.9067,2.8285,2.7956,2.8156,2.8234,2.8352,2.921,2.9233,0.0,0.0,0.0,0.0,0.0,0.0,0.0,0.0,2.9164,2.8772,2.8772,2.8473,2.8168,2.8168,2.829,2.8504,2.9027,3.0487,3.2189,3.3393,3.452,3.5904,3.8113,3.9475,4.0783,4.2682,4.3754,4.4173,0.0,0.0,4.6015,0.0,0.0,0.0,0.0,0.0,0.0,0.0,0.0,0.0,0.0,0.0,0.0,0.0,0.0,0.0,0.0,0.0,0.0,0.0,0.0,0.0,0.0,4.9615,4.9268,4.9268,4.971,4.9892,4.9931,5.0602,5.0596,5.0135,5.0788,5.0911,5.0585,5.0121,4.9756,4.9491,4.9028,4.8498,4.8034,4.8332,4.8995,4.9756,0.0,0.0,0.0,0.0,0.0,0.0,0.0,0.0,0.0,0.0,0.0,0.0,0.0,0.0,0.0,0.0,0.0,0.0,2.6157,2.6239,2.6616,2.7462,2.8392,2.9329,3.013,3.1089,3.3083,3.6125,3.6678,3.6273,3.4882,3.3186,3.1831,3.0827,2.9924,2.9566,2.956,2.9281,2.9284,2.9531,2.969,2.958,0.0,0.0,0.0,0.0,0.0,0.0,0.0,0.0,2.9924,2.926,2.9047,2.8682,2.8298,2.8323,2.8369,2.8442,2.8658,3.0046,3.1728,3.2975,3.51,3.7693,4.0673,4.2034,4.3407,4.5855,4.6756,4.7088,4.7159,0.0,0.0,0.0,0.0,0.0,0.0,0.0,0.0,0.0,0.0,0.0,0.0,0.0,0.0,0.0,0.0,0.0,0.0,0.0,0.0,0.0,0.0,0.0,0.0,4.9236,4.8794,4.8573,4.9047,4.9299,4.9299,5.008,5.0196,4.9779,5.0371,5.0452,5.0154,4.9425,4.9094,4.9028,4.8299,4.8001,4.8034,4.8266,4.8995,4.9823,0.0,0.0,0.0,0.0,0.0,0.0,0.0,0.0,0.0,0.0,0.0,0.0,0.0,0.0,0.0,0.0,0.0,0.0,2.6214,2.6279,2.619,2.5994,2.7347,2.8063,2.8063,3.0618,3.3257,3.5996,3.6731,3.5717,3.308,3.2232,3.1182,3.0076,3.0513,3.0393,2.9891,3.0522,3.0628,3.0354,2.963,2.9665,3.0061,0.0,0.0,0.0,0.0,0.0,0.0,0.0,3.0204,2.9815,2.9199,2.8961,2.891,2.8986,2.8706,2.8565,2.9243,2.9894,3.0876,3.2826,3.5264,3.8417,4.2986,4.4008,4.5128,4.9005,4.8555,4.7671,4.847,4.8009,0.0,0.0,0.0,0.0,0.0,0.0,0.0,0.0,0.0,0.0,0.0,0.0,0.0,0.0,0.0,0.0,0.0,0.0,0.0,0.0,0.0,0.0,0.0,4.9205,4.8541,4.7877,4.7877,4.7877,4.7947,4.8666,4.8994,4.9001,4.9052,4.9525,5.0121,4.9392,4.9094,4.9028,4.8299,4.8001,4.81,4.8829,4.9094,4.9226,0.0,0.0,0.0,0.0,0.0,0.0,0.0,0.0,0.0,0.0,0.0,0.0,0.0,0.0,0.0,0.0,0.0,0.0,2.4647,2.5093,2.5236,2.5092,2.6442,2.6906,2.636,2.85,3.1171,3.4386,3.4813,3.451,3.3652,3.3023,3.2781,3.2886,3.2522,3.2296,3.206,3.1135,3.0721,3.0651,3.0279,2.9954,2.978,0.0,0.0,0.0,0.0,0.0,0.0,0.0,0.0,0.0,2.9845,2.9195,2.8677,2.8935,2.8706,2.8565,2.9243,3.0228,3.1595,3.354,3.6645,4.0178,4.379,4.4995,4.644,5.0366,5.0516,4.9708,4.9304,0.0,0.0,0.0,0.0,0.0,0.0,0.0,0.0,0.0,0.0,0.0,0.0,0.0,0.0,0.0,0.0,0.0,0.0,0.0,0.0,0.0,0.0,0.0,0.0,0.0,4.749,4.7526,4.7016,4.7303,4.8291,4.8776,4.8846,4.8672,4.8957,4.8928,4.863,4.8431,4.8332,4.8299,4.81,4.8001,4.8034,4.8266,4.8663,4.9127,0.0,0.0,0.0,0.0,0.0,0.0,0.0,0.0,0.0,0.0,2.2255,2.2103,0.0,0.0,0.0,0.0,0.0,0.0,0.0,2.5276,2.535,2.5187,2.591,2.6315,2.6328,2.7814,2.9743,3.203,3.2698,3.2826,3.2421,3.2994,3.3537,3.405,3.4262,3.4053,3.3494,3.2546,3.1901,3.1549,3.1117,3.0686,3.0352,0.0,0.0,0.0,0.0,0.0,0.0,0.0,0.0,0.0,2.9934,2.9399,2.8933,2.9,2.8814,2.8797,2.9745,3.089,3.2348,3.4685,3.8003,4.1645,4.5243,4.694,4.8664,5.1625,5.1482,5.0834,5.0865,0.0,0.0,0.0,0.0,0.0,0.0,0.0,0.0,0.0,0.0,0.0,0.0,0.0,0.0,0.0,0.0,0.0,0.0,0.0,0.0,0.0,0.0,0.0,0.0,0.0,0.0,4.6973,4.6667,4.7033,4.8013,4.8261,4.8407,4.8518,4.8926,4.8696,4.8001,4.8001,4.8001,4.8001,4.8001,4.8001,4.8001,4.8001,4.8299,4.8663,0.0,0.0,0.0,0.0,0.0,0.0,0.0,0.0,0.0,0.0,2.3135,2.2936,0.0,0.0,0.0,0.0,0.0,0.0,0.0,0.0,2.5982,2.5764,2.5659,2.6199,2.758,2.8083,2.8651,2.9342,3.0609,3.0902,3.0354,3.2507,3.3732,3.4143,3.557,3.5539,3.4398,3.4267,3.3664,3.2772,3.1967,3.1566,3.1278,3.0064,0.0,0.0,0.0,0.0,0.0,0.0,0.0,0.0,2.96,2.9505,2.9472,2.9122,2.8961,2.9213,3.061,3.1715,3.3149,3.6134,3.9492,4.3136,4.7245,4.9514,5.1111,5.2416,0.0,5.1304,5.2639,0.0,0.0,0.0,0.0,0.0,0.0,0.0,0.0,0.0,0.0,0.0,0.0,0.0,0.0,0.0,0.0,0.0,0.0,0.0,0.0,0.0,0.0,0.0,0.0,0.0,0.0,0.0,4.6756,4.7165,4.7536,4.7437,4.7765,4.8488,4.886,4.863,4.8001,4.8001,4.8001,4.8001,4.8001,4.8001,4.8001,4.8001,4.8001,4.8001,0.0,0.0,0.0,0.0,0.0,0.0,0.0,0.0,0.0,0.0,0.0,0.0,0.0,0.0,0.0,0.0,0.0,0.0,0.0,0.0,2.4976,2.4719,2.5123,2.6306,2.834,2.686,2.6732,2.8019,2.9278,3.0345,3.1173,3.2958,3.4118,3.4695,3.5776,3.5863,3.5082,3.3876,3.3267,3.3064,3.2263,3.1177,3.0064,2.9667,2.8799,0.0,0.0,0.0,0.0,0.0,0.0,0.0,2.9516,2.9511,2.9705,2.9143,2.8961,2.9303,3.1185,3.2228,3.3665,3.7298,4.196,4.665,5.0198,5.0892,5.0887,5.119,5.1466,5.1941,0.0,0.0,0.0,0.0,0.0,0.0,0.0,0.0,0.0,0.0,0.0,0.0,0.0,0.0,0.0,0.0,0.0,0.0,0.0,0.0,0.0,0.0,0.0,0.0,4.6266,4.6442,4.6638,0.0,4.7134,4.78,4.8695,4.7834,4.7637,4.8101,4.82,4.8166,4.8001,4.8001,4.8001,4.8001,4.8001,4.8001,4.8001,4.8001,4.8001,4.8001,0.0,0.0,0.0,0.0,0.0,0.0,0.0,0.0,0.0,0.0,0.0,0.0,0.0,0.0,0.0,0.0,0.0,0.0,0.0,0.0,0.0,2.4885,2.5465,2.6363,2.7589,2.6848,2.6977,2.8072,2.8747,2.9703,3.0943,3.2648,3.3912,3.4867,3.576,3.5435,3.4266,3.3719,3.3137,3.2585,3.2466,3.1499,3.0164,3.0028,2.8828,2.7233,0.0,0.0,0.0,0.0,0.0,0.0,0.0,0.0,2.9221,2.8688,2.8616,2.9124,3.1112,3.2496,3.4567,3.9487,4.3542,4.7115,4.9807,5.015,5.0147,5.1137,5.1971,0.0,0.0,0.0,0.0,0.0,0.0,0.0,0.0,0.0,0.0,0.0,0.0,0.0,0.0,0.0,0.0,0.0,0.0,0.0,0.0,0.0,0.0,0.0,0.0,0.0,4.5823,4.6333,4.6687,4.6927,4.7437,4.8001,4.8597,4.8694,4.886,4.9061,4.9061,4.8862,4.8531,4.8531,4.8332,4.8001,4.8001,4.8001,4.8001,4.8001,4.8001,4.8001,0.0,0.0,0.0,0.0,0.0,0.0,0.0,0.0,0.0,0.0,0.0,0.0,0.0,0.0,0.0,0.0,0.0,0.0,0.0,0.0,0.0,2.5908,2.6014,2.6462,2.7334,2.7483,2.7997,2.893,2.893,2.9621,3.0974,3.2239,3.354,3.4782,3.5492,3.4917,3.3461,3.3756,3.3297,3.2393,3.2724,3.1967,3.0712,3.0445,2.8956,2.6988,0.0,0.0,0.0,0.0,0.0,0.0,0.0,0.0,2.8632,2.8122,2.8273,2.8992,3.0829,3.2963,3.5961,4.1477,4.4298,4.622,4.8206,4.8818,4.9554,5.1431,0.0,0.0,0.0,0.0,0.0,0.0,0.0,0.0,0.0,0.0,0.0,0.0,0.0,0.0,0.0,0.0,0.0,0.0,0.0,0.0,0.0,0.0,0.0,0.0,0.0,4.59,4.59,4.6615,4.6931,4.6801,4.7506,4.7802,4.7868,4.9226,4.9823,4.9823,4.969,4.9293,4.873,4.873,4.8365,4.7835,4.7968,4.8001,4.8001,4.8001,4.8001,4.8001,0.0,0.0,0.0,0.0,0.0,0.0,0.0,0.0,0.0,0.0,2.5819,2.5643,0.0,0.0,0.0,0.0,0.0,0.0,0.0,0.0,0.0,2.7913,2.6172,2.6925,3.0672,2.8443,2.8231,3.0238,3.0238,3.1222,3.3073,3.2837,3.3406,3.4649,3.4878,3.4882,3.4723,3.4149,3.3878,3.3777,3.3266,3.2151,3.0702,2.9922,2.8286,0.0,0.0,0.0,0.0,0.0,2.7425,0.0,0.0,0.0,0.0,2.8044,2.8369,2.9312,3.0686,3.4288,3.8356,4.1453,4.3631,4.5565,4.754,0.0,5.0026,0.0,0.0,0.0,0.0,0.0,0.0,0.0,0.0,0.0,0.0,0.0,0.0,0.0,0.0,0.0,0.0,0.0,0.0,0.0,0.0,0.0,0.0,0.0,4.5823,4.5823,4.6084,0.0,4.623,4.6963,4.701,4.6388,4.6814,4.704,4.7073,4.7901,4.8299,4.8266,4.7636,4.7272,4.7206,4.7206,4.7139,4.7106,4.7736,4.8001,4.8001,4.8001,4.8001,4.8066,0.0,0.0,0.0,0.0,0.0,0.0,0.0,0.0,0.0,0.0,0.0,2.655,0.0,0.0,0.0,0.0,0.0,0.0,0.0,0.0,0.0,2.6634,2.5941,2.6862,2.9607,2.8812,2.9057,3.0441,3.0823,3.1801,3.3414,3.3634,3.4457,3.5709,3.5155,3.4742,3.4317,3.3508,3.3319,3.3518,3.312,3.2047,3.0679,0.0,0.0,0.0,0.0,0.0,0.0,0.0,0.0,2.6924,2.7149,0.0,0.0,0.0,2.7692,2.8303,3.0807,3.3988,3.7244,3.9828,4.1628,4.3407,4.5747,4.6983,4.8162,0.0,0.0,0.0,0.0,0.0,0.0,0.0,0.0,0.0,0.0,0.0,0.0,0.0,0.0,0.0,0.0,0.0,0.0,0.0,0.0,0.0,4.636,4.6013,4.5823,4.5823,4.6156,0.0,4.569,4.6414,4.6553,4.6023,4.6215,4.6278,4.6278,4.6609,4.7206,4.7968,4.7669,4.7272,4.6908,4.6908,4.6908,4.6941,4.7272,4.7636,4.8001,4.8001,4.8001,4.8066,0.0,0.0,0.0,0.0,0.0,0.0,0.0,0.0,0.0,0.0,0.0,0.0,0.0,0.0,0.0,0.0,0.0,0.0,0.0,0.0,0.0,2.5566,2.5687,2.6683,2.8735,2.8926,2.9529,3.0609,3.1117,3.2114,3.3561,3.4451,3.5772,3.7335,3.6053,3.4973,3.4047,3.3431,3.3283,3.3458,3.2972,3.212,3.1148,0.0,0.0,0.0,0.0,0.0,0.0,0.0,0.0,0.0,0.0,0.0,0.0,0.0,0.0,2.7595,3.0443,3.2752,3.4981,3.7441,3.9273,4.1077,0.0,0.0,0.0,0.0,0.0,0.0,0.0,0.0,0.0,0.0,0.0,0.0,0.0,0.0,0.0,0.0,0.0,0.0,0.0,0.0,0.0,0.0,0.0,0.0,4.6518,4.5886,4.5539,4.5539,4.578,4.5672,4.509,4.5636,4.576,4.5516,4.5317,4.5251,4.5251,4.5251,4.5847,4.6908,4.7073,4.6841,4.6344,4.6344,4.6344,4.6344,4.6543,4.7073,4.7736,4.7736,4.79,4.8227,0.0,0.0,0.0,0.0,0.0,0.0,0.0,0.0,0.0,0.0,0.0,0.0,0.0,2.8337,2.8044,2.8773,0.0,0.0,0.0,0.0,0.0,2.6198,2.5465,0.0,3.0014,2.8844,2.9137,3.116,3.1191,3.2234,3.4284,3.5149,3.7017,3.9529,3.7636,3.5998,3.4659,3.4654,3.4654,3.45,3.3157,3.2581,0.0,0.0,0.0,0.0,0.0,0.0,0.0,0.0,0.0,0.0,0.0,0.0,0.0,0.0,0.0,0.0,2.9027,3.047,3.2169,3.4456,3.6827,3.9086,0.0,0.0,0.0,0.0,0.0,0.0,0.0,0.0,0.0,0.0,0.0,0.0,0.0,0.0,0.0,0.0,0.0,0.0,0.0,0.0,0.0,0.0,0.0,0.0,4.5855,4.5159,4.478,4.478,4.4837,4.4851,4.4819,4.481,4.4787,4.4721,4.4059,4.3698,4.3698,4.3698,4.3764,4.3863,4.4556,4.4854,4.4787,4.4787,4.4787,4.4854,4.5582,4.6311,4.6974,4.6974,4.7691,4.8733,0.0,0.0,0.0,0.0,0.0,0.0,0.0,0.0,0.0,0.0,0.0,0.0,0.0,2.8666,2.8489,2.831,2.7904,0.0,0.0,0.0,0.0,2.5544,2.5615,2.6662,2.8812,2.879,2.9358,3.0559,3.1002,3.2045,3.3688,3.4546,3.5967,3.7719,3.7242,3.6689,3.603,3.4654,3.4078,3.402,3.3431,0.0,0.0,0.0,0.0,0.0,0.0,0.0,0.0,0.0,0.0,0.0,0.0,0.0,0.0,0.0,0.0,2.7365,2.8711,2.9754,3.0927,3.3066,3.517,3.7158,3.868,4.1032,0.0,0.0,0.0,0.0,0.0,0.0,0.0,0.0,0.0,0.0,0.0,0.0,0.0,0.0,0.0,0.0,0.0,0.0,0.0,0.0,0.0,0.0,4.5823,4.5096,4.4823,4.5034,4.4876,4.4789,4.4744,4.4235,4.3992,4.3992,4.3731,4.3598,4.3598,4.3598,4.3598,4.3598,4.3893,4.3992,4.3992,4.3992,4.4257,4.4721,4.4986,4.5814,4.6939,4.7254,4.7908,4.8827,0.0,0.0,0.0,0.0,0.0,0.0,0.0,0.0,0.0,0.0,0.0,0.0,0.0,0.0,2.9071,2.8318,2.8053,2.7416,2.6146,2.6341,2.629,2.5823,2.6165,2.702,2.841,2.8419,2.9011,3.0204,3.018,3.1002,3.2613,3.3668,3.4895,3.62,3.6454,3.6726,3.6826,3.5559,3.4766,3.4351,3.4192,0.0,3.322,0.0,0.0,0.0,0.0,0.0,0.0,0.0,0.0,0.0,0.0,0.0,0.0,0.0,0.0,0.0,2.7977,0.0,0.0,0.0,3.3351,3.5125,3.7129,0.0,0.0,0.0,0.0,0.0,0.0,0.0,0.0,0.0,0.0,0.0,0.0,0.0,0.0,0.0,0.0,0.0,0.0,0.0,0.0,0.0,0.0,0.0,4.5096,4.4538,4.4307,4.449,4.4334,4.4262,4.4324,4.383,4.3598,4.3598,4.3598,4.3598,4.3598,4.3598,4.3598,4.3598,4.3598,4.3598,4.3598,4.3598,4.3863,4.4324,4.4324,4.5178,4.646,4.6999,4.7906,4.8946,0.0,0.0,0.0,0.0,0.0,0.0,0.0,0.0,0.0,0.0,0.0,0.0,0.0,0.0,0.0,2.9083,2.8811,2.835,2.7618,2.7296,2.7158,2.7222,0.0,0.0,2.9051,2.781,2.8126,3.0172,2.8812,2.9169,3.1198,3.2582,3.3972,3.5331,3.5471,3.6051,3.6926,3.7361,3.6826,3.5622,0.0,3.5126,3.4722,0.0,0.0,0.0,3.4482,3.438,0.0,3.3848,0.0,0.0,0.0,0.0,0.0,0.0,0.0,0.0,0.0,0.0,0.0,0.0,0.0,0.0,3.6197,0.0,0.0,0.0,0.0,0.0,0.0,0.0,0.0,0.0,0.0,0.0,0.0,0.0,0.0,0.0,0.0,0.0,0.0,0.0,0.0,0.0,0.0,4.3706,4.3677,4.3381,4.317,4.3082,4.3113,4.3265,4.3565,4.3565,4.3565,4.3565,4.3565,4.3598,4.3631,4.3631,4.3631,4.3631,4.3631,4.3598,4.3598,4.3598,4.3598,4.3598,4.3628,4.4356,4.5475,4.6237,4.7534,4.9063,0.0,0.0,0.0,0.0,0.0,0.0,0.0,0.0,0.0,0.0,0.0,0.0,2.8908,2.9608,2.9973,2.9479,2.963,2.9044,2.7349,2.7622,2.7611,2.7158,2.7104,2.7494,2.8347,2.8,2.8347,2.9398,2.8988,2.939,3.0464,3.0875,3.2045,3.3909,3.4438,3.5435,3.6596,3.5263,3.5249,3.6118,3.5612,3.6213,0.0,0.0,0.0,0.0,0.0,3.6428,3.707,0.0,3.5414,3.4901,0.0,0.0,0.0,0.0,0.0,0.0,2.686,0.0,0.0,0.0,0.0,0.0,0.0,0.0,0.0,0.0,0.0,0.0,0.0,0.0,0.0,0.0,0.0,0.0,0.0,0.0,0.0,0.0,0.0,0.0,0.0,0.0,0.0,0.0,0.0,4.3516,4.2979,4.3326,4.3394,4.3115,4.3325,4.3244,4.2804,4.2804,4.2804,4.2804,4.2804,4.3363,4.439,4.439,4.439,4.439,4.439,4.4092,4.3598,4.3598,4.3598,4.3628,4.3948,4.4649,4.5496,4.6349,4.7286,4.8293,0.0,0.0,0.0,0.0,0.0,0.0,0.0,0.0,0.0,0.0,0.0,0.0,3.0014,3.0608,3.0846,3.0305,3.049,2.9959,2.8474,2.8781,2.8663,2.7946,2.7914,2.8126,2.8505,2.8221,2.8442,2.9114,2.883,2.9042,2.9738,3.0338,3.1255,3.2487,3.3719,3.4627,3.5153,3.4233,0.0,0.0,3.6242,0.0,0.0,3.8138,3.8488,0.0,0.0,0.0,3.9897,3.8293,3.6954,0.0,0.0,0.0,0.0,0.0,0.0,0.0,0.0,0.0,0.0,0.0,0.0,0.0,3.4214,3.5468,0.0,0.0,0.0,0.0,0.0,0.0,0.0,0.0,0.0,0.0,0.0,0.0,0.0,0.0,0.0,0.0,0.0,0.0,0.0,0.0,4.2347,4.2319,4.204,4.2784,4.3196,4.3113,4.3119,4.2936,4.2506,4.2506,4.234,4.2042,4.234,4.3131,4.4257,4.4257,4.439,4.4688,4.4688,4.4291,4.3598,4.3598,4.3717,4.3889,4.4179,4.479,4.5589,4.6382,4.7298,4.8285,0.0,0.0,0.0,0.0,0.0,0.0,0.0,0.0,0.0,0.0,0.0,3.2608,3.2829,3.2671,3.2228,0.0,3.1381,3.1033,3.0362,3.033,3.0022,2.9367,2.9335,2.9335,2.9335,2.8758,2.8695,2.9209,2.8695,2.8726,2.924,3.0567,3.123,3.1413,0.0,0.0,3.3435,3.3972,0.0,3.5979,3.706,3.7499,0.0,0.0,4.0833,4.0928,4.1117,4.1817,4.2263,4.0453,3.8166,0.0,0.0,0.0,0.0,0.0,3.1919,0.0,0.0,0.0,0.0,0.0,0.0,0.0,3.4835,3.534,3.5776,0.0,0.0,0.0,0.0,0.0,0.0,0.0,0.0,0.0,0.0,0.0,0.0,0.0,0.0,0.0,0.0,0.0,4.143,4.1367,4.0862,4.0738,4.1179,4.2039,4.2706,4.3012,4.269,4.2406,4.2274,4.234,4.2009,4.1309,4.2009,4.2804,4.3598,4.3598,4.4089,4.4879,4.4812,4.4444,4.3876,4.3776,4.3948,4.4293,4.435,4.4845,4.5693,4.6378,4.737,4.8451,0.0,0.0,0.0,0.0,0.0,0.0,0.0,0.0,0.0,3.3022,3.352,3.4569,3.6308,3.4948,3.3625,0.0,3.2418,3.1785,3.1065,3.1002,3.0939,3.0788,3.0788,3.0788,3.0788,3.0686,3.0401,3.0014,3.0401,3.0401,2.999,3.0844,3.1507,3.2102,3.2513,3.324,3.4067,0.0,0.0,3.6508,3.7221,0.0,4.1497,4.0895,4.099,4.1401,4.0927,4.1374,4.1917,4.0127,3.8752,3.7513,0.0,0.0,0.0,0.0,0.0,0.0,0.0,0.0,0.0,0.0,0.0,0.0,3.2636,3.3062,3.329,0.0,0.0,0.0,0.0,0.0,0.0,0.0,0.0,0.0,0.0,0.0,0.0,0.0,0.0,0.0,0.0,0.0,4.0546,3.9945,4.0038,4.0632,4.1757,4.201,4.2258,4.2617,4.2543,4.1972,4.0812,4.1342,4.1276,4.058,4.1309,4.2307,4.3598,4.3598,4.4534,4.6122,4.5526,4.5424,4.5563,4.4918,4.4513,4.4321,4.4652,4.5115,4.5649,4.613,4.6455,4.6881,0.0,0.0,0.0,0.0,0.0,0.0,0.0,0.0,3.4409,3.479,3.5742,3.6532,3.6911,3.5995,3.492,0.0,0.0,0.0,0.0,3.1729,3.1571,3.1198,3.1198,3.1198,3.1198,3.1198,3.1033,3.0686,3.1033,3.1033,3.0717,3.1413,3.1729,3.1792,3.2829,3.3303,3.3367,0.0,3.5169,3.6555,3.7225,0.0,4.118,4.1115,4.1304,4.1557,4.1209,4.1532,4.1917,4.0662,3.9787,0.0,0.0,3.5766,3.5218,0.0,3.3884,3.3777,0.0,0.0,0.0,3.3226,0.0,0.0,0.0,3.2893,3.3205,3.2841,0.0,0.0,0.0,0.0,0.0,0.0,0.0,0.0,0.0,0.0,0.0,0.0,0.0,0.0,0.0,0.0,3.9597,3.9752,3.9907,4.0373,4.1208,4.1386,4.1533,4.1679,4.1555,4.111,4.0409,4.0713,4.0547,3.9879,4.0547,4.1674,4.3035,4.3035,4.4127,4.5909,4.5572,4.5461,4.5473,4.5063,4.4927,4.4954,4.5169,4.5511,4.593,4.614,4.646,4.6906,2.7411,0.0,0.0,0.0,0.0,0.0,0.0,0.0,3.5687,3.7035,3.8081,3.8491,3.7861,3.7324,3.6722,0.0,0.0,0.0,0.0,3.2861,3.2165,3.1444,3.1539,3.1539,3.1413,3.1539,3.1539,3.1413,3.1539,3.1539,3.1444,3.2165,3.2234,3.1855,3.3403,3.3683,3.3019,3.4695,0.0,3.685,0.0,3.8614,3.9817,4.1116,4.1494,4.1399,4.1557,4.1785,4.1885,4.1181,0.0,3.9866,3.7623,3.6986,0.0,0.0,0.0,0.0,0.0,0.0,0.0,0.0,0.0,3.3331,0.0,0.0,0.0,3.3097,0.0,0.0,0.0,0.0,0.0,0.0,0.0,0.0,0.0,0.0,0.0,0.0,0.0,0.0,0.0,0.0,3.8412,3.9282,3.9604,3.9978,4.0463,4.0794,4.0976,4.0976,4.0601,4.0343,4.021,4.0343,4.0044,3.9315,4.0044,4.0978,4.2104,4.2323,4.3476,4.5318,4.5404,4.5409,4.5375,4.5203,4.5381,4.5727,4.5649,4.5854,4.6214,4.6214,4.66,4.7187,2.8861,2.958,0.0,0.0,0.0,0.0,0.0,0.0,3.7162,3.9787,3.9692,4.0293,4.2597,4.064,3.985,0.0,0.0,0.0,3.7701,0.0,3.2866,3.2196,3.274,3.2771,3.2196,3.274,3.2771,3.2165,3.2771,3.274,3.2196,3.2866,3.3467,3.3909,3.3561,3.4004,3.5047,0.0,3.65,0.0,3.8997,3.9345,0.0,4.1051,4.1209,4.0798,4.1367,4.1621,4.153,0.0,4.0385,4.0166,0.0,3.7335,3.7118,0.0,0.0,0.0,0.0,0.0,0.0,0.0,3.4547,0.0,0.0,0.0,3.2652,3.0742,0.0,0.0,0.0,0.0,0.0,0.0,0.0,0.0,0.0,0.0,0.0,0.0,0.0,0.0,0.0,0.0,0.0,3.6953,3.8188,3.9373,4.0337,4.0993,4.1352,4.1352,4.0746,4.0111,3.9415,4.0078,4.0044,3.9315,4.0044,4.0475,4.0674,4.1686,4.32,4.5063,4.5413,4.6152,4.706,4.6335,4.608,4.608,4.5752,4.5854,4.6214,4.6214,4.6249,4.6425,2.9801,3.0647,3.1627,0.0,0.0,0.0,0.0,0.0,3.985,4.102,4.1968,4.2979,4.418,0.0,0.0,0.0,0.0,3.8618,0.0,0.0,0.0,3.4668,3.3783,3.334,3.3462,3.334,3.334,3.3462,3.334,3.334,3.3462,3.334,3.3245,3.3177,3.3656,3.3972,3.4288,0.0,3.7101,0.0,0.0,0.0,0.0,4.1051,4.143,4.1209,4.1494,4.1588,4.1463,0.0,4.0769,0.0,0.0,0.0,0.0,0.0,0.0,0.0,0.0,0.0,0.0,0.0,0.0,0.0,0.0,0.0,3.3032,0.0,0.0,0.0,0.0,0.0,0.0,0.0,0.0,0.0,0.0,0.0,0.0,0.0,0.0,0.0,0.0,0.0,0.0,0.0,0.0,3.8827,4.0315,4.0249,4.0183,4.0183,3.9912,3.9613,3.9315,3.9613,3.9613,3.9315,3.9613,4.0086,4.0702,4.1681,4.3015,4.4682,4.5312,4.6003,4.667,4.6354,4.6214,4.6189,4.6005,4.603,4.6214,4.6214,4.6214,4.6249,3.0868,3.1596,3.2449,3.2929,0.0,0.0,3.6693,3.9281,4.1304,4.2062,4.3327,4.4591,4.5728,4.5096,0.0,0.0,4.3864,4.1999,0.0,0.0,3.6627,0.0,0.0,0.0,3.4036,3.3719,3.3719,3.4036,3.353,3.3561,3.4004,3.353,3.3119,3.2892,3.4094,3.4541,3.4604,0.0,3.8144,3.8491,4.0198,4.0546,4.0166,4.0988,4.143,4.1588,4.1588,4.1588,4.1526,4.0927,4.1117,0.0,3.9532,0.0,0.0,0.0,0.0,0.0,3.5143,0.0,0.0,0.0,0.0,0.0,0.0,0.0,0.0,0.0,0.0,0.0,0.0,0.0,0.0,0.0,0.0,0.0,0.0,0.0,0.0,0.0,0.0,0.0,0.0,0.0,0.0,0.0,3.7459,0.0,3.9123,3.9448,3.9613,3.9613,3.9613,3.9613,3.9613,3.9415,3.9315,3.9315,3.9388,3.9866,4.0666,4.1899,4.3057,4.4152,4.5275,4.593,4.6214,4.6214,4.6214,4.6214,4.6214,4.6214,4.6214,4.6214,4.6214,4.6214,3.2228,3.226,3.2291,3.2323,3.343,3.5236,3.8017,3.9092,4.0546,4.3261,4.3137,0.0,0.0,0.0,0.0,0.0,0.0,4.6329,4.5665,0.0,3.8934,0.0,0.0,3.5366,0.0,3.3941,3.3941,3.334,3.3309,3.3309,3.334,3.3309,3.3625,3.4257,3.5015,3.609,3.7478,3.8839,3.985,4.0546,4.1272,4.1557,4.1462,0.0,4.102,4.1588,4.1588,0.0,0.0,4.1277,4.1342,0.0,0.0,0.0,0.0,0.0,0.0,0.0,0.0,0.0,0.0,3.681,0.0,0.0,0.0,0.0,3.5917,0.0,0.0,0.0,0.0,0.0,0.0,0.0,0.0,0.0,0.0,0.0,0.0,0.0,0.0,0.0,0.0,0.0,0.0,0.0,3.4811,0.0,3.6141,3.8851,4.0376,4.0376,4.0376,4.0376,4.0376,3.968,3.9315,3.9282,3.9677,3.9918,4.0011,4.2249,4.3311,4.344,4.5341,4.6214,4.6214,4.6214,4.6214,4.6214,4.6214,4.6214,4.6214,4.6214,4.6214,4.6319,3.2961,3.2961,3.2961,3.2961,3.3688,3.5394,3.8681,4.0956,4.3801,0.0,4.9141,0.0,0.0,5.4956,5.4956,0.0,0.0,5.1132,4.9995,4.6234,0.0,0.0,0.0,3.8428,0.0,0.0,0.0,3.4699,3.3751,3.353,3.3941,3.3498,3.3435,3.3688,3.4857,3.59,0.0,0.0,0.0,0.0,0.0,4.1873,4.2252,0.0,0.0,4.1588,4.1588,4.1588,0.0,4.15,4.153,4.1463,4.0706,4.0071,3.9468,3.861,3.8125,0.0,0.0,0.0,3.8982,3.7169,0.0,0.0,0.0,0.0,0.0,0.0,0.0,0.0,0.0,0.0,0.0,0.0,0.0,0.0,0.0,0.0,0.0,0.0,0.0,0.0,0.0,0.0,0.0,3.4008,3.5289,3.6009,0.0,3.8354,3.9448,3.8957,3.9448,3.968,3.968,3.9415,3.9415,3.9677,3.9807,4.0163,4.068,4.2002,4.2995,4.3733,4.4962,4.5723,4.6214,4.6214,4.6214,4.6214,4.6214,4.6214,4.6214,4.6214,4.6214,4.6389,3.3719,3.3467,3.3309,3.3309,3.4478,3.6437,3.9439,4.3327,4.7245,0.0,5.3439,0.0,5.9665,0.0,5.9096,0.0,5.7484,5.5177,5.2586,5.0121,0.0,4.5539,4.3516,0.0,0.0,0.0,0.0,0.0,0.0,3.4383,3.4288,3.3625,3.3309,3.3372,3.5015,3.6026,3.6535,3.8902,4.0166,0.0,0.0,4.1873,0.0,0.0,4.1746,0.0,0.0,4.1588,4.1588,4.1588,4.1588,4.1525,4.1083,4.0515,3.9945,3.9501,3.9149,3.886,3.886,3.9556,0.0,0.0,3.863,0.0,3.7509,0.0,0.0,0.0,0.0,0.0,0.0,0.0,0.0,0.0,0.0,0.0,0.0,0.0,0.0,0.0,0.0,0.0,0.0,0.0,3.1892,3.2907,3.3925,3.4545,0.0,0.0,3.8427,3.8228,3.8917,3.9415,3.968,3.9415,3.9494,3.9884,4.0037,4.0402,4.1035,4.1963,4.2975,4.3921,4.4764,4.5536,4.6214,4.6214,4.6214,4.6214,4.6214,4.6214,4.6214,4.6214,4.6565,4.7197,3.4415,3.3878,3.353,3.3593,3.5774,0.0,0.0,0.0,5.05,0.0,5.5999,5.9412,6.1561,6.1119,6.0929,6.1593,6.0897,5.8432,5.3818,5.3976,0.0,0.0,4.6518,4.478,4.1904,0.0,0.0,0.0,0.0,3.5679,3.4288,3.3625,3.3309,3.3435,3.5429,0.0,3.6629,3.9376,4.0577,4.0704,4.1336,4.162,4.1652,4.1588,0.0,4.26,4.1841,4.1588,4.1588,4.1588,4.1588,4.1588,4.1588,4.1146,4.064,4.064,4.064,4.064,4.064,4.1023,4.1294,4.088,0.0,0.0,0.0,0.0,3.9347,0.0,0.0,0.0,0.0,0.0,0.0,0.0,0.0,0.0,0.0,0.0,0.0,0.0,0.0,0.0,0.0,2.8987,2.8929,2.947,3.1003,3.1913,0.0,0.0,0.0,3.8103,3.8891,3.9647,4.0343,3.9647,3.9494,3.991,4.0245,4.0611,4.1082,4.2288,4.3219,4.3921,4.4764,4.5536,4.6214,4.6214,4.6214,4.6214,4.6214,4.6214,4.6249,4.6249,4.7197,4.86,3.432,3.5426,3.6722,0.0,3.8081,3.9471,0.0,0.0,0.0,0.0,6.0645,6.4089,6.7218,6.6459,6.5606,6.529,6.3204,0.0,0.0,0.0,0.0,5.305,5.1322,4.8857,4.5539,4.3801,0.0,3.7986,0.0,3.5173,3.4288,3.3625,3.3561,3.4099,3.5173,3.6248,3.7322,3.906,4.0388,4.1336,4.1525,4.1904,0.0,0.0,4.2031,4.26,4.1841,4.1588,4.1588,4.1588,4.1588,4.1588,4.1588,4.1462,4.1336,4.1336,4.1336,4.1336,4.1336,4.1435,4.131,4.05,4.0289,4.0094,0.0,0.0,0.0,0.0,0.0,0.0,0.0,0.0,0.0,0.0,0.0,0.0,0.0,0.0,0.0,0.0,0.0,0.0,0.0,0.0,2.9228,2.9627,3.1126,0.0,0.0,0.0,0.0,3.74,3.8626,3.9381,3.958,3.9381,3.9651,4.0269,4.0368,4.0778,4.1506,4.2402,4.3219,4.3921,4.4764,4.5536,4.6214,4.6214,4.6214,4.6214,4.6214,4.6565,4.7081,4.7081,4.7713,4.86,3.609,3.8081,4.0008,4.0767,0.0,0.0,4.6582,4.9457,0.0,5.8622,6.2635,0.0,6.766,6.7976,6.7787,6.7091,6.4784,0.0,6.1466,0.0,0.0,5.5683,5.3882,5.129,4.7782,4.5697,0.0,3.9439,0.0,0.0,3.5205,3.4194,3.4099,3.4794,3.5521,3.6279,3.7133,3.8807,4.0482,4.2031,4.1715,0.0,0.0,4.1746,4.1841,4.2157,4.1746,4.1588,4.1588,4.1588,4.1588,4.1588,4.1588,4.1588,4.1588,4.1588,4.1588,4.1588,4.1588,4.1588,4.1497,4.1086,4.0925,4.0856,4.0765,4.0865,4.0814,0.0,0.0,0.0,0.0,0.0,0.0,0.0,0.0,0.0,0.0,0.0,0.0,0.0,0.0,0.0,0.0,0.0,0.0,0.0,0.0,0.0,0.0,0.0,0.0,0.0,3.8413,3.9315,3.9315,3.9613,4.0172,4.0895,4.0554,4.0998,4.2131,4.2587,4.3219,4.3921,4.4764,4.5536,4.6214,4.6214,4.6214,4.6214,4.6214,4.646,4.6941,4.7257,4.8099,4.9153,3.8776,4.1114,0.0,0.0,0.0,0.0,0.0,5.2902,0.0,5.9507,0.0,6.608,6.6048,6.7534,6.8292,6.766,0.0,6.3742,6.1909,6.0866,5.9222,5.6821,5.5209,5.2839,4.9521,4.7245,0.0,0.0,0.0,0.0,3.6377,3.5047,3.4826,3.5552,3.6124,0.0,0.0,3.8807,4.0704,4.2378,4.181,4.1588,4.1588,4.1588,4.1588,4.1588,4.1588,4.1588,4.1588,4.1588,4.1588,4.1588,4.1588,4.1588,4.1588,4.1588,4.1588,4.1588,4.1588,4.1588,4.1687,4.1948,4.1818,4.1753,4.2397,4.207,4.1545,4.1125,4.0393,0.0,0.0,0.0,0.0,0.0,0.0,0.0,0.0,0.0,0.0,0.0,0.0,0.0,0.0,0.0,0.0,0.0,0.0,0.0,0.0,0.0,0.0,0.0,3.8174,0.0,3.958,0.0,4.0809,4.1877,4.0964,4.1412,4.2973,4.3044,4.3465,4.4097,4.4904,4.5582,4.6214,4.6214,4.6214,4.6214,4.6214,4.6249,4.6425,4.7151,4.838,4.9811,4.0798,4.2821,4.4369,0.0,0.0,5.2681,5.6252,5.9064,6.1417,6.3362,6.6744,6.8956,6.8956,6.8261,6.7723,6.7597,6.5701,0.0,0.0,0.0,0.0,5.9602,5.7168,5.4735,5.2428,4.9205,4.5823,0.0,0.0,0.0,3.6377,3.5584,3.5584,3.6219,3.6345,0.0,3.8208,3.9756,0.0,4.0988,4.143,4.1588,4.1588,4.1588,4.1588,4.1588,4.1588,4.1588,4.1588,4.1588,4.1588,4.1588,4.1588,4.1588,4.1588,4.1588,4.1588,4.1588,4.1588,4.1588,4.1621,4.1687,4.1654,4.1687,4.2109,4.23,4.229,4.1877,4.1408,4.0691,3.9465,0.0,0.0,0.0,0.0,0.0,0.0,0.0,0.0,0.0,0.0,0.0,0.0,0.0,0.0,0.0,0.0,0.0,0.0,0.0,0.0,0.0,0.0,0.0,0.0,0.0,0.0,4.3389,4.2048,4.2196,4.3711,4.4378,4.4764,4.494,4.5688,4.6074,4.6214,4.6214,4.6214,4.6214,4.6214,4.66,4.7222,4.7327,4.838,4.9741,4.3643,0.0,4.678,0.0,0.0,0.0,0.0,6.3626,0.0,6.5164,6.6207,6.6997,6.6997,6.7344,6.7597,6.7597,6.5701,6.4532,6.4532,6.1877,6.0139,5.9791,5.7484,0.0,5.2586,4.911,4.5792,4.2695,0.0,0.0,0.0,3.6248,3.6311,3.6975,3.6975,3.7954,0.0,0.0,0.0,4.1683,4.162,4.1588,4.1588,4.1588,4.1588,4.1588,4.1588,4.1588,4.1588,4.1588,4.1588,4.1588,4.1588,4.1588,4.1588,4.1588,4.1588,4.1588,4.1588,4.1588,4.1588,4.1588,4.1588,4.1687,4.2013,4.2238,4.2266,4.2043,4.1559,4.0776,3.9654,3.8447,0.0,0.0,0.0,0.0,0.0,0.0,0.0,0.0,0.0,0.0,0.0,0.0,0.0,0.0,0.0,0.0,0.0,0.0,0.0,0.0,0.0,0.0,0.0,0.0,0.0,4.4165,4.3028,4.3221,4.4553,4.4904,4.5115,4.515,4.5863,4.6214,4.6214,4.6214,4.6214,4.6214,4.6214,4.6425,4.68,4.68,4.7748,4.9153,4.7277,4.8478,0.0,0.0,5.6586,0.0,6.1981,6.6308,6.8665,6.6523,6.5764,6.5353,6.5195,6.6491,6.7313,6.7186,6.5543,6.4468,6.431,6.1782,6.0076,5.9538,5.739,5.5083,5.2712,4.911,4.5981,0.0,0.0,0.0,0.0,0.0,0.0,0.0,0.0,0.0,0.0,0.0,4.1051,4.241,4.1999,4.181,4.181,4.1652,4.1588,4.1588,4.1588,4.1588,4.1588,4.1588,4.1588,4.1588,4.1588,4.1588,4.1588,4.1588,4.1588,4.1588,4.1588,4.1588,4.1588,4.1588,4.1588,4.1687,4.1948,4.2109,4.2204,4.2148,4.1671,4.0893,3.9833,3.9228,0.0,0.0,0.0,0.0,0.0,0.0,0.0,0.0,0.0,0.0,0.0,0.0,0.0,0.0,0.0,0.0,0.0,0.0,0.0,0.0,0.0,0.0,4.1583,0.0,4.3486,0.0,4.3994,4.4192,4.5326,4.5326,4.5326,4.5361,4.5933,4.6214,4.6214,4.6214,4.6214,4.6214,4.6214,4.6284,4.646,4.646,4.7407,4.8872,0.0,0.0,0.0,0.0,0.0,0.0,0.0,6.6127,6.8502,6.8405,6.8355,6.8039,6.7376,6.6933,6.6459,6.5879,6.5006,6.4247,6.3615,6.1529,6.0265,6.0202,5.7611,5.5746,5.4818,5.0816,4.7656,0.0,0.0,0.0,0.0,0.0,0.0,0.0,0.0,0.0,0.0,4.1336,4.2126,4.1746,4.2347,4.26,4.2505,4.1841,4.1588,4.1588,4.1588,4.1588,4.1588,4.1588,4.1588,4.1588,4.1588,4.1588,4.1588,4.1588,4.1588,4.1588,4.1588,4.1588,4.1588,4.1588,4.1588,4.1621,4.1654,4.211,4.2522,4.2519,4.2455,4.1996,4.0943,4.0454,4.0107,0.0,0.0,0.0,0.0,0.0,0.0,0.0,0.0,0.0,0.0,0.0,0.0,0.0,0.0,0.0,0.0,0.0,0.0,0.0,0.0,4.1068,4.3507,4.3039,0.0,4.6472,4.5034,4.4983,4.6109,4.6109,4.6109,4.6109,4.6179,4.6214,4.6214,4.6214,4.6214,4.6214,4.6214,4.6635,4.7292,4.7292,4.824,4.9574,0.0,0.0,0.0,0.0,0.0,0.0,0.0,6.7064,6.827,6.8058,6.7229,6.669,6.6975,6.6396,6.5701,6.5006,6.469,6.4058,6.292,6.1245,5.9918,5.9128,5.7231,5.5651,5.4545,5.1227,4.8478,0.0,0.0,0.0,0.0,0.0,0.0,0.0,0.0,4.0767,4.0451,4.2031,4.2758,4.2853,4.2726,4.2695,4.26,4.1873,4.1588,4.1588,4.1588,4.1588,4.1588,4.1588,4.1588,4.1588,4.1588,4.1588,4.1588,4.1588,4.1588,4.1588,4.1588,4.1588,4.1588,4.1588,4.1588,4.1588,4.1588,4.198,4.2365,4.2554,4.2553,4.2232,4.1339,4.0757,4.0364,0.0,0.0,0.0,0.0,0.0,0.0,0.0,0.0,0.0,0.0,0.0,0.0,0.0,0.0,0.0,0.0,0.0,0.0,3.7619,0.0,4.1454,4.3168,4.386,4.4923,4.6384,4.578,4.5775,4.6214,4.6214,4.6214,4.6214,4.6214,4.6214,4.6214,4.6214,4.6214,4.6249,4.673,4.7116,4.7432,4.7889,4.8766,4.9706,5.729,0.0,5.7652,0.0,6.2884,6.401,6.6209,6.6993,6.7287,6.6923,6.5584,6.5125,6.6448,6.5985,6.529,6.4563,6.4342,6.3615,6.2225,6.0961,5.9791,5.8622,5.7042,0.0,5.4735,5.1954,4.971,4.8035,4.576,0.0,0.0,0.0,0.0,0.0,4.1209,4.1841,4.1968,4.2884,4.3579,4.3959,4.3263,4.2979,4.2884,4.1936,4.1588,4.1588,4.1588,4.1588,4.1588,4.1588,4.1588,4.1588,4.1588,4.1588,4.1588,4.1588,4.1588,4.1588,4.1588,4.1588,4.1588,4.1588,4.1588,4.1621,4.172,4.2013,4.2397,4.2803,4.287,4.2605,4.1844,4.1342,4.0878,0.0,0.0,0.0,0.0,0.0,0.0,0.0,3.874,3.816,3.6965,0.0,0.0,0.0,0.0,0.0,0.0,0.0,0.0,0.0,0.0,0.0,0.0,0.0,4.5688,4.6214,4.6214,4.6214,4.6214,4.6214,4.6214,4.6214,4.6214,4.6214,4.6214,4.6214,4.6214,4.6284,4.7081,4.7538,4.7819,4.8591,4.9363,5.003,6.1268,6.1339,6.2086,6.6461,6.7218,6.6936,6.6049,6.552,6.5211,6.5242,6.4088,6.4066,6.6354,6.5985,6.529,6.4563,6.39,6.2888,6.1498,6.0708,6.0012,0.0,0.0,5.6189,5.6157,5.3408,5.1638,5.0951,0.0,0.0,4.364,0.0,0.0,4.0704,4.3453,4.3927,4.2758,4.4117,4.4685,4.4654,4.3955,4.3671,4.3513,4.2126,4.1588,4.1588,4.1588,4.1588,4.1588,4.1588,4.1588,4.1588,4.1588,4.1588,4.1588,4.1588,4.1588,4.1588,4.1588,4.1588,4.1588,4.1588,4.1588,4.1687,4.2013,4.2333,4.2772,4.3479,4.3598,4.3367,4.2605,4.2473,4.2038,4.0641,0.0,0.0,0.0,0.0,0.0,0.0,3.9639,3.9715,3.9322,0.0,0.0,0.0,0.0,0.0,0.0,0.0,0.0,3.9869,4.2087,0.0,4.5056,4.5793,4.6179,4.6214,4.6214,4.6214,4.6214,4.6214,4.6214,4.6214,4.6214,4.6214,4.6214,4.6214,4.6214,4.6284,4.7081,4.7889,4.8661,4.9398,5.0171,5.0873,6.2214,6.2924,6.3472,6.5277,6.6342,6.6763,6.6186,6.5973,6.5926,6.6117,6.5376,6.5125,6.5859,6.529,6.4374,0.0,6.2888,6.2161,0.0,6.0012,5.8906,5.7263,5.6536,5.5746,5.4767,5.3439,5.2175,5.1015,0.0,0.0,0.0,4.418,4.3579,4.2755,4.4117,4.4464,4.4117,4.5065,4.5476,4.5412,4.4685,4.4401,4.4271,4.339,4.2758,4.2347,4.2347,4.2031,4.1588,4.1588,4.1588,4.1588,4.1588,4.1588,4.1588,4.1588,4.1588,4.1588,4.1588,4.1588,4.1588,4.1588,4.1588,4.1687,4.2013,4.2555,4.3082,4.3509,4.3598,4.3532,4.3267,4.2837,4.2175,4.1243,0.0,0.0,0.0,0.0,0.0,0.0,3.9658,3.9617,0.0,3.8824,0.0,0.0,0.0,0.0,0.0,0.0,0.0,0.0,4.2637,0.0,4.4679,4.567,4.6214,4.6214,4.6214,4.6495,4.7046,4.7512,4.7477,4.7046,4.7547,4.7161,4.6249,4.68,4.7011,4.7081,4.7854,4.8626,4.9434,5.0206,5.0662,5.0873,6.2166,6.2951,6.3528,6.4723,6.5635,6.6081,6.5868,6.567,6.5728,6.6186,6.5606,6.5069,6.4816,6.4626,0.0,6.292,6.2572,6.1814,6.0392,5.9918,5.8748,5.6663,5.6315,5.5651,5.4514,0.0,0.0,5.1764,4.9584,4.734,4.5128,4.4843,4.4496,4.4117,4.4812,4.5128,4.5159,4.5602,4.5823,4.576,4.5001,4.4717,4.4654,4.3955,4.3295,4.2695,4.2695,4.222,4.1588,4.1588,4.1588,4.1588,4.1588,4.1588,4.1588,4.1588,4.1588,4.1588,4.1588,4.1588,4.1588,4.1588,4.1588,4.172,4.2174,4.2711,4.3204,4.3539,4.3598,4.3598,4.3598,4.3002,4.2241,4.1513,0.0,0.0,0.0,0.0,0.0,0.0,0.0,0.0,0.0,3.9782,0.0,0.0,0.0,0.0,0.0,0.0,0.0,4.165,4.3675,0.0,4.5566,4.629,4.6775,4.7056,4.7056,4.7302,4.7819,4.8284,4.8275,4.7889,4.8345,4.7969,4.7091,4.7608,4.7819,4.7889,4.8661,4.9258,4.9811,5.0592,5.0873,5.0873,6.1764,6.2238,0.0,0.0,6.5413,0.0,6.5289,6.4894,6.4816,6.5416,6.4879,6.4184,6.3552,6.4026,6.4121,6.3457,0.0,0.0,0.0,6.0202,5.9254,5.7231,5.6536,0.0,5.5039,5.3787,5.3028,5.2902,4.9552,4.7214,4.5855,4.5128,4.478,4.4812,4.5507,4.5823,4.5823,4.5823,4.5823,4.576,4.5065,4.478,4.4717,4.4082,4.3421,4.2758,4.2821,4.2315,4.1683,4.1683,4.1683,4.1652,4.162,4.162,4.1652,4.162,4.1588,4.1588,4.1652,4.1683,4.1683,4.1683,4.1685,4.1881,4.2589,4.2997,4.3336,4.3605,4.3664,4.3664,4.3598,4.3035,4.2307,4.1541,4.1143,4.0574,3.9468,0.0,0.0,0.0,0.0,0.0,0.0,4.1047,4.0989,0.0,0.0,0.0,0.0,0.0,0.0,4.2938,4.5056,4.66,4.7467,4.7467,4.7819,4.8495,4.8565,4.8565,4.8565,4.8635,4.8661,4.8696,4.8731,4.8661,4.8495,4.8565,4.8565,4.8635,4.9398,4.9741,4.9855,5.0592,5.0873,5.0873,0.0,0.0,6.6399,6.696,6.7494,6.7494,6.6425,6.5754,6.5195,6.4816,6.4152,6.3678,6.3489,6.3141,6.2857,6.2699,6.1529,6.0645,6.0329,5.9317,5.8053,5.6505,5.6283,5.562,5.4356,5.3534,5.2302,5.069,4.8825,4.7435,4.655,4.5855,4.5539,4.557,4.5728,4.5823,4.5823,4.5823,4.5823,4.5792,4.5634,4.5539,4.5539,4.5381,4.4559,4.3548,4.4053,4.3453,4.2442,4.2442,4.2442,4.2315,4.1778,4.1968,4.2315,4.1746,4.1588,4.1715,4.2284,4.2442,4.2442,4.2442,4.2644,4.3069,4.4042,4.456,4.4714,4.4495,4.4423,4.4257,4.3698,4.3466,4.2903,4.1607,4.1604,4.1171,3.9534,0.0,0.0,0.0,4.0433,4.123,4.1429,4.1698,4.2206,0.0,0.0,0.0,0.0,0.0,4.4916,4.4589,4.5617,4.6846,4.824,4.831,4.8415,4.8591,4.9153,4.9398,4.9434,5.003,4.9995,4.9469,5.0066,4.9644,4.853,4.9153,4.9398,4.9434,4.9635,5.0092,5.0627,5.0803,5.0873,5.0873,6.3329,6.5188,6.6681,6.6681,6.7249,6.7376,6.6301,6.5543,6.4942,6.4563,6.39,6.3489,6.3489,6.3141,6.2635,6.2003,6.1245,6.0645,6.0329,5.9317,5.799,5.6252,5.6189,5.5399,5.3692,5.2965,5.1733,4.9892,4.8573,4.7688,4.7277,4.6266,4.5823,4.5823,4.5823,4.5823,4.5823,4.5823,4.5823,4.5823,4.5823,4.5823,4.5823,4.5823,4.5128,4.4211,4.4591,4.4053,4.3169,4.3169,4.2947,4.2663,4.26,4.2631,4.2663,4.26,4.2568,4.2631,4.3042,4.3169,4.3169,4.3137,4.3307,4.3673,4.4591,4.4951,4.508,4.5191,4.492,4.4556,4.4191,4.3297,4.2307,4.1541,4.1203,4.0635,3.9468,3.9919,0.0,4.0113,4.1104,4.2093,4.2865,4.3256,4.372,4.4389,0.0,0.0,4.4448,4.5923,4.6414,4.5617,4.7046,4.8205,4.9047,4.9434,4.9469,4.9118,4.9855,5.0268,5.0241,5.0697,5.0662,5.0276,5.0697,5.0382,4.9644,5.0066,5.0268,5.0268,5.0268,5.0522,5.0873,5.0873,5.0873,5.0873,6.2416,6.4194,6.5732,6.5732,6.6207,6.6365,6.5669,6.4974,6.4437,6.4216,6.3678,6.3331,6.3331,6.3331,6.2793,6.1498,6.1308,6.0929,6.0202,5.9538,5.8274,5.6283,5.6189,5.5209,5.3155,5.2302,5.1227,4.9892,4.8573,4.7909,4.7877,4.6455,4.5823,4.5823,4.5823,4.5823,4.5823,4.5823,4.5823,4.5823,4.5823,4.5823,4.5823,4.5823,4.5349,4.4717,4.4843,4.4433,4.3829,4.3829,4.3485,4.3074,4.3545,4.339,4.3105,4.3706,4.3927,4.399,4.3895,4.3829,4.3895,4.4063,4.3997,4.4172,4.5012,4.5211,4.5342,4.5854,4.545,4.4953,4.4721,4.3065,4.1678,4.1579,4.0681,3.9878,3.9534,0.0,4.0612,4.0995,4.192,4.3093,4.4577,4.5028,4.532,4.5582,4.6074,0.0,0.0,4.6976,4.7432,4.674,4.8661,4.9776,4.9881,5.0557,5.0557,4.9916,5.0557,5.0873,5.0873,5.0873,5.0873,5.0873,5.0873,5.0873,5.0873,5.0873,5.0873,5.0873,5.0873,5.0873,5.0873,5.0873,5.0873,5.0873,6.35,6.4966,6.6459,6.6459,6.6523,6.6365,6.5669,6.4974,6.4089,6.287,6.2667,6.2604,6.2604,6.2604,6.2256,6.1466,6.0834,6.017,5.9507,5.8812,5.7769,5.6252,5.6189,5.5209,5.3155,5.1796,5.0721,4.9892,4.8573,4.7909,4.7877,4.6455,4.5823,4.5823,4.5823,4.5823,4.5823,4.5823,4.5823,4.5823,4.5823,4.5823,4.5823,4.5823,4.5349,4.478,4.5412,4.5159,4.4559,4.4559,4.4496,4.4306,4.3829,4.4022,4.4401,4.4527,4.5001,4.5349,4.4717,4.4559,4.4756,4.5681,4.5464,4.5381,4.6712,4.6977,4.6946,4.6777,4.6643,4.6179,4.492,4.3926,4.3035,4.2406,4.1199,4.0298,0.0,0.0,4.0956,4.1283,4.2842,4.44,4.5727,4.585,4.6443,4.7847,4.7503,4.7432,4.7933,4.8837,4.9293,4.9153,4.953,5.0057,5.0697,5.0838,5.0838,5.0697,5.0838,5.0873,5.0873,5.0873,5.0873,5.0873,5.0873,5.0873,5.0873,5.0873,5.0873,5.0873,5.0873,5.0873,5.0873,5.0873,5.0873,5.0873,6.2964,6.4538,6.5922,6.5543,6.548,6.5258,6.4563,6.4184,6.3584,6.2572,6.2396,6.2396,6.2396,6.2396,6.2161,6.1466,6.0739,6.0012,5.9349,5.8654,5.7688,5.6252,5.5809,5.4482,5.2017,5.0943,5.0247,4.9892,4.8573,4.7909,4.7877,4.6455,4.5823,4.5823,4.5823,4.5823,4.5823,4.5823,4.5823,4.5823,4.5823,4.5823,4.5823,4.5823,4.5602,4.5349,4.5697,4.5602,4.5317,4.5317,4.5033,4.4717,4.4776,4.478,4.478,4.5191,4.5539,4.5728,4.5381,4.5429,4.5674,4.617,4.6252,4.6369,4.7204,4.7404,4.7439,4.7472,4.7173,4.6576,4.5483,4.4059,4.3035,4.3069,4.1243,0.0,0.0,4.1504,4.1862,4.2835,4.4282,4.5739,4.7153,4.7105,4.7479,4.8676,4.8286,4.8345,4.9118,4.9504,4.9916,5.0311,5.0373,5.0522,5.0873,5.0873,5.0873,5.0873,5.0873,5.0873,5.0873,5.0873,5.0873,5.0873,5.0873,5.0873,5.0873,5.0873,5.0873,5.0873,5.0873,5.0873,5.0873,5.0873,5.0873,5.0873,6.2105,6.3703,6.4911,6.4374,6.4279,6.4089,6.3552,6.3489,6.3236,6.2509,6.2396,6.2396,6.2396,6.2396,6.2067,6.1213,6.0613,5.9949,5.9128,5.8432,5.7484,5.6252,5.5051,5.3408,5.1259,5.0374,4.9892,4.9892,4.8573,4.7909,4.7877,4.6455,4.5823,4.5823,4.5823,4.5823,4.5823,4.5823,4.5823,4.5823,4.5823,4.5823,4.5823,4.5823,4.5823,4.5823,4.5823,4.5823,4.5823,4.5823,4.5444,4.5065,4.5634,4.5412,4.5096,4.5634,4.5823,4.5823,4.5823,4.6048,4.6337,4.6407,4.6722,4.7132,4.7471,4.7538,4.7638,4.7935,4.7537,4.6941,4.6179,4.4522,4.3429,4.3764,0.0,0.0,0.0,4.2689,4.3177,4.4663,4.576,4.6999,4.8591,4.8493,4.864,4.9403,4.9213,4.9328,4.9925,4.9987,5.0241,5.0873,5.0873,5.0873,5.0873,5.0873,5.0873,5.0873,5.0873,5.0873,5.0873,5.0873,5.0873,5.0873,5.0873,5.0873,5.0873,5.0873,5.0873,5.0873,5.0873,5.0873,5.0873,5.0873,5.0873,5.0873,6.133,6.2574,6.3615,6.3552,6.3552,6.3552,6.3489,6.3489,6.3236,6.2509,6.2396,6.2396,6.2396,6.2396,6.1877,6.0487,6.0329,5.9728,5.8479,5.7674,5.6979,5.622,5.366,5.2144,5.1922,5.0627,4.9892,4.9892,4.8573,4.7909,4.7877,4.6455,4.5823,4.5823,4.5823,4.5823,4.5823,4.5823,4.5823,4.5823,4.5823,4.5823,4.5823,4.5823,4.5823,4.5823,4.5823,4.5823,4.5823,4.5823,4.576,4.5728,4.5792,4.576,4.5728,4.5792,4.5823,4.5823,4.5823,4.6048,4.6407,4.6756,4.71,4.7471,4.7869,4.7968,4.7968,4.8001,4.7968,4.7703,4.6941,4.6113,4.5351,4.4721,0.0,0.0,4.3499,4.4089,4.4963,4.6182,4.7046,4.815,4.9786,4.9935,5.0167,5.0721,5.0733,5.0733,5.0803,5.0803,5.0838,5.0873,5.0873,5.0873,5.0873,5.0873,5.0873,5.0873,5.0873,5.0873,5.0873,5.0873,5.0873,5.0873,5.0873,5.0873,5.0873,5.0873,5.0873,5.0873,5.0873,5.0873,5.0873,5.0873,5.0873,5.0873,6.0604,6.2093,6.3362,6.292,6.2825,6.2825,6.2825,6.2825,6.273,6.2428,6.2396,6.2396,6.2396,6.2396,6.2035,6.1055,6.055,5.9886,5.897,5.7453,5.6062,5.4956,5.3028,5.1796,5.1385,5.0405,4.9892,4.9892,4.8983,4.8509,4.8478,4.7561,4.6866,4.6424,4.6424,4.6202,4.5823,4.5823,4.5823,4.5823,4.5823,4.5823,4.5823,4.5823,4.5823,4.5823,4.5823,4.5823,4.5823,4.5823,4.5823,4.5823,4.5823,4.5823,4.5823,4.5823,4.5823,4.5828,4.6048,4.6404,4.6756,4.71,4.7504,4.7803,4.7968,4.8001,4.8001,4.8001,4.8001,4.7769,4.704,4.6311,4.5847,4.6046,0.0,4.4062,4.545,4.5483,4.5832,4.7056,4.7827,4.8643,4.9576,4.993,5.0159,5.0391,5.0737,5.0873,5.0873,5.0873,5.0873,5.0873,5.0873,5.0873,5.0873,5.0873,5.0873,5.0873,5.0873,5.0873,5.0873,5.0873,5.0873,5.0873,5.0873,5.0873,5.0873,5.0873,5.0873,5.0873,5.0873,5.1189,5.154,5.1049,5.1189,5.1532,6.0512,6.1854,6.3015,6.2459,6.2396,6.2396,6.2396,6.2396,6.2396,6.2396,6.2396,6.2396,6.2396,6.2396,6.2161,6.1466,6.0739,6.0012,5.9349,5.7358,5.5557,5.4166,5.2965,5.2017,5.1322,5.0595,5.0153,4.9892,4.9236,4.8889,4.8889,4.8193,4.7624,4.715,4.715,4.6898,4.6455,4.6202,4.6266,4.6424,4.5981,4.595,4.6108,4.5886,4.5823,4.5823,4.5823,4.5823,4.5823,4.5823,4.5823,4.5823,4.5823,4.5823,4.5823,4.5823,4.5823,4.59,4.6337,4.6687,4.6996,4.7303,4.7704,4.8001,4.8001,4.8001,4.8001,4.8001,4.8199,4.8133,4.7371,4.7007,4.6841,4.6874,4.5814,4.545,4.6709,4.6643,4.6895,4.8014,4.8612,4.9195,4.982,5.0165,5.0467,5.0682,5.0815,5.0873,5.0873,5.1119,5.1259,5.1259,5.1259,5.1259,5.1259,5.1013,5.0873,5.0873,5.1119,5.1259,5.1259,5.1505,5.147,5.1259,5.1259,5.1119,5.0873,5.0873,5.1013,5.1259,5.1259,5.1716,5.2312,5.1786,5.1981,5.2443,6.1226,6.1866,6.2396,6.2396,6.2396,6.2396,6.2396,6.2396,6.2396,6.2396,6.2396,6.2396,6.2396,6.2396,6.2161,6.1466,6.0739,6.0012,5.9317,5.7326,5.5557,5.4166,5.3471,5.2744,5.2017,5.1322,5.0627,4.9892,4.9236,4.8889,4.8889,4.8225,4.7909,4.7909,4.7909,4.7909,4.7846,4.7119,4.7214,4.7782,4.6392,4.6202,4.674,4.6076,4.5823,4.5823,4.5823,4.5823,4.5823,4.5823,4.5823,4.5823,4.5823,4.5823,4.5823,4.5823,4.5823,4.6004,4.6751,4.6927,4.6996,4.7303,4.7704,4.8001,4.8034,4.8034,4.8034,4.8034,4.8597,4.8895,4.8166,4.863,4.863,4.7173,4.7537,4.7769,4.704,4.7537,4.8356,4.9282,4.9402,4.9791,5.0792,5.0908,5.1224,5.1934,5.1329,5.0908,5.0908,5.161,5.2032,5.2032,5.2032,5.2032,5.2032,5.1294,5.0908,5.0908,5.1681,5.2032,5.2039,5.2839,5.2769,5.2032,5.2032,5.161,5.0908,5.0908,5.1365,5.2004,5.2032,5.2488,5.3218,5.3218,5.3387,5.3493,6.1328,6.1866,6.2396,6.2396,6.2396,6.2396,6.2396,6.2396,6.2396,6.2396,6.2396,6.2396,6.2396,6.2396,6.2161,6.1466,6.0739,5.938,5.7263,5.6536,5.5557,5.4166,5.2965,5.2238,5.2017,5.0848,5.0121,4.9892,4.971,4.9615,4.9615,4.9426,4.9047,4.8604,4.8604,4.832,4.7877,4.7656,4.7688,4.7846,4.7435,4.7403,4.7561,4.734,4.7277,4.7214,4.6708,4.6518,4.6518,4.6518,4.6518,4.6582,4.7119,4.7277,4.7277,4.7277,4.7501,4.7801,4.8239,4.8595,4.8744,4.8627,4.8663,4.8928,4.9425,4.9558,4.9558,4.9558,4.9723,4.9823,4.9591,4.9723,4.9756,4.9293,4.9425,4.9491,4.926,4.8961,4.8994,4.9603,4.9532,4.9639,5.0278,5.1137,5.154,5.1259,5.1505,5.1926,5.2481,5.2699,5.2839,5.2839,5.2839,5.2839,5.2839,5.2067,5.1681,5.1681,5.2453,5.2839,5.2839,5.3113,5.305,5.2839,5.2839,5.2699,5.2516,5.2516,5.2312,5.2067,5.2628,5.298,5.3218,5.3407,5.3898,5.4319,6.1765,6.2066,6.2396,6.2396,6.2396,6.2396,6.2396,6.2396,6.2396,6.2396,6.2396,6.2396,6.2396,6.2396,6.2161,6.1466,6.0487,5.897,5.6726,5.6347,5.5683,5.4545,5.3186,5.2302,5.2017,5.1195,5.0469,4.9892,4.9892,4.9892,4.9892,4.9892,4.971,4.9299,4.9299,4.9078,4.8667,4.8415,4.8446,4.8636,4.8098,4.8067,4.8256,4.8004,4.7909,4.7846,4.7403,4.7245,4.7245,4.7245,4.7245,4.7308,4.7751,4.7909,4.7909,4.7909,4.8179,4.8588,4.8921,4.9316,4.9672,4.9886,4.9756,4.9657,5.0121,5.022,5.022,5.022,5.0452,5.0551,5.0253,5.0452,5.0551,5.0253,5.022,5.0121,4.9823,4.9657,4.9626,4.9784,5.0119,5.0472,5.0945,5.192,5.2277,5.1821,5.2488,5.298,5.3218,5.3471,5.3647,5.3647,5.3647,5.3647,5.3647,5.3155,5.2769,5.2488,5.326,5.3647,5.3647,5.3963,5.3928,5.3647,5.3647,5.3471,5.3183,5.2839,5.2804,5.2944,5.312,5.3626,5.4296,5.4464,5.4969,5.5464,6.2396,6.2396,6.2396,6.2396,6.2396,6.2396,6.2396,6.2396,6.2396,6.2396,6.2396,6.2396,6.2396,6.2396,6.2161,6.1466,6.0107,5.8717,5.7326,5.6568,5.5873,5.5102,5.3882,5.287,5.2112,5.1986,5.1259,4.9892,4.9892,4.9892,4.9892,4.9892,4.9892,4.9892,4.9892,4.9892,4.9829,4.9236,4.9331,4.9765,4.8573,4.8446,4.892,4.832,4.8067,4.8067,4.8004,4.7972,4.7972,4.7972,4.8035,4.8067,4.8067,4.8067,4.8067,4.8105,4.8407,4.8785,4.9151,4.9548,5.0101,5.1144,5.0883,5.0419,5.0419,5.0419,5.0419,5.0419,5.0916,5.1181,5.0518,5.0949,5.1183,5.0518,5.0419,5.0187,4.9491,4.9922,5.0224,4.9954,5.1002,5.1878,5.2304,5.2869,5.3254,5.3394,5.3963,5.4033,5.3464,5.4033,5.4419,5.4419,5.4419,5.4419,5.4419,5.4419,5.4033,5.3324,5.4033,5.4419,5.4454,5.5191,5.5121,5.4419,5.4419,5.3998,5.3254,5.2523,5.3015,5.4138,5.357,5.4367,5.583,5.5957,5.632,5.6668,6.2396,6.2396,6.2396,6.2396,6.2396,6.2396,6.2396,6.2396,6.2396,6.2396,6.2396,6.2396,6.2396,6.2396,6.2161,6.1466,6.0107,5.8717,5.7326,5.6568,5.5873,5.5102,5.4324,5.3566,5.2902,5.1764,5.0785,4.9892,4.9892,4.9892,4.9892,4.9892,4.9892,4.9892,4.9892,4.9892,4.986,4.9734,4.9773,4.986,4.9584,4.9584,4.9679,4.9521,4.9489,4.9426,4.8857,4.8667,4.8667,4.8667,4.9047,4.9489,4.9489,4.9489,4.9528,4.9846,5.0229,5.0644,5.1084,5.1484,5.1872,5.2108,5.2009,5.191,5.191,5.191,5.191,5.191,5.2042,5.2111,5.1943,5.2042,5.2111,5.1943,5.191,5.1843,5.1711,5.1313,5.1052,5.0989,5.1388,5.1754,5.1813,5.266,5.3682,5.4911,5.4559,5.4524,5.4981,5.5156,5.5262,5.5262,5.5262,5.5262,5.5262,5.5262,5.484,5.4068,5.4875,5.5262,5.5262,5.5437,5.5402,5.5262,5.5262,5.4805,5.4033,5.3892,5.3647,5.35,5.4176,5.4704,5.517,5.6214,5.6671,5.6695,6.2396,6.2396,6.2396,6.2396,6.2396,6.2396,6.2396,6.2396,6.2396,6.2396,6.2396,6.2396,6.2396,6.213,6.1529,6.0487,5.9412,5.8496,5.7769,5.7073,5.6378,5.5683,5.4956,5.4134,5.3123,5.2017,5.1132,5.0405,5.0089,4.9892,4.9892,4.9892,4.9892,4.9892,4.9892,4.9892,4.9892,4.9892,4.9892,4.9892,4.9892,4.9892,4.9892,4.9892,4.9892,4.9829,4.9521,4.9394,4.9394,4.9394,4.9615,4.9892,4.9892,5.0018,5.0214,5.0448,5.0946,5.1503,5.1725,5.2086,5.2409,5.2409,5.2409,5.2409,5.2409,5.2409,5.2409,5.2409,5.2409,5.2409,5.2409,5.2409,5.2409,5.2409,5.2409,5.231,5.1945,5.1879,5.1713,5.1348,5.1934,5.259,5.3066,5.3833,5.463,5.5437,5.5121,5.5086,5.5507,5.5507,5.5507,5.5507,5.5507,5.5507,5.5507,5.5507,5.5297,5.4875,5.5297,5.5507,5.5507,5.5507,5.5507,5.5507,5.5507,5.5262,5.484,5.4454,5.4365,5.4536,5.4712,5.5174,5.5839,5.6527,5.6855,5.6974,6.2396,6.2396,6.2396,6.2396,6.2396,6.2396,6.2396,6.2491,6.2572,6.2396,6.2491,6.2572,6.2396,6.1687,6.0708,5.9412,5.8685,5.8321,5.8321,5.7484,5.6789,5.622,5.5399,5.4419,5.3313,5.246,5.167,5.1015,5.0279,4.9892,4.9892,4.9892,4.9892,4.9892,4.9892,4.9892,4.9892,4.9892,4.9892,4.9892,4.9892,4.9892,4.9892,4.9892,4.9892,4.9892,4.9892,4.9892,4.9892,4.9892,4.9892,4.9892,4.9892,5.0175,5.0525,5.0602,5.1172,5.1831,5.1904,5.2158,5.2409,5.2409,5.2409,5.2409,5.2409,5.2409,5.2409,5.2409,5.2409,5.2409,5.2409,5.2409,5.2409,5.2409,5.2409,5.221,5.158,5.2011,5.2142,5.158,5.2536,5.3616,5.4617,5.5174,5.5507,5.5507,5.5507,5.5507,5.5507,5.5507,5.5507,5.5507,5.5507,5.5507,5.5507,5.5507,5.5507,5.5507,5.5507,5.5507,5.5507,5.5507,5.5507,5.5507,5.5507,5.5437,5.5262,5.4595,5.4809,5.5568,5.5071,5.5615,5.676,5.6829,5.6984,5.7188,6.2396,6.2396,6.2396,6.2396,6.2396,6.2396,6.2396,6.2951,6.311,6.2459,6.2951,6.311,6.2459,6.1245,6.0139,5.938,5.8685,5.8321,5.8321,5.7042,5.6283,5.6189,5.4925,5.4134,5.3976,5.2681,5.167,5.1015,5.0279,4.9892,4.9892,4.9892,4.9892,4.9892,4.9892,4.9892,4.9892,4.9892,4.9892,4.9892,4.9892,4.9892,4.9892,4.9892,4.9892,4.9892,4.9892,4.9892,4.9892,4.9892,4.9892,4.9892,4.9892,5.0175,5.0563,5.0914,5.1359,5.1904,5.223,5.2338,5.2409,5.2409,5.2409,5.2409,5.2409,5.2409,5.2409,5.2409,5.2409,5.2409,5.2409,5.2409,5.2409,5.2409,5.2409,5.2376,5.2277,5.2343,5.234,5.2277,5.3146,5.4042,5.4648,5.5174,5.5507,5.5507,5.5507,5.5507,5.5507,5.5507,5.5507,5.5507,5.5507,5.5507,5.5507,5.5507,5.5507,5.5507,5.5507,5.5507,5.5507,5.5507,5.5507,5.5507,5.5507,5.5121,5.4454,5.4349,5.4413,5.457,5.4961,5.5669,5.6519,5.6959,5.7163,5.7188,6.2396,6.2396,6.2396,6.2396,6.2396,6.2572,6.2951,6.2951,6.292,6.3015,6.2951,6.2762,6.2428,6.115,5.9886,5.8812,5.8464,5.8321,5.8321,5.7326,5.6599,5.6189,5.5209,5.4482,5.4103,5.3123,5.246,5.2175,5.0658,4.9892,4.9892,4.9892,4.9892,4.9892,4.9892,4.9892,4.9892,4.9892,4.9892,4.9892,4.9892,4.9892,4.9892,4.9892,4.9892,4.9892,4.9892,4.9892,4.9892,4.9892,4.9892,4.9892,4.9892,5.0331,5.0838,5.1027,5.1582,5.2158,5.2338,5.2409,5.2409,5.2409,5.2409,5.2409,5.2409,5.2409,5.2409,5.2409,5.2409,5.2409,5.2409,5.2409,5.2409,5.2409,5.2409,5.2409,5.2409,5.2409,5.2409,5.2409,5.3281,5.3977,5.4235,5.5022,5.5507,5.5507,5.5507,5.5507,5.5507,5.5507,5.5507,5.5507,5.5507,5.5507,5.5507,5.5507,5.5507,5.5507,5.5507,5.5507,5.5507,5.5507,5.5507,5.5507,5.5507,5.5297,5.4981,5.4981,5.5184,5.5489,5.5766,5.6277,5.6891,5.7112,5.7188,5.7188]}]]